[[{"header":{"parameterUnit":"m.s-1","parameterCategory":1,"la1":30.6,"la2":28.766,"lo1":-90.7593,"lo2":-88.6598,"dy":0.0162,"dx":0.0183,"nx":116,"ny":114,"refTime":"2023-07-24T06:00:00:Z","depth":0,"parameterNumber":2,"parameterNumberName":"U-component_of_WINDS"},"data":[0.0,0.0,0.0,0.0,0.0,0.0,0.0,0.0,0.0,0.0,0.0,0.0,0.0,0.0,0.0,0.0,0.0,0.0,0.0,0.0,0.0,0.0,0.0,0.0,0.0,0.0,0.0,0.0,0.0,0.0,0.0,0.0,0.0,0.0,0.0,0.0,0.0,0.0,0.0,0.0,0.0,0.0,0.0,0.0,0.0,0.0,0.0,0.0,0.0,0.0,0.0,0.0,0.0,0.0,0.0,0.0,0.0,0.0,0.0,0.0,0.0,0.0,0.0,0.0,0.0,0.0,0.0,0.0,0.0,0.0,0.0,0.0,0.0,0.0,0.0,0.0,0.0,0.0,0.0,0.0,0.0,0.0,0.0,0.0,0.0,0.0,0.0,0.0,0.0,0.0,0.0,0.0,0.0,0.0,0.0,0.0,0.0,0.0,0.0,0.0,0.0,0.0,0.0,0.0,0.0,0.0,0.0,0.0,0.0,0.0,0.0,0.0,0.0,0.0,0.0,0.0,0.0,0.0,0.0,0.0,0.0,0.0,0.0,0.0,0.0,0.0,0.0,0.0,0.0,0.0,0.0,0.0,0.0,0.0,0.0,0.0,0.0,0.0,0.0,0.0,0.0,0.0,0.0,0.0,0.0,0.0,0.0,0.0,0.0,0.0,0.0,0.0,0.0,0.0,0.0,0.0,0.0,0.0,0.0,0.0,0.0,0.0,0.0,0.0,0.0,0.0,0.0,0.0,0.0,0.0,0.0,0.0,0.0,0.0,0.0,0.0,0.0,0.0,0.0,0.0,0.0,0.0,0.0,0.0,0.0,0.0,0.0,0.0,0.0,0.0,0.0,0.0,0.0,0.0,0.0,0.0,0.0,0.0,0.0,0.0,0.0,0.0,0.0,0.0,0.0,0.0,0.0,0.0,0.0,0.0,0.0,0.0,0.0,0.0,0.0,0.0,0.0,0.0,0.0,0.0,0.0,0.0,0.0,0.0,0.0,0.0,0.0,0.0,0.0,0.0,0.0,0.0,0.0,0.0,0.0,0.0,0.0,0.0,0.0,0.0,0.0,0.0,0.0,0.0,0.0,0.0,0.0,0.0,0.0,0.0,0.0,0.0,0.0,0.0,0.0,0.0,0.0,0.0,0.0,0.0,0.0,0.0,0.0,0.0,0.0,0.0,0.0,0.0,0.0,0.0,0.0,0.0,0.0,0.0,0.0,0.0,0.0,0.0,0.0,0.0,0.0,0.0,0.0,0.0,0.0,0.0,0.0,0.0,0.0,0.0,0.0,0.0,0.0,0.0,0.0,0.0,0.0,0.0,0.0,0.0,0.0,0.0,0.0,0.0,0.0,0.0,0.0,0.0,0.0,0.0,0.0,0.0,0.0,0.0,0.0,0.0,0.0,0.0,0.0,0.0,0.0,0.0,0.0,0.0,0.0,0.0,0.0,0.0,0.0,0.0,0.0,0.0,0.0,0.0,0.0,0.0,0.0,0.0,0.0,0.0,0.0,0.0,0.0,0.0,0.0,0.0,0.0,0.0,0.0,0.0,0.0,0.0,0.0,0.0,0.0,0.0,0.0,0.0,0.0,0.0,0.0,0.0,0.0,0.0,0.0,0.0,0.0,0.0,0.0,0.0,0.0,0.0,0.0,0.0,0.0,0.0,0.0,0.0,0.0,0.0,0.0,0.0,0.0,0.0,0.0,0.0,0.0,0.0,0.0,0.0,0.0,0.0,0.0,0.0,0.0,0.0,0.0,0.0,0.0,0.0,0.0,0.0,0.0,0.0,0.0,0.0,0.0,0.0,0.0,0.0,0.0,0.0,0.0,0.0,0.0,0.0,0.0,0.0,0.0,0.0,0.0,0.0,0.0,0.0,0.0,0.0,0.0,0.0,0.0,0.0,0.0,0.0,0.0,0.0,0.0,0.0,0.0,0.0,0.0,0.0,0.0,0.0,0.0,0.0,0.0,0.0,0.0,0.0,0.0,0.0,0.0,0.0,0.0,0.0,0.0,0.0,0.0,0.0,0.0,0.0,0.0,0.0,0.0,0.0,0.0,0.0,0.0,0.0,0.0,0.0,0.0,0.0,0.0,0.0,0.0,0.0,0.0,0.0,0.0,0.0,0.0,0.0,0.0,0.0,0.0,0.0,0.0,0.0,0.0,0.0,0.0,0.0,0.0,0.0,0.0,0.0,0.0,0.0,0.0,0.0,0.0,0.0,0.0,0.0,0.0,0.0,0.0,0.0,0.0,0.0,0.0,0.0,0.0,0.0,0.0,0.0,0.0,0.0,0.0,0.0,0.0,0.0,0.0,0.0,0.0,0.0,0.0,0.0,0.0,0.0,0.0,0.0,0.0,0.0,0.0,0.0,0.0,0.0,0.0,0.0,0.0,0.0,0.0,0.0,0.0,0.0,0.0,0.0,0.0,0.0,0.0,0.0,0.0,0.0,0.0,0.0,0.0,0.0,0.0,0.0,0.0,0.0,0.0,0.0,0.0,0.0,0.0,0.0,0.0,0.0,0.0,0.0,0.0,0.0,0.0,0.0,0.0,0.0,0.0,0.0,0.0,0.0,0.0,0.0,0.0,0.0,0.0,0.0,0.0,0.0,0.0,0.0,0.0,0.0,0.0,0.0,0.0,0.0,0.0,0.0,0.0,0.0,0.0,0.0,0.0,0.0,0.0,0.0,0.0,0.0,0.0,0.0,0.0,0.0,0.0,0.0,0.0,0.0,0.0,0.0,0.0,0.0,0.0,0.0,0.0,0.0,0.0,0.0,0.0,0.0,0.0,0.0,0.0,0.0,0.0,0.0,0.0,0.0,0.0,0.0,0.0,0.0,0.0,0.0,0.0,0.0,0.0,0.0,0.0,0.0,0.0,0.0,0.0,0.0,0.0,0.0,0.0,0.0,0.0,0.0,0.0,0.0,0.0,0.0,0.0,0.0,0.0,0.0,0.0,0.0,0.0,0.0,0.0,0.0,0.0,0.0,0.0,0.0,0.0,0.0,0.0,0.0,0.0,0.0,0.0,0.0,0.0,0.0,0.0,0.0,0.0,0.0,0.0,0.0,0.0,0.0,0.0,0.0,0.0,0.0,0.0,0.0,0.0,0.0,0.0,0.0,0.0,0.0,0.0,0.0,0.0,0.0,0.0,0.0,0.0,0.0,0.0,0.0,0.0,0.0,0.0,0.0,0.0,0.0,0.0,0.0,0.0,0.0,0.0,0.0,0.0,0.0,0.0,0.0,0.0,0.0,0.0,0.0,0.0,0.0,0.0,0.0,0.0,0.0,0.0,0.0,0.0,0.0,0.0,0.0,0.0,0.0,0.0,0.0,0.0,0.0,0.0,0.0,0.0,0.0,0.0,0.0,0.0,0.0,0.0,0.0,0.0,0.0,0.0,0.0,0.0,0.0,0.0,0.0,0.0,0.0,0.0,0.0,0.0,0.0,0.0,0.0,0.0,0.0,0.0,0.0,0.0,0.0,0.0,0.0,0.0,0.0,0.0,0.0,0.0,0.0,0.0,0.0,0.0,0.0,0.0,0.0,0.0,0.0,0.0,0.0,0.0,0.0,0.0,0.0,0.0,0.0,0.0,0.0,0.0,0.0,0.0,0.0,0.0,0.0,0.0,0.0,0.0,0.0,0.0,0.0,0.0,0.0,0.0,0.0,0.0,0.0,0.0,0.0,0.0,0.0,0.0,0.0,0.0,0.0,0.0,0.0,0.0,0.0,0.0,0.0,0.0,0.0,0.0,0.0,0.0,0.0,0.0,0.0,0.0,0.0,0.0,0.0,0.0,0.0,0.0,0.0,0.0,0.0,0.0,0.0,0.0,0.0,0.0,0.0,0.0,0.0,0.0,0.0,0.0,0.0,0.0,0.0,0.0,0.0,0.0,0.0,0.0,0.0,0.0,0.0,0.0,0.0,0.0,0.0,0.0,0.0,0.0,0.0,0.0,0.0,0.0,0.0,0.0,0.0,0.0,0.0,0.0,0.0,0.0,0.0,0.0,0.0,0.0,0.0,0.0,0.0,0.0,0.0,0.0,0.0,0.0,0.0,0.0,0.0,0.0,0.0,0.0,0.0,0.0,0.0,0.0,0.0,0.0,0.0,0.0,0.0,0.0,0.0,0.0,0.0,0.0,0.0,0.0,0.0,0.0,0.0,0.0,0.0,0.0,0.0,0.0,0.0,0.0,0.0,0.0,0.0,0.0,0.0,0.0,0.0,0.0,0.0,0.0,0.0,0.0,0.0,0.0,0.0,0.0,0.0,0.0,0.0,0.0,0.0,0.0,0.0,0.0,0.0,0.0,0.0,0.0,0.0,0.0,0.0,0.0,0.0,0.0,0.0,0.0,0.0,0.0,0.0,0.0,0.0,0.0,0.0,0.0,0.0,0.0,0.0,0.0,0.0,0.0,0.0,0.0,0.0,0.0,0.0,0.0,0.0,0.0,0.0,0.0,0.0,0.0,0.0,0.0,0.0,0.0,0.0,0.0,0.0,0.0,0.0,0.0,0.0,0.0,0.0,0.0,0.0,0.0,0.0,0.0,0.0,0.0,0.0,0.0,0.0,0.0,0.0,0.0,0.0,0.0,0.0,0.0,0.0,0.0,0.0,0.0,0.0,0.0,0.0,0.0,0.0,0.0,0.0,0.0,0.0,0.0,0.0,0.0,0.0,0.0,0.0,0.0,0.0,0.0,0.0,0.0,0.0,0.0,0.0,0.0,0.0,0.0,0.0,0.0,0.0,0.0,0.0,0.0,0.0,0.0,0.0,0.0,0.0,0.0,0.0,0.0,0.0,0.0,0.0,0.0,0.0,0.0,0.0,0.0,0.0,0.0,0.0,0.0,0.0,0.0,0.0,0.0,0.0,0.0,0.0,0.0,0.0,0.0,0.0,0.0,0.0,0.0,0.0,0.0,0.0,0.0,0.0,0.0,0.0,0.0,0.0,0.0,0.0,0.0,0.0,0.0,0.0,0.0,0.0,0.0,0.0,0.0,0.0,0.0,0.0,0.0,0.0,0.0,0.0,0.0,0.0,0.0,0.0,0.0,0.0,0.0,0.0,0.0,0.0,0.0,0.0,0.0,0.0,0.0,0.0,0.0,0.0,0.0,0.0,0.0,0.0,0.0,0.0,0.0,0.0,0.0,0.0,0.0,0.0,0.0,0.0,0.0,0.0,0.0,0.0,0.0,0.0,0.0,0.0,0.0,0.0,0.0,0.0,0.0,0.0,0.0,0.0,0.0,0.0,0.0,0.0,0.0,0.0,0.0,0.0,0.0,0.0,0.0,0.0,0.0,0.0,0.0,0.0,0.0,0.0,0.0,0.0,0.0,0.0,0.0,0.0,0.0,0.0,0.0,0.0,0.0,0.0,0.0,0.0,0.0,0.0,0.0,0.0,0.0,0.0,0.0,0.0,0.0,0.0,0.0,0.0,0.0,0.0,0.0,0.0,0.0,0.0,0.0,0.0,0.0,0.0,0.0,0.0,0.0,0.0,0.0,0.0,0.0,0.0,0.0,0.0,0.0,0.0,0.0,0.0,0.0,0.0,0.0,0.0,0.0,0.0,0.0,0.0,0.0,0.0,0.0,0.0,0.0,0.0,0.0,0.0,0.0,0.0,0.0,0.0,0.0,0.0,0.0,0.0,0.0,0.0,0.0,0.0,0.0,0.0,0.0,0.0,0.0,0.0,0.0,0.0,0.0,0.0,0.0,0.0,0.0,0.0,0.0,0.0,0.0,0.0,0.0,0.0,0.0,0.0,0.0,0.0,0.0,0.0,0.0,0.0,0.0,0.0,0.0,0.0,0.0,0.0,0.0,0.0,0.0,0.0,0.0,0.0,0.0,0.0,0.0,0.0,0.0,0.0,0.0,0.0,0.0,0.0,0.0,0.0,0.0,0.0,0.0,0.0,0.0,0.0,0.0,0.0,0.0,0.0,0.0,0.0,0.0,0.0,0.0,0.0,0.0,0.0,0.0,0.0,0.0,0.0,0.0,0.0,0.0,0.0,0.0,0.0,0.0,0.0,0.0,0.0,0.0,0.0,0.0,0.0,0.0,0.0,0.0,0.0,0.0,0.0,0.0,0.0,0.0,0.0,-2.9865,0.0,0.0,0.0,0.0,0.0,0.0,0.0,0.0,0.0,0.0,0.0,0.0,0.0,0.0,0.0,0.0,0.0,0.0,0.0,0.0,0.0,0.0,0.0,0.0,0.0,0.0,0.0,0.0,0.0,0.0,0.0,0.0,0.0,0.0,0.0,0.0,0.0,0.0,0.0,0.0,0.0,0.0,0.0,0.0,0.0,0.0,0.0,0.0,0.0,0.0,0.0,0.0,0.0,0.0,0.0,0.0,0.0,0.0,0.0,0.0,0.0,0.0,0.0,0.0,0.0,0.0,0.0,0.0,0.0,0.0,0.0,0.0,0.0,0.0,0.0,0.0,0.0,0.0,0.0,0.0,0.0,0.0,0.0,0.0,0.0,0.0,0.0,0.0,0.0,0.0,0.0,0.0,0.0,0.0,0.0,0.0,0.0,0.0,0.0,0.0,0.0,0.0,0.0,0.0,0.0,0.0,0.0,0.0,0.0,0.0,0.0,0.0,0.0,0.0,0.0,0.0,-3.0135,0.0,0.0,0.0,0.0,0.0,0.0,0.0,0.0,0.0,0.0,0.0,0.0,0.0,0.0,0.0,0.0,0.0,0.0,0.0,0.0,0.0,0.0,0.0,0.0,0.0,0.0,0.0,0.0,0.0,0.0,0.0,0.0,0.0,0.0,0.0,0.0,0.0,0.0,0.0,0.0,0.0,0.0,0.0,0.0,0.0,0.0,0.0,0.0,0.0,0.0,0.0,0.0,0.0,0.0,0.0,0.0,0.0,0.0,0.0,0.0,0.0,0.0,0.0,0.0,0.0,0.0,0.0,0.0,0.0,0.0,0.0,0.0,0.0,0.0,0.0,0.0,0.0,0.0,0.0,0.0,0.0,0.0,0.0,0.0,0.0,0.0,0.0,0.0,0.0,0.0,0.0,0.0,0.0,0.0,0.0,0.0,0.0,0.0,0.0,0.0,0.0,0.0,0.0,0.0,0.0,0.0,0.0,0.0,-3.3122,-3.3218,-3.3353,-3.3199,-3.3122,-3.3045,-3.15,-3.075,-3.0635,0.0,0.0,0.0,0.0,0.0,0.0,0.0,0.0,0.0,0.0,0.0,0.0,0.0,0.0,0.0,0.0,0.0,0.0,0.0,0.0,0.0,0.0,0.0,0.0,0.0,0.0,0.0,0.0,0.0,0.0,0.0,0.0,0.0,0.0,0.0,0.0,0.0,0.0,0.0,-4.0751,-4.0693,-4.0629,-4.0468,-3.955,0.0,0.0,0.0,0.0,0.0,0.0,0.0,0.0,0.0,0.0,0.0,0.0,0.0,0.0,0.0,0.0,0.0,0.0,0.0,0.0,0.0,0.0,0.0,0.0,0.0,0.0,0.0,0.0,0.0,0.0,0.0,0.0,0.0,0.0,0.0,0.0,0.0,0.0,0.0,0.0,0.0,0.0,0.0,-3.2673,-3.2731,0.0,0.0,0.0,0.0,0.0,0.0,0.0,0.0,0.0,0.0,0.0,0.0,0.0,-3.2737,-3.2737,-3.2852,-3.3276,-3.4032,-3.4032,-3.441,-3.5135,-3.4372,-3.4032,-3.3975,-3.2987,0.0,-3.1525,-3.1525,0.0,0.0,0.0,0.0,0.0,0.0,0.0,0.0,0.0,0.0,0.0,0.0,0.0,0.0,0.0,0.0,0.0,0.0,0.0,0.0,0.0,0.0,0.0,0.0,0.0,0.0,0.0,0.0,0.0,0.0,0.0,0.0,0.0,0.0,0.0,0.0,-4.0766,-4.077,-4.0797,-4.0766,-4.0762,-4.0738,-4.028,-3.9783,-3.9265,-3.8892,0.0,0.0,0.0,0.0,0.0,0.0,0.0,0.0,0.0,0.0,0.0,0.0,0.0,0.0,0.0,0.0,0.0,0.0,0.0,0.0,0.0,0.0,0.0,0.0,0.0,0.0,0.0,0.0,0.0,0.0,0.0,0.0,0.0,0.0,0.0,0.0,0.0,0.0,0.0,-3.2984,-3.3083,-3.3564,-3.3199,-3.2891,0.0,0.0,0.0,0.0,0.0,0.0,0.0,0.0,0.0,-3.4346,-3.4795,-3.5045,-3.5045,-3.5526,-3.5968,-3.6334,-3.6334,-3.6546,-3.6892,-3.6507,-3.6334,-3.6315,-3.593,-3.5295,-3.441,-3.2968,-3.216,-3.1814,0.0,0.0,0.0,0.0,-3.1135,-3.1058,0.0,0.0,0.0,0.0,0.0,0.0,0.0,0.0,0.0,0.0,0.0,0.0,0.0,0.0,0.0,-4.1191,0.0,0.0,0.0,0.0,0.0,0.0,0.0,0.0,0.0,0.0,0.0,0.0,-4.0867,-4.0964,-4.1201,-4.1179,-4.1305,-4.1519,-4.1459,-4.0779,-3.9658,-3.9615,-3.9111,0.0,0.0,0.0,0.0,0.0,0.0,0.0,0.0,0.0,0.0,0.0,0.0,0.0,0.0,0.0,0.0,0.0,0.0,0.0,0.0,0.0,0.0,0.0,0.0,0.0,0.0,0.0,0.0,0.0,0.0,0.0,0.0,0.0,0.0,0.0,0.0,0.0,0.0,-3.3855,-3.3814,-3.4449,-3.3968,-3.366,0.0,0.0,0.0,0.0,0.0,0.0,-3.5456,-3.5494,-3.5892,-3.6757,-3.7353,-3.768,-3.768,-3.8315,-3.8757,-3.8969,-3.8969,-3.9084,-3.9296,-3.9065,-3.8969,-3.895,-3.8527,-3.7969,-3.718,-3.4834,-3.3622,-3.3237,-3.3237,-3.3103,-3.2833,-3.2237,-3.2006,-3.191,0.0,0.0,0.0,0.0,0.0,0.0,0.0,0.0,0.0,0.0,0.0,0.0,0.0,0.0,-4.1191,-4.1191,-4.1191,-4.1191,0.0,0.0,0.0,0.0,0.0,0.0,0.0,0.0,0.0,-4.1171,-4.1052,-4.1444,-4.2324,-4.2244,-4.2672,-4.3455,-4.3452,-4.2392,-4.0622,-4.0494,-3.9977,-3.9227,0.0,0.0,0.0,0.0,0.0,0.0,0.0,0.0,0.0,0.0,0.0,0.0,0.0,0.0,0.0,0.0,0.0,0.0,0.0,0.0,0.0,0.0,0.0,0.0,0.0,0.0,0.0,0.0,0.0,0.0,0.0,0.0,0.0,0.0,0.0,0.0,0.0,0.0,0.0,-3.5423,-3.5404,0.0,0.0,0.0,0.0,-3.768,-3.7738,-3.8123,-3.8996,-3.9034,-3.9419,-4.0227,-4.0285,-4.0304,-4.0304,-4.0342,-4.0796,-4.1615,-4.1615,-4.2047,-4.2816,-4.1989,-4.1615,-4.1519,-3.9931,-3.9207,-3.9034,-3.7238,-3.5565,-3.4129,-3.4129,-3.3622,-3.2891,-3.2852,-3.2833,-3.2833,0.0,0.0,0.0,0.0,0.0,0.0,0.0,0.0,0.0,0.0,0.0,0.0,0.0,-4.1191,-4.1191,-4.1191,-4.1191,-4.1191,-4.1191,0.0,0.0,0.0,0.0,0.0,0.0,0.0,-4.1191,-4.1191,-4.1678,-4.2068,-4.2402,-4.2947,-4.3374,-4.3667,-4.3627,-4.3175,-4.2384,-4.1743,-4.093,-4.0035,-3.9515,-3.8931,0.0,0.0,0.0,0.0,0.0,0.0,0.0,0.0,0.0,0.0,0.0,0.0,0.0,0.0,0.0,0.0,0.0,0.0,0.0,0.0,0.0,0.0,0.0,0.0,0.0,0.0,0.0,0.0,0.0,0.0,0.0,0.0,0.0,0.0,0.0,0.0,0.0,-3.6269,-3.6769,0.0,-3.8296,-3.8373,-3.8719,-3.9554,-3.9611,-3.9988,-4.0854,-4.0912,-4.1296,-4.2143,-4.2162,-4.2162,-4.2162,-4.2162,-4.2335,-4.2643,-4.2643,-4.2797,-4.3085,-4.2777,-4.2643,-4.2604,-4.2008,-4.1739,-4.17,-4.1066,-3.9161,-3.6642,-3.6642,-3.6449,-3.6103,-3.5545,-3.5353,-3.5199,0.0,0.0,0.0,0.0,0.0,0.0,0.0,0.0,0.0,0.0,0.0,-4.1191,-4.1191,-4.1191,-4.1191,-4.1191,-4.1191,-4.1191,-4.1191,0.0,0.0,0.0,0.0,0.0,0.0,-4.1465,-4.1601,-4.1601,-4.2422,-4.2988,-4.3281,-4.3867,-4.4297,-4.457,-4.4523,-4.4294,-4.3867,-4.3199,-4.2144,-4.0873,-4.0035,-3.9534,-3.9169,0.0,0.0,0.0,0.0,0.0,0.0,0.0,0.0,0.0,0.0,0.0,0.0,0.0,0.0,0.0,0.0,0.0,0.0,0.0,0.0,0.0,0.0,0.0,0.0,0.0,0.0,0.0,0.0,0.0,0.0,0.0,0.0,0.0,0.0,0.0,-3.6923,-3.7507,-3.8084,-3.8892,-4.0027,-4.0142,-4.0489,-4.1304,-4.1381,-4.1739,-4.2604,-4.2643,-4.3047,-4.3912,-4.3932,-4.3932,-4.3932,-4.3932,-4.3932,-4.3932,-4.3932,-4.3932,-4.3932,-4.3932,-4.3932,-4.3932,-4.3624,-4.3508,-4.347,-4.3201,-4.1758,-3.9681,-3.9392,-3.8931,-3.8373,-3.7796,-3.7392,-3.6988,0.0,0.0,0.0,0.0,0.0,0.0,0.0,0.0,0.0,0.0,-4.1191,-4.1191,-4.1191,-4.1191,-4.1191,-4.1191,-4.1191,-4.1191,-4.1191,-4.1191,0.0,0.0,0.0,0.0,-4.123,-4.1992,-4.2402,-4.2441,-4.3301,-4.418,-4.5,-4.5039,-4.5488,-4.6308,-4.6308,-4.5795,-4.4918,-4.4766,-4.3616,-4.1788,-4.0893,-4.0054,-3.9342,0.0,0.0,0.0,0.0,0.0,0.0,0.0,0.0,0.0,0.0,0.0,0.0,0.0,0.0,0.0,0.0,0.0,0.0,0.0,0.0,0.0,0.0,0.0,0.0,0.0,0.0,0.0,0.0,0.0,0.0,0.0,0.0,0.0,-3.6769,-3.6788,-3.7469,-3.9169,-3.94,-4.0065,-4.1712,-4.1885,-4.2239,-4.3104,-4.3181,-4.3528,-4.4297,-4.4335,-4.472,-4.5575,-4.5594,-4.5594,-4.5594,-4.5594,-4.5594,-4.5594,-4.5594,-4.5594,-4.5594,-4.5594,-4.5594,-4.5556,-4.4701,-4.4335,-4.4278,-4.3508,-4.3181,-4.3085,-4.22,-4.0854,-3.9419,-3.9419,-3.8854,-3.8084,0.0,0.0,0.0,0.0,0.0,0.0,0.0,0.0,0.0,0.0,-4.1191,-4.1191,-4.1191,-4.1191,-4.1191,-4.1191,-4.1191,-4.1191,-4.1191,0.0,0.0,0.0,0.0,0.0,-4.2051,-4.2285,-4.2715,-4.334,-4.4219,-4.4766,-4.5019,-4.5644,-4.6074,-4.6308,-4.6308,-4.6057,-4.5574,-4.4966,-4.4275,-4.3489,-4.2027,-4.0931,-4.0112,0.0,0.0,0.0,0.0,0.0,0.0,0.0,0.0,0.0,0.0,0.0,0.0,0.0,0.0,0.0,0.0,0.0,0.0,0.0,0.0,0.0,0.0,0.0,0.0,0.0,0.0,0.0,0.0,0.0,0.0,0.0,0.0,-3.8584,-3.8584,-3.9084,-3.9873,-4.0989,-4.1662,-4.247,-4.3508,-4.3605,-4.397,-4.4844,-4.4921,-4.5017,-4.5229,-4.5248,-4.5344,-4.5594,-4.5594,-4.5594,-4.5594,-4.5594,-4.5594,-4.5594,-4.5594,-4.5594,-4.5594,-4.5594,-4.5594,-4.5594,-4.5344,-4.5248,-4.5229,-4.4998,-4.4921,-4.4767,-4.3316,-4.247,-4.2066,-4.2066,-4.1104,-3.9804,0.0,0.0,0.0,0.0,0.0,0.0,0.0,0.0,0.0,0.0,-4.1191,-4.1191,-4.1191,-4.1191,-4.1191,-4.1191,-4.1191,-4.1191,-4.1191,0.0,0.0,0.0,0.0,-4.1914,-4.2383,-4.3125,-4.373,-4.4238,-4.5117,-4.5547,-4.5566,-4.6055,-4.6308,-4.6308,-4.6308,-4.6177,-4.5942,-4.5418,-4.4891,-4.4292,-4.3261,-4.2124,-4.095,-4.0131,-3.9284,-3.843,-3.7565,-3.6712,-3.5942,-3.5615,0.0,0.0,0.0,0.0,0.0,0.0,0.0,0.0,0.0,0.0,0.0,0.0,0.0,0.0,0.0,0.0,0.0,0.0,0.0,0.0,0.0,0.0,0.0,0.0,-3.945,-4.0585,-4.1296,-4.1181,-4.1489,-4.2701,-4.3297,-4.3932,-4.4759,-4.4836,-4.5056,-4.5556,-4.5594,-4.5594,-4.5594,-4.5594,-4.5594,-4.5594,-4.5594,-4.5594,-4.5594,-4.5594,-4.5594,-4.5594,-4.5594,-4.5594,-4.5594,-4.5594,-4.5594,0.0,-4.5594,-4.5594,-4.5594,-4.5594,-4.5594,0.0,0.0,0.0,0.0,0.0,-4.245,-4.1593,0.0,0.0,0.0,0.0,0.0,0.0,0.0,0.0,0.0,0.0,0.0,-4.1191,-4.1191,-4.1191,-4.1191,-4.1191,-4.1191,-4.1191,0.0,0.0,0.0,-4.1191,-4.1973,-4.2441,-4.2539,-4.416,-4.5058,-4.5156,-4.5918,-4.6308,-4.6308,-4.6308,-4.6308,-4.6308,-4.6289,-4.6201,-4.6075,-4.5948,-4.5398,-4.4614,-4.4399,-4.3297,-4.1712,-4.0931,-4.0092,-3.9207,-3.8411,-3.7526,-3.6596,-3.5885,0.0,0.0,0.0,0.0,0.0,0.0,0.0,0.0,0.0,0.0,0.0,0.0,0.0,0.0,0.0,0.0,0.0,0.0,0.0,0.0,0.0,0.0,0.0,0.0,-4.145,-4.2604,-4.4085,-4.3104,-4.2777,-4.4259,-4.4451,-4.4739,-4.5518,-4.5594,-4.5633,-4.5748,-4.5748,-4.5787,-4.5883,0.0,0.0,0.0,0.0,-4.5883,-4.5883,-4.5883,-4.5845,-4.5748,-4.5748,-4.571,-4.5594,-4.5594,-4.5594,-4.5594,-4.5594,-4.5594,-4.5594,-4.5594,-4.5594,-4.5594,-4.5594,-4.5133,-4.4355,-4.3643,-4.3316,-4.3239,0.0,0.0,0.0,0.0,0.0,0.0,0.0,0.0,0.0,-4.1191,-4.1191,-4.1191,-4.1191,-4.1191,-4.1191,-4.1191,-4.1191,-4.1191,0.0,0.0,-4.1191,-4.1191,-4.1973,-4.2734,-4.3437,-4.4473,-4.5332,-4.6055,-4.6211,-4.6308,-4.6308,-4.6308,-4.6308,-4.6308,-4.6198,-4.6053,-4.5924,-4.5859,-4.5652,-4.5327,-4.4583,-4.3297,-4.1769,-4.1604,-4.0604,-3.9284,-3.9111,-3.8046,-3.6673,-3.6519,-3.6038,-3.55,-3.55,0.0,0.0,0.0,0.0,0.0,0.0,0.0,0.0,0.0,0.0,0.0,0.0,0.0,0.0,0.0,0.0,0.0,0.0,0.0,0.0,-4.1527,-4.2816,-4.3932,-4.4239,-4.4624,-4.4998,-4.5306,-4.5344,-4.5421,-4.5575,-4.5594,-4.5893,-4.6605,-4.6644,-4.6932,-4.7586,-4.7625,-4.7625,-4.7625,-4.7625,-4.7625,-4.7625,-4.7625,-4.7298,-4.6644,0.0,0.0,-4.5594,-4.5594,-4.5594,-4.5594,-4.5594,-4.5594,-4.5594,-4.5594,-4.5594,-4.5594,-4.5594,-4.5498,-4.5325,-4.5171,-4.4662,-4.4066,0.0,0.0,0.0,0.0,0.0,0.0,0.0,0.0,0.0,0.0,-4.0937,-4.1191,-4.1191,-4.1191,-4.1191,-4.1191,-4.1191,0.0,0.0,-4.1191,-4.1191,-4.1191,-4.2383,-4.3242,-4.3691,-4.498,-4.5859,-4.6308,-4.6308,-4.6308,-4.6308,-4.6308,-4.6268,-4.62,-4.612,-4.6008,-4.5859,-4.5815,-4.5711,-4.5556,-4.5133,-4.3951,-4.2412,-4.1962,-4.1008,-3.9842,-3.9438,-3.8738,-3.793,-3.7507,-3.6788,-3.6096,-3.6096,-3.5827,-3.55,0.0,0.0,0.0,0.0,0.0,0.0,0.0,0.0,0.0,0.0,0.0,0.0,0.0,0.0,-4.0546,0.0,0.0,-4.3047,-4.3047,-4.4124,-4.496,-4.496,-4.5325,-4.5594,-4.5594,-4.5594,-4.5594,-4.5594,-4.599,-4.6432,-4.6865,-4.7269,-4.7682,-4.8086,-4.8105,-4.8105,-4.8105,-4.8105,-4.8105,-4.8105,-4.8105,-4.7894,-4.7509,-4.7509,-4.7067,-4.624,-4.624,-4.6009,-4.5594,-4.5594,-4.5594,-4.5594,-4.5594,-4.5594,-4.5594,-4.5594,-4.5594,-4.5594,-4.5594,-4.5325,-4.496,0.0,0.0,0.0,0.0,0.0,0.0,0.0,0.0,0.0,0.0,-4.041,-4.0957,-4.0957,-4.1094,-4.1191,0.0,0.0,0.0,0.0,-4.1191,-4.1191,-4.1191,-4.2637,-4.3535,-4.3691,-4.5234,-4.6133,-4.6308,-4.6308,-4.6308,-4.6308,-4.6308,-4.6225,-4.6108,-4.6077,-4.5963,-4.5796,-4.5763,-4.5692,-4.5594,-4.5594,-4.4613,-4.3028,-4.2316,-4.1412,-4.0419,-3.9765,-3.9438,-3.9188,-3.8488,-3.768,-3.6942,-3.6942,-3.6385,-3.5769,-3.5942,-3.5865,0.0,0.0,0.0,0.0,0.0,0.0,0.0,0.0,0.0,-3.9835,-3.9988,-4.1239,-4.2297,-4.2297,-4.3528,-4.4547,-4.4547,-4.5152,-4.5671,-4.5825,-4.5845,-4.5922,-4.6075,-4.5806,-4.5594,-4.5594,-4.6394,-4.6962,-4.7115,-4.7894,-4.8432,-4.8606,-4.8606,-4.8606,-4.8606,-4.8606,-4.8606,-4.8606,-4.8606,-4.8529,-4.8355,-4.8355,-4.7932,-4.7135,-4.6962,-4.6528,-4.5845,-4.5671,-4.5594,-4.5594,-4.5594,-4.5594,-4.5594,-4.5594,-4.5594,-4.5594,-4.5594,-4.5594,-4.5594,0.0,0.0,0.0,0.0,0.0,0.0,0.0,0.0,0.0,0.0,0.0,0.0,0.0,0.0,0.0,0.0,0.0,0.0,-4.1191,-4.1191,-4.1191,-4.1191,-4.2051,-4.291,-4.3672,-4.4648,-4.5527,-4.6308,-4.6308,-4.6308,-4.6308,-4.6308,-4.6225,-4.6087,-4.5978,-4.5881,-4.579,-4.5673,-4.5612,-4.5594,-4.5594,-4.4613,-4.3085,-4.2989,-4.1931,-4.0496,-4.04,-3.9919,-3.9284,-3.9188,-3.8584,-3.7853,-3.7853,-3.7257,-3.6712,-3.7488,0.0,-3.6731,-3.7507,-3.7719,-3.793,-3.8796,-3.9015,-3.9411,0.0,0.0,-4.1739,-4.2527,-4.3393,-4.4028,-4.4028,-4.4797,-4.546,-4.546,-4.5537,-4.5883,-4.6644,-4.6759,-4.7028,-4.774,-4.6509,-4.5594,-4.5594,-4.6394,-4.7201,-4.7913,-4.8779,-4.9586,-5.0366,-5.0423,-5.0423,-5.0423,-5.0423,-5.0423,-5.0423,-5.0423,-5.001,-4.924,-4.924,-4.8798,-4.7952,-4.724,-4.6846,-4.6721,-4.5932,-4.5594,-4.5594,-4.5594,-4.5594,-4.5594,-4.5594,-4.5594,-4.5594,-4.5594,-4.5594,-4.5594,0.0,0.0,0.0,0.0,0.0,0.0,0.0,0.0,0.0,0.0,0.0,0.0,0.0,0.0,0.0,0.0,0.0,0.0,-4.1191,-4.1191,-4.1191,-4.1191,-4.1973,-4.2578,-4.2949,-4.4297,-4.5176,-4.5547,-4.6055,-4.6308,-4.6308,-4.6223,-4.6115,-4.5981,-4.5886,-4.577,-4.5688,-4.5618,-4.5594,-4.5556,-4.5056,-4.4143,-4.3047,-4.2547,-4.1585,-4.0496,-4.0496,-4.0285,0.0,0.0,-3.9457,-3.8757,-3.8757,-3.8161,-3.7526,-3.7892,-3.7738,0.0,-3.8527,-3.8757,0.0,0.0,-4.0758,-4.1066,-4.2277,-4.2912,-4.3355,-4.372,-4.447,-4.5056,-4.5056,-4.5344,-4.5594,0.0,-4.5594,-4.5893,-4.6778,-4.6904,-4.7192,-4.8009,-4.749,-4.7048,-4.7048,-4.7836,-4.849,-4.8836,-4.9663,-5.0327,-5.0673,-5.0712,-5.0712,-5.0712,-5.0712,-5.0712,-5.0712,-5.0712,-5.0519,-5.0173,-5.0173,-4.9702,-4.8856,-4.8509,-4.7817,-4.6846,-4.597,-4.5594,-4.5594,-4.5594,-4.5594,-4.5594,-4.5594,-4.5594,-4.5594,-4.5594,-4.5594,-4.5594,0.0,0.0,0.0,0.0,0.0,0.0,0.0,0.0,0.0,0.0,0.0,0.0,0.0,0.0,0.0,0.0,0.0,0.0,0.0,-4.1171,-4.1191,-4.1191,-4.1758,-4.2168,-4.2402,-4.3633,-4.4394,-4.4648,-4.5273,-4.5566,-4.5564,-4.5677,-4.5651,-4.5517,-4.5465,-4.537,-4.5229,-4.4998,-4.4921,-4.4863,-4.422,-4.3489,-4.2662,-4.2038,-4.1258,-4.0496,-4.0496,-4.0496,0.0,0.0,-4.0112,-3.9631,-3.9631,-3.9053,-3.8392,-3.8623,-3.8854,-3.9238,-4.0104,0.0,0.0,-4.2124,-4.2489,-4.272,-4.3585,-4.4239,-4.4662,-4.4662,-4.5171,-4.5594,-4.5594,-4.5594,0.0,-4.5594,-4.5806,-4.6259,-4.7105,-4.7451,-4.7894,-4.8721,-4.8817,-4.8817,-4.8817,-4.9163,-4.9394,-4.9394,-5.0212,-5.0712,-5.0712,-5.0712,-5.0712,-5.0712,-5.0712,-5.0712,-5.0712,-5.0712,-5.0712,-5.0712,-5.0712,-5.0366,-4.974,-4.951,-4.849,-4.6865,-4.622,-4.5825,-4.5594,-4.5594,-4.5594,-4.5594,-4.5594,-4.5594,-4.5594,-4.5594,-4.5594,-4.5594,0.0,0.0,0.0,0.0,0.0,0.0,0.0,0.0,0.0,0.0,0.0,0.0,0.0,0.0,0.0,0.0,0.0,0.0,0.0,-4.1128,-4.1191,-4.1191,-4.1211,-4.1601,-4.2383,-4.2441,-4.2891,-4.373,-4.3769,-4.3745,-4.3695,-4.4469,-4.474,-4.4531,-4.455,-4.4462,-4.4297,-4.3508,-4.3181,-4.3162,-4.3143,-4.2624,-4.1846,-4.1808,-4.1258,-4.0496,-4.0496,0.0,0.0,0.0,-4.0477,-4.0458,-4.0458,-3.9919,0.0,-4.0208,-4.1027,0.0,0.0,0.0,-4.3181,-4.4028,-4.422,-4.4451,-4.5325,-4.5537,-4.5556,-4.5556,-4.5575,-4.5594,-4.5594,-4.5594,-4.5594,-4.5594,-4.6317,-4.7144,-4.7952,-4.8798,-4.9644,-5.0519,-5.0616,-5.0616,0.0,-4.9875,-4.9394,-4.9394,-5.0212,-5.0712,-5.0712,-5.0712,-5.0712,-5.0712,-5.0712,-5.0712,-5.0712,-5.0712,-5.0712,-5.0712,-5.0712,-5.0693,-5.0635,-4.9779,-4.849,-4.6904,-4.6865,-4.6374,-4.5594,-4.5594,-4.5594,-4.5594,-4.5594,-4.5594,-4.5594,-4.5594,-4.5594,-4.5594,0.0,0.0,0.0,0.0,0.0,0.0,0.0,0.0,0.0,0.0,0.0,0.0,0.0,0.0,0.0,0.0,0.0,0.0,0.0,-4.0703,-4.1076,-4.1076,-4.115,-4.1328,-4.1601,-4.2129,-4.2539,-4.2832,-4.3418,-4.3667,-4.3595,-4.3779,-4.3795,-4.3634,-4.3583,-4.3543,-4.3489,-4.3201,-4.3104,-4.3047,-4.247,-4.2058,-4.1731,-4.1162,-4.0766,-4.0496,0.0,0.0,0.0,0.0,-4.0496,-4.0496,-4.0496,0.0,0.0,-4.1104,-4.1989,-4.2835,0.0,0.0,-4.4105,-4.496,-4.5171,-4.5248,-4.5537,-4.5594,-4.5594,-4.5594,-4.5594,-4.5594,-4.5594,-4.5594,-4.5594,-4.5594,-4.5845,-4.6509,-4.7913,-4.8355,-4.9086,-5.0539,-5.0712,0.0,0.0,0.0,0.0,-5.0269,-5.0539,-5.0712,-5.0712,-5.0712,-5.0712,-5.0712,-5.0712,-5.0712,-5.0712,-5.0712,-5.0712,-5.0712,-5.0712,-5.0712,-5.0673,-4.9798,-4.9086,-4.8509,-4.7375,-4.674,-4.6413,-4.5845,-4.5594,-4.5594,-4.5594,-4.5594,-4.5594,-4.5594,-4.5594,-4.5594,0.0,0.0,0.0,0.0,0.0,0.0,0.0,0.0,0.0,0.0,0.0,0.0,0.0,0.0,0.0,0.0,0.0,0.0,0.0,0.0,-4.0496,-4.0496,-4.0899,-4.1128,-4.1128,-4.1679,-4.1973,-4.1973,-4.2539,-4.2746,-4.2604,-4.2836,-4.2849,-4.2704,-4.2649,-4.2643,-4.2624,-4.2297,-4.2162,-4.2124,-4.1566,-4.1335,-4.1277,-4.0708,-4.0496,0.0,0.0,0.0,0.0,-4.0496,0.0,0.0,0.0,-4.0708,-4.1143,-4.2008,-4.2854,-4.3701,0.0,-4.4759,-4.4893,-4.546,-4.5594,-4.5594,-4.5594,-4.5594,-4.5594,-4.5594,-4.5594,-4.5594,-4.5594,-4.5594,-4.5594,-4.5594,-4.5864,-4.6547,-4.7913,-4.8375,-4.9106,-5.0539,-5.0712,0.0,0.0,0.0,0.0,-5.0712,-5.0712,-5.0712,-5.0712,-5.0712,-5.0712,-5.0712,-5.0712,-5.0712,-5.0712,-5.0712,-5.0712,-5.0712,-5.0712,-5.0712,-5.0673,-5.0106,-4.9683,-4.9336,-4.8259,-4.7451,-4.6846,-4.6297,-4.5874,-4.5594,-4.5594,-4.5594,-4.5594,-4.5594,-4.5594,-4.5594,0.0,0.0,0.0,0.0,0.0,0.0,0.0,0.0,0.0,0.0,0.0,0.0,0.0,0.0,0.0,0.0,0.0,0.0,0.0,0.0,0.0,-3.9536,-4.0432,-4.0935,-4.0937,-4.1108,-4.1191,-4.1191,-4.1191,-4.1055,-4.0809,-4.1645,-4.1923,-4.1731,-4.1731,-4.1731,-4.1681,-4.0854,-4.0496,-4.0496,-4.0458,-4.0439,-4.0439,-4.04,0.0,0.0,0.0,0.0,0.0,0.0,0.0,0.0,0.0,0.0,-4.2038,-4.2912,-4.372,-4.4566,-4.5441,-4.5633,-4.5614,-4.5671,-4.5633,-4.5594,-4.5594,-4.5594,-4.5594,-4.5594,-4.5594,-4.5594,0.0,0.0,-4.5594,-4.5594,-4.6297,-4.7144,-4.799,-4.8817,-4.9663,0.0,0.0,0.0,0.0,0.0,0.0,-5.0712,0.0,-5.0712,-5.0712,-5.0712,-5.0712,-5.0712,-5.0712,-5.0712,-5.0712,-5.0712,-5.0712,-5.0712,-5.0712,-5.0712,-5.0712,-5.0712,-5.025,-4.9452,-4.9413,-4.8509,-4.7019,-4.6942,-4.6413,-4.5671,-4.5614,-4.5594,-4.5594,-4.5594,-4.5594,-4.5594,0.0,0.0,0.0,0.0,0.0,0.0,0.0,0.0,0.0,0.0,0.0,0.0,0.0,0.0,0.0,0.0,0.0,0.0,0.0,0.0,0.0,0.0,0.0,0.0,0.0,0.0,0.0,0.0,0.0,-4.1039,-4.074,-4.0993,-4.1017,-4.0843,-4.0843,-4.0843,-4.0823,-4.0593,-4.0496,-4.0458,0.0,-3.9611,-3.9534,0.0,0.0,0.0,0.0,0.0,0.0,0.0,0.0,0.0,0.0,0.0,-4.2931,-4.3758,-4.4605,-4.546,-4.6336,-4.6086,-4.5768,-4.6413,-4.6086,-4.5594,-4.5594,-4.5594,-4.5594,-4.5594,-4.5594,-4.5594,0.0,0.0,0.0,-4.5594,-4.5787,0.0,-4.7894,-4.8298,0.0,0.0,0.0,-5.0712,-5.0712,-5.0712,0.0,0.0,-5.0712,-5.0712,-5.0712,-5.0712,-5.0712,-5.0712,-5.0712,-5.0712,-5.0712,-5.0712,-5.0712,-5.0712,-5.0712,-5.0712,-5.0712,-5.0712,-5.0577,-5.0327,-4.9683,-4.9163,-4.8663,-4.7413,-4.6778,-4.6509,-4.5855,-4.5594,-4.5594,-4.5594,-4.5594,-4.5594,0.0,0.0,0.0,0.0,0.0,0.0,0.0,0.0,0.0,0.0,0.0,0.0,0.0,0.0,0.0,0.0,0.0,0.0,0.0,0.0,0.0,0.0,0.0,0.0,0.0,0.0,0.0,0.0,0.0,0.0,0.0,-4.0752,-4.0665,-4.0477,-4.0131,-3.9977,-3.9958,-3.9573,0.0,0.0,0.0,0.0,0.0,0.0,0.0,0.0,0.0,0.0,0.0,0.0,0.0,-4.0131,-4.095,-4.2085,-4.3258,-4.4066,0.0,-4.5787,-4.6663,-4.6259,-4.5806,-4.6682,-4.624,-4.5594,-4.5594,-4.5306,-4.5037,-4.5037,-4.4748,0.0,0.0,0.0,0.0,0.0,0.0,0.0,-4.7394,-4.7875,-4.8606,0.0,-5.0481,0.0,-5.0712,-5.0712,-5.0712,0.0,-5.0712,-5.0712,-5.0712,-5.0712,-5.0712,-5.0712,-5.0712,-5.0712,-5.0712,-5.0712,-5.0712,-5.0712,-5.0712,-5.0712,-5.0712,-5.0712,-5.0712,-5.0673,0.0,-4.974,-4.9336,-4.8394,-4.7567,-4.6846,-4.6355,-4.5932,-4.5594,-4.5594,-4.5594,-4.5594,0.0,0.0,0.0,0.0,0.0,0.0,0.0,0.0,0.0,0.0,0.0,0.0,0.0,0.0,0.0,0.0,0.0,0.0,0.0,0.0,0.0,0.0,0.0,0.0,0.0,0.0,0.0,0.0,0.0,0.0,0.0,0.0,0.0,0.0,0.0,0.0,0.0,0.0,0.0,0.0,0.0,0.0,0.0,0.0,0.0,0.0,0.0,0.0,0.0,0.0,-3.8392,-3.9457,-4.0381,-4.1797,-4.3278,-4.4201,-4.5017,-4.5787,-4.6663,-4.6259,-4.5806,-4.6682,-4.624,-4.5594,-4.5594,-4.494,-4.4297,-4.4297,0.0,0.0,-4.3104,0.0,-4.4182,-4.4278,0.0,-4.5759,-4.6759,-4.7586,-4.8413,-4.9298,-5.0173,-5.0712,-5.0712,-5.0712,-5.0712,-5.0712,-5.0712,-5.0712,-5.0712,-5.0712,-5.0712,-5.0712,-5.0712,-5.0712,-5.0712,-5.0712,-5.0712,-5.0712,-5.0712,-5.0712,-5.0712,-5.0712,-5.0712,-5.0712,0.0,0.0,-4.9548,-4.9452,-4.8548,-4.7221,-4.6981,-4.6432,-4.5768,-4.5633,-4.5594,-4.5594,0.0,0.0,0.0,0.0,0.0,0.0,0.0,0.0,0.0,0.0,0.0,0.0,0.0,0.0,0.0,0.0,0.0,0.0,0.0,0.0,0.0,0.0,0.0,0.0,0.0,0.0,0.0,0.0,0.0,0.0,0.0,0.0,0.0,0.0,0.0,0.0,0.0,0.0,0.0,0.0,0.0,0.0,0.0,0.0,0.0,0.0,0.0,0.0,0.0,0.0,-3.743,-3.9573,-4.1085,-4.2277,-4.3393,-4.494,-4.5479,-4.5787,-4.6663,-4.6259,-4.5806,-4.6682,-4.624,-4.5594,-4.5594,-4.494,0.0,0.0,0.0,-4.3104,-4.3104,-4.3201,0.0,-4.4182,0.0,0.0,0.0,0.0,-4.8413,0.0,0.0,0.0,0.0,0.0,0.0,0.0,0.0,-5.0712,-5.0712,-5.0712,-5.0712,-5.0712,-5.0712,-5.0712,-5.0712,-5.0712,-5.0712,-5.0712,-5.0712,-5.0712,-5.0712,-5.0712,-5.0712,-5.0712,-5.0712,0.0,-5.0423,-4.9702,-4.9221,-4.8836,-4.7451,-4.6817,-4.6586,-4.5883,-4.5594,-4.5594,0.0,0.0,0.0,0.0,0.0,0.0,0.0,0.0,0.0,0.0,0.0,0.0,0.0,0.0,0.0,0.0,0.0,0.0,0.0,0.0,0.0,0.0,0.0,0.0,0.0,0.0,0.0,0.0,0.0,0.0,0.0,0.0,0.0,0.0,0.0,0.0,0.0,0.0,0.0,0.0,0.0,0.0,0.0,0.0,0.0,0.0,0.0,0.0,0.0,0.0,-3.6596,-3.8315,-4.045,-4.2027,-4.3431,-4.5114,-4.5594,-4.5787,-4.6663,-4.6259,-4.5806,-4.6682,-4.624,-4.5479,-4.5037,0.0,0.0,0.0,0.0,-4.1739,-4.1739,0.0,0.0,0.0,0.0,0.0,0.0,0.0,0.0,0.0,0.0,0.0,0.0,0.0,0.0,0.0,0.0,-5.0712,-5.0712,-5.0712,-5.0712,-5.0712,-5.0712,-5.0712,-5.0712,-5.0712,-5.0712,-5.0712,-5.0712,-5.0712,-5.0712,-5.0712,-5.0712,-5.0712,-5.0712,0.0,-5.0673,-5.025,-4.9798,-4.9317,-4.8509,-4.7682,-4.6846,-4.6432,-4.599,-4.5577,0.0,0.0,0.0,0.0,0.0,0.0,0.0,0.0,0.0,0.0,0.0,0.0,0.0,0.0,0.0,0.0,0.0,0.0,0.0,0.0,0.0,0.0,0.0,0.0,0.0,0.0,0.0,0.0,0.0,0.0,0.0,0.0,0.0,0.0,0.0,0.0,0.0,0.0,0.0,0.0,0.0,0.0,0.0,0.0,0.0,0.0,0.0,0.0,0.0,0.0,-3.5943,-3.7018,-3.9415,-4.138,-4.3143,-4.4825,-4.546,-4.5748,-4.6432,-4.6124,-4.5768,-4.6451,-4.597,-4.5152,-4.4451,-4.3528,0.0,0.0,-4.1104,-4.0496,-4.0496,0.0,0.0,0.0,0.0,0.0,0.0,0.0,0.0,0.0,0.0,0.0,0.0,0.0,0.0,0.0,0.0,0.0,-5.0712,-5.0712,-5.0712,-5.0712,-5.0712,-5.0712,-5.0712,-5.0712,-5.0712,-5.0712,-5.0712,-5.0712,-5.0712,-5.0712,-5.0712,-5.0712,-5.0712,0.0,0.0,-5.0712,-5.025,-4.9517,-4.9345,-4.8316,-4.6895,-4.6722,-4.6119,-4.5352,0.0,0.0,0.0,0.0,0.0,0.0,0.0,0.0,0.0,0.0,0.0,0.0,0.0,0.0,0.0,0.0,0.0,0.0,0.0,0.0,0.0,0.0,0.0,0.0,0.0,0.0,0.0,0.0,0.0,0.0,0.0,0.0,0.0,0.0,0.0,0.0,0.0,0.0,0.0,0.0,0.0,0.0,0.0,0.0,0.0,0.0,0.0,0.0,0.0,0.0,0.0,-3.6655,-3.8476,-4.0368,-4.2258,-4.3932,0.0,0.0,-4.571,-4.5671,-4.5614,-4.571,-4.5047,-4.4393,-4.4316,0.0,0.0,0.0,-4.1104,-4.0496,-4.0496,-4.0573,-4.0873,0.0,0.0,0.0,0.0,0.0,0.0,0.0,0.0,0.0,0.0,0.0,0.0,0.0,0.0,0.0,-5.0712,-5.0712,-5.0712,-5.0712,-5.0712,-5.0712,-5.0712,-5.0712,-5.0712,-5.0712,-5.0712,-5.0712,-5.0712,-5.0712,-5.0712,-5.0712,-5.0712,0.0,0.0,-5.0712,-5.0445,-4.9968,-4.9155,-4.8099,-4.69,-4.6169,-4.5375,-4.4682,0.0,0.0,0.0,0.0,0.0,0.0,0.0,0.0,0.0,0.0,0.0,0.0,0.0,0.0,0.0,0.0,0.0,0.0,0.0,0.0,0.0,0.0,0.0,0.0,0.0,0.0,0.0,0.0,0.0,0.0,0.0,0.0,0.0,0.0,0.0,0.0,0.0,0.0,0.0,0.0,0.0,0.0,0.0,0.0,0.0,0.0,0.0,0.0,0.0,0.0,0.0,0.0,-3.6908,-3.8226,0.0,0.0,-4.4162,-4.4816,-4.4816,-4.521,-4.5479,-4.496,-4.4566,-4.4047,-4.3028,0.0,0.0,-4.1123,-4.0746,-4.0496,-4.0496,-4.0496,-4.0612,0.0,0.0,0.0,0.0,0.0,0.0,0.0,0.0,0.0,0.0,0.0,0.0,0.0,0.0,0.0,-5.0712,-5.0712,-5.0712,-5.0712,-5.0712,-5.0712,-5.0712,-5.0712,-5.0712,-5.0712,-5.0712,-5.0712,-5.0712,-5.0712,-5.0712,-5.0712,-5.0712,0.0,0.0,-5.0336,-5.0092,-4.9709,-4.9354,-4.8596,-4.7622,-4.6811,-4.6,-4.5219,0.0,0.0,0.0,0.0,0.0,0.0,0.0,0.0,0.0,0.0,0.0,0.0,0.0,0.0,0.0,0.0,0.0,0.0,0.0,0.0,0.0,0.0,0.0,0.0,0.0,0.0,0.0,0.0,0.0,0.0,0.0,0.0,0.0,0.0,0.0,0.0,0.0,0.0,0.0,0.0,0.0,0.0,0.0,0.0,0.0,0.0,0.0,0.0,0.0,0.0,0.0,0.0,0.0,0.0,0.0,0.0,-4.2912,-4.3624,-4.3874,-4.4393,-4.4701,-4.4105,-4.3758,-4.3258,0.0,0.0,-4.1239,-4.0631,-4.0496,-4.0496,-4.0496,-4.0496,-4.0496,0.0,0.0,0.0,0.0,0.0,0.0,0.0,0.0,0.0,0.0,0.0,0.0,0.0,0.0,0.0,0.0,-5.0712,-5.0712,-5.0712,-5.0712,-5.0712,-5.0712,-5.0712,-5.0712,-5.0712,-5.0712,-5.0712,-5.0712,-5.0712,-5.0712,-5.0712,0.0,0.0,0.0,-5.0092,-4.98,-4.9326,-4.9326,-4.8742,-4.7776,-4.6967,-4.6181,-4.5316,0.0,0.0,0.0,0.0,0.0,0.0,0.0,0.0,0.0,0.0,0.0,0.0,0.0,0.0,0.0,0.0,0.0,0.0,0.0,0.0,0.0,0.0,0.0,0.0,0.0,0.0,0.0,0.0,0.0,0.0,0.0,0.0,0.0,0.0,0.0,0.0,0.0,0.0,0.0,0.0,0.0,0.0,0.0,0.0,0.0,0.0,0.0,0.0,0.0,0.0,0.0,0.0,0.0,0.0,0.0,0.0,-4.1143,-4.2,-4.2874,-4.3124,-4.3124,-4.3104,-4.247,-4.1808,0.0,0.0,-4.0516,-4.0496,-4.0496,-4.0496,-4.0496,-4.0496,-4.0496,-4.0496,0.0,0.0,0.0,0.0,0.0,0.0,0.0,0.0,0.0,0.0,0.0,0.0,0.0,0.0,0.0,-5.0712,-5.0712,-5.0712,-5.0712,-5.0712,-5.0712,-5.0712,-5.0712,-5.0712,-5.0712,-5.0712,-5.0712,-5.0712,-5.0712,0.0,0.0,0.0,0.0,-5.0092,-4.9631,-4.8913,-4.8913,-4.8175,-4.7021,-4.6214,-4.5406,-4.4599,0.0,0.0,0.0,0.0,0.0,0.0,0.0,0.0,0.0,0.0,0.0,0.0,0.0,0.0,0.0,0.0,0.0,0.0,0.0,0.0,0.0,0.0,0.0,0.0,0.0,0.0,0.0,-3.4603,-3.4603,0.0,0.0,0.0,0.0,0.0,0.0,0.0,0.0,0.0,0.0,0.0,0.0,0.0,0.0,0.0,0.0,0.0,0.0,0.0,0.0,0.0,0.0,0.0,0.0,0.0,0.0,0.0,0.0,0.0,-4.0431,-4.09,-4.1189,-4.0642,-4.07,-4.0758,-4.0219,-4.0304,-4.0496,-4.0496,-4.0496,-4.0496,-4.0496,-4.0496,-4.0496,-4.0496,-4.0727,0.0,0.0,0.0,0.0,0.0,0.0,0.0,0.0,0.0,0.0,0.0,0.0,0.0,0.0,-5.0712,-5.0712,-5.0712,-5.0712,-5.0712,-5.0712,-5.0712,-5.0712,-5.0712,-5.0712,-5.0712,-5.0712,-5.0712,0.0,0.0,0.0,0.0,0.0,-4.9295,-4.898,-4.8495,-4.8495,-4.8255,-4.7774,-4.6397,-4.5736,-4.5333,0.0,0.0,0.0,0.0,0.0,0.0,0.0,0.0,0.0,0.0,0.0,0.0,0.0,0.0,0.0,0.0,0.0,0.0,0.0,0.0,0.0,0.0,0.0,0.0,0.0,0.0,-3.2852,-3.3705,-3.4032,-3.4435,-3.4882,0.0,0.0,0.0,0.0,0.0,0.0,0.0,0.0,0.0,0.0,0.0,-3.4684,0.0,0.0,0.0,0.0,0.0,0.0,0.0,0.0,0.0,0.0,0.0,0.0,0.0,-3.6472,0.0,0.0,-3.9188,-3.9438,-3.8931,-3.9188,0.0,0.0,-3.9115,-3.9429,-3.9538,-3.9472,-3.9448,-3.9538,-3.9554,-3.9669,-3.9996,-4.0054,0.0,0.0,0.0,0.0,0.0,0.0,0.0,0.0,0.0,0.0,0.0,0.0,0.0,0.0,-5.0712,-5.0712,-5.0712,-5.0712,-5.0712,-5.0712,-5.0712,-5.0712,-5.0712,-5.0712,-5.0712,-5.0712,-5.0712,0.0,0.0,0.0,0.0,0.0,-4.8945,-4.8657,-4.8306,-4.8306,-4.8122,-4.7681,-4.6379,-4.5718,-4.5259,0.0,0.0,0.0,0.0,0.0,0.0,0.0,0.0,0.0,0.0,0.0,0.0,0.0,0.0,0.0,0.0,0.0,0.0,0.0,0.0,0.0,0.0,0.0,0.0,0.0,-3.159,-3.1988,-3.2795,-3.3576,-3.387,-3.3715,-3.4565,0.0,0.0,0.0,0.0,0.0,-3.43,-3.4183,-3.4183,-3.4183,-3.4357,0.0,0.0,0.0,0.0,0.0,0.0,0.0,0.0,0.0,0.0,0.0,0.0,0.0,0.0,0.0,0.0,0.0,0.0,0.0,0.0,0.0,0.0,0.0,-3.7712,0.0,-3.7894,-3.7759,-3.7672,-3.7936,-3.8038,-3.8354,-3.9169,-3.94,0.0,0.0,0.0,0.0,0.0,0.0,0.0,0.0,0.0,0.0,0.0,0.0,0.0,0.0,-5.0712,-5.0712,-5.0712,-5.0712,-5.0712,-5.0712,-5.0712,-5.0712,-5.0712,-5.0712,-5.0712,-5.0712,-5.0712,0.0,0.0,0.0,0.0,0.0,-4.9011,-4.8639,-4.8306,-4.8251,-4.7755,-4.7003,-4.614,-4.5351,-4.458,0.0,0.0,0.0,0.0,0.0,0.0,0.0,0.0,0.0,0.0,0.0,0.0,0.0,0.0,0.0,0.0,0.0,0.0,0.0,0.0,0.0,0.0,0.0,0.0,0.0,-3.0509,-3.0823,-3.1678,-3.1724,-3.2043,-3.2597,-3.3421,-3.3762,-3.3714,-3.4135,-3.4195,-3.4005,-3.3928,-3.3889,-3.3889,-3.3889,-3.3941,0.0,0.0,0.0,0.0,-3.3815,-3.3807,0.0,0.0,0.0,0.0,0.0,0.0,0.0,0.0,-3.4434,-3.4819,-3.5325,0.0,-3.5523,-3.5738,0.0,0.0,0.0,0.0,-3.7306,0.0,0.0,0.0,-3.7681,-3.8415,-3.9073,-3.9265,0.0,0.0,0.0,0.0,0.0,0.0,0.0,0.0,0.0,0.0,0.0,0.0,0.0,0.0,0.0,-5.0712,-5.0712,-5.0712,-5.0712,-5.0712,-5.0712,-5.0712,-5.0712,-5.0712,-5.0712,-5.0712,-5.0712,-5.0712,0.0,0.0,0.0,0.0,-4.9013,-4.8604,-4.8383,-4.8251,-4.7608,-4.7278,-4.6929,-4.5516,-4.4874,-4.458,0.0,0.0,0.0,0.0,0.0,0.0,0.0,0.0,0.0,0.0,0.0,0.0,0.0,0.0,0.0,0.0,0.0,0.0,0.0,0.0,0.0,0.0,0.0,0.0,0.0,-3.0136,-3.0235,-3.07,-3.0901,-3.1157,-3.1476,-3.2284,-3.2793,-3.3053,-3.3722,-3.372,-3.3275,-3.3642,-3.3807,-3.3807,-3.3807,0.0,0.0,0.0,0.0,0.0,-3.3807,-3.3807,0.0,-3.3807,-3.3807,-3.3807,0.0,0.0,0.0,0.0,-3.4141,-3.4307,-3.4442,-3.4572,-3.4724,-3.4889,-3.5125,-3.5356,0.0,0.0,0.0,0.0,0.0,0.0,0.0,0.0,0.0,0.0,0.0,0.0,0.0,0.0,0.0,0.0,0.0,0.0,0.0,0.0,0.0,0.0,0.0,0.0,0.0,-5.0712,-5.0712,-5.0712,-5.0308,-5.0308,-5.0712,-5.0712,-5.0712,-5.0712,-5.0712,-5.0712,-5.0712,-5.0712,-5.0575,0.0,0.0,0.0,-4.9123,-4.855,-4.8067,-4.77,-4.7278,-4.6654,-4.5883,-4.5021,-4.447,-4.4085,0.0,0.0,0.0,0.0,0.0,0.0,0.0,0.0,0.0,0.0,0.0,0.0,0.0,0.0,0.0,0.0,0.0,0.0,0.0,0.0,0.0,0.0,0.0,0.0,-3.0323,-3.0095,-2.9939,-2.9908,-3.0448,-3.0582,-3.0381,-3.1176,-3.192,-3.2638,-3.344,-3.3421,-3.2821,-3.3513,-3.3807,-3.3807,-3.3807,0.0,0.0,0.0,0.0,0.0,0.0,0.0,0.0,-3.3807,-3.3807,-3.3807,-3.3807,0.0,0.0,0.0,0.0,0.0,-3.408,-3.4353,-3.458,-3.4603,-3.4601,-3.4569,0.0,0.0,0.0,0.0,0.0,0.0,0.0,0.0,0.0,0.0,0.0,0.0,0.0,0.0,0.0,0.0,0.0,0.0,0.0,0.0,0.0,0.0,0.0,0.0,0.0,-5.0385,-5.0308,-5.0308,-4.9586,-4.9548,-5.0308,-5.0442,-5.05,-5.05,-5.0635,-5.0712,-5.0712,-5.0712,-5.0635,0.0,0.0,0.0,-4.9068,-4.8322,-4.7591,-4.6892,-4.6782,-4.5902,-4.469,-4.4562,-4.4085,-4.3515,0.0,0.0,0.0,0.0,0.0,0.0,0.0,0.0,0.0,0.0,0.0,0.0,0.0,0.0,0.0,0.0,0.0,0.0,0.0,0.0,0.0,0.0,0.0,0.0,0.0,0.0,0.0,0.0,0.0,-2.9296,-2.9258,-3.006,-3.1213,-3.2638,-3.344,-3.3733,-3.3623,-3.3752,-3.3807,-3.3807,-3.3807,0.0,0.0,0.0,0.0,0.0,0.0,0.0,0.0,-3.3807,-3.3807,-3.3807,-3.3807,0.0,0.0,0.0,0.0,0.0,-3.3855,-3.3908,-3.4005,-3.4218,-3.4105,-3.3928,0.0,0.0,0.0,0.0,0.0,0.0,0.0,0.0,0.0,0.0,0.0,0.0,0.0,0.0,0.0,0.0,0.0,0.0,0.0,0.0,0.0,0.0,0.0,0.0,0.0,-4.8894,-4.8509,-4.8509,-4.8375,-4.8355,-4.8509,-4.9221,-4.9606,-4.9606,-5.0346,-5.0712,-5.0712,-5.0712,-5.0308,0.0,0.0,-4.832,-4.7349,-4.6874,-4.646,-4.6012,-4.5315,-4.4911,-4.4618,-4.3938,-4.3625,-4.3515,0.0,0.0,0.0,0.0,0.0,0.0,0.0,0.0,0.0,0.0,0.0,0.0,0.0,0.0,0.0,0.0,0.0,0.0,0.0,0.0,0.0,0.0,0.0,0.0,0.0,0.0,0.0,0.0,0.0,-2.9005,-2.9023,-2.9824,-3.0595,-3.1366,-3.2596,-3.3146,-3.3183,-3.3623,-3.3807,-3.3807,0.0,0.0,0.0,0.0,0.0,0.0,0.0,0.0,0.0,0.0,-3.3807,-3.3807,-3.3807,0.0,0.0,0.0,0.0,0.0,-3.3807,-3.3807,-3.3829,-3.3948,-3.3889,-3.3807,-3.3807,0.0,0.0,0.0,0.0,0.0,0.0,0.0,0.0,0.0,0.0,0.0,0.0,0.0,0.0,0.0,0.0,0.0,0.0,0.0,0.0,0.0,0.0,0.0,0.0,0.0,-4.8105,-4.8105,-4.7682,-4.7451,-4.7451,-4.7855,-4.8279,-4.8702,-4.9106,-4.9298,-4.9298,-4.9298,-4.9086,-4.8683,0.0,-4.7502,-4.6953,-4.6359,-4.5768,-4.5223,-4.4838,-4.4433,-4.4011,-4.3626,-4.3515,-4.3515,0.0,0.0,0.0,0.0,0.0,0.0,0.0,0.0,0.0,0.0,0.0,0.0,0.0,0.0,0.0,0.0,0.0,0.0,0.0,0.0,0.0,0.0,0.0,0.0,0.0,0.0,-2.9372,-2.931,-2.91,-2.9005,-2.9023,-3.0026,-3.0485,-3.0558,-3.2173,-3.2876,-3.2913,-3.3532,-3.3807,-3.3807,0.0,0.0,0.0,0.0,0.0,0.0,0.0,0.0,0.0,0.0,0.0,0.0,0.0,0.0,0.0,-3.3807,-3.3807,-3.3807,-3.3807,-3.3807,-3.3807,-3.3807,0.0,-3.3807,-3.3807,0.0,0.0,0.0,0.0,0.0,0.0,0.0,0.0,0.0,0.0,0.0,0.0,0.0,0.0,0.0,0.0,0.0,0.0,0.0,0.0,0.0,0.0,0.0,0.0,0.0,-4.7509,-4.7509,-4.6913,-4.6605,-4.6605,-4.6605,-4.7009,-4.7817,-4.8009,-4.8105,-4.8105,-4.8105,-4.8009,-4.7789,-4.7115,-4.6679,-4.6388,-4.5739,-4.5036,-4.4415,-4.4415,-4.4048,-4.3515,-4.3515,-4.3515,-4.3515,0.0,0.0,0.0,0.0,0.0,0.0,0.0,0.0,0.0,0.0,0.0,0.0,0.0,0.0,0.0,0.0,0.0,0.0,0.0,0.0,0.0,0.0,0.0,0.0,0.0,-2.9513,-2.9278,-2.904,-2.9017,-2.9005,-2.9023,-3.0595,-3.1323,-3.1378,-3.2999,-3.3715,-3.3715,-3.377,-3.3807,-3.3807,-3.3807,0.0,0.0,0.0,0.0,0.0,0.0,0.0,0.0,0.0,0.0,0.0,0.0,0.0,-3.3807,-3.3807,-3.3807,-3.3807,-3.3807,-3.3807,-3.3807,-3.3807,0.0,0.0,-3.3807,-3.438,0.0,0.0,0.0,0.0,0.0,0.0,0.0,0.0,0.0,0.0,0.0,0.0,0.0,0.0,0.0,0.0,0.0,0.0,0.0,0.0,0.0,0.0,0.0,0.0,0.0,-4.5787,-4.5729,-4.5691,-4.5691,-4.5691,-4.6124,-4.7,-4.774,-4.8105,-4.8105,-4.8105,-4.7702,-4.6952,-4.6541,-4.5751,-4.4736,-4.4318,-4.392,-4.3589,-4.3589,-4.3551,-4.3515,-4.3515,-4.3515,-4.3515,0.0,0.0,0.0,0.0,0.0,0.0,0.0,0.0,0.0,0.0,0.0,0.0,0.0,0.0,0.0,0.0,0.0,0.0,0.0,0.0,0.0,0.0,0.0,-2.9513,-2.9513,-2.9289,-2.91,-2.9005,-2.9005,-2.9005,-2.9023,-3.0136,0.0,0.0,-3.2559,-3.333,-3.3807,-3.3807,-3.3807,-3.3807,-3.3807,-3.3807,0.0,0.0,0.0,0.0,0.0,0.0,0.0,0.0,-3.3807,-3.3807,0.0,-3.3807,-3.3807,-3.3807,-3.3807,-3.3807,-3.3807,-3.3807,-3.3807,-3.3807,0.0,0.0,0.0,0.0,0.0,0.0,0.0,0.0,0.0,0.0,0.0,0.0,0.0,0.0,0.0,0.0,0.0,0.0,0.0,0.0,0.0,0.0,0.0,0.0,0.0,0.0,0.0,0.0,0.0,-4.5594,-4.5594,-4.5594,-4.5594,-4.5594,-4.5768,-4.6105,-4.6394,-4.6547,-4.6547,-4.6547,-4.6374,-4.6068,-4.5479,-4.5004,-4.454,-4.3927,-4.3595,-4.3515,-4.3515,-4.3515,-4.3515,-4.3515,-4.3515,-4.3515,0.0,0.0,0.0,0.0,0.0,0.0,0.0,0.0,0.0,0.0,0.0,0.0,0.0,0.0,0.0,0.0,0.0,0.0,0.0,0.0,0.0,0.0,0.0,-2.9402,-2.9402,-2.9145,-2.9005,-2.9005,-2.9005,-2.9005,-2.9023,0.0,0.0,0.0,-3.2504,-3.3293,-3.3807,-3.3807,-3.3807,-3.3807,-3.3807,-3.3807,0.0,0.0,0.0,0.0,0.0,0.0,0.0,0.0,-3.3807,-3.3807,0.0,0.0,0.0,0.0,-3.3807,-3.3807,-3.3807,-3.3807,-3.3807,0.0,0.0,0.0,0.0,0.0,0.0,0.0,0.0,0.0,0.0,0.0,0.0,0.0,0.0,0.0,0.0,0.0,0.0,0.0,0.0,0.0,0.0,0.0,0.0,0.0,0.0,0.0,0.0,0.0,0.0,0.0,-4.5594,-4.5594,-4.5594,-4.5594,-4.5594,-4.5594,-4.5594,-4.5594,-4.5594,-4.5594,-4.5594,-4.5568,-4.4877,-4.4593,-4.454,-4.3807,-4.3515,-4.3515,-4.3515,-4.3515,-4.3515,-4.3515,-4.3515,-4.3515,0.0,0.0,0.0,0.0,0.0,0.0,0.0,0.0,0.0,0.0,0.0,0.0,0.0,0.0,0.0,0.0,0.0,0.0,0.0,0.0,0.0,0.0,0.0,-2.9402,-2.9402,-2.9134,-2.9005,-2.9005,-2.9005,-2.9005,-2.9042,-3.065,0.0,0.0,0.0,0.0,-3.3807,-3.3807,-3.3807,-3.3807,-3.3807,-3.3807,-3.3807,0.0,0.0,0.0,0.0,0.0,0.0,0.0,-3.3807,-3.3807,0.0,0.0,0.0,0.0,-3.3807,-3.3807,-3.3807,-3.3807,0.0,0.0,0.0,0.0,0.0,0.0,0.0,0.0,0.0,0.0,0.0,0.0,0.0,0.0,0.0,0.0,0.0,0.0,0.0,0.0,0.0,0.0,0.0,0.0,0.0,0.0,0.0,0.0,0.0,0.0,0.0,0.0,-4.5594,-4.5594,-4.5594,-4.5594,-4.5594,-4.5594,-4.5594,-4.5594,-4.5594,-4.5594,-4.5594,-4.5568,-4.4877,-4.4593,-4.454,-4.3807,-4.3515,-4.3515,-4.3515,-4.3515,-4.3515,-4.3515,-4.3515,-4.3515,0.0,0.0,0.0,0.0,0.0,0.0,0.0,0.0,0.0,0.0,0.0,0.0,0.0,0.0,0.0,0.0,0.0,0.0,0.0,0.0,0.0,0.0,0.0,0.0,0.0,0.0,-2.9005,-2.9005,-2.9005,-2.9005,0.0,0.0,0.0,-3.147,0.0,0.0,-3.3807,-3.3807,-3.3807,-3.3807,-3.3807,-3.3807,-3.3807,0.0,0.0,0.0,0.0,0.0,0.0,0.0,0.0,0.0,0.0,0.0,0.0,-3.3807,-3.3807,-3.3807,-3.3807,-3.3807,0.0,0.0,0.0,0.0,0.0,0.0,0.0,0.0,0.0,0.0,0.0,0.0,0.0,0.0,0.0,0.0,0.0,0.0,0.0,0.0,0.0,0.0,0.0,0.0,0.0,0.0,0.0,0.0,0.0,0.0,0.0,0.0,-4.5594,-4.5594,-4.5594,-4.5594,-4.5594,-4.5594,-4.5594,-4.5594,-4.5594,-4.5594,-4.5594,-4.5568,-4.4877,-4.4593,-4.454,-4.3807,-4.3515,-4.3515,-4.3515,-4.3515,-4.3515,-4.3515,-4.3515,-4.3515,0.0,0.0,0.0,0.0,0.0,0.0,0.0,0.0,0.0,0.0,0.0,0.0,0.0,0.0,0.0,0.0,0.0,0.0,0.0,0.0,0.0,0.0,0.0,0.0,0.0,-2.9005,-2.9005,0.0,0.0,0.0,0.0,0.0,0.0,-3.1935,0.0,-3.3807,0.0,-3.3807,-3.3807,-3.3807,-3.3807,-3.3807,-3.3807,0.0,0.0,0.0,0.0,0.0,0.0,0.0,0.0,0.0,0.0,0.0,0.0,-3.3807,-3.3807,-3.3807,-3.3807,0.0,0.0,0.0,0.0,0.0,0.0,0.0,0.0,0.0,0.0,0.0,0.0,0.0,0.0,0.0,0.0,0.0,0.0,0.0,0.0,0.0,0.0,0.0,0.0,0.0,0.0,0.0,0.0,0.0,0.0,0.0,0.0,0.0,-4.5594,-4.5594,-4.5594,-4.5594,-4.5594,-4.5594,-4.5594,-4.5594,-4.5594,-4.5594,-4.5594,-4.5568,-4.4877,-4.4433,-4.414,-4.3679,-4.3515,-4.3515,-4.3515,-4.3515,-4.3515,-4.3515,-4.3515,-4.3515,0.0,0.0,0.0,0.0,0.0,0.0,0.0,0.0,0.0,0.0,0.0,0.0,0.0,0.0,0.0,0.0,0.0,0.0,0.0,0.0,0.0,0.0,0.0,0.0,0.0,0.0,0.0,0.0,0.0,0.0,0.0,0.0,-3.1825,-3.2638,0.0,-3.3807,-3.3807,-3.3807,-3.3807,-3.3807,-3.3807,-3.3807,-3.3807,-3.3807,0.0,0.0,0.0,0.0,0.0,0.0,0.0,0.0,-3.3807,-3.3807,-3.3807,-3.3807,-3.3807,-3.3807,0.0,0.0,0.0,0.0,0.0,0.0,0.0,0.0,0.0,0.0,0.0,0.0,0.0,0.0,0.0,0.0,0.0,0.0,0.0,0.0,0.0,0.0,0.0,0.0,0.0,0.0,0.0,0.0,0.0,0.0,0.0,0.0,0.0,-4.5559,-4.554,-4.5568,-4.5594,-4.5594,-4.5594,0.0,-4.5594,-4.5594,-4.5594,-4.5594,-4.5568,-4.5466,-4.4853,-4.4165,-4.3515,-4.3515,-4.3515,-4.3515,-4.3515,-4.3515,-4.3515,-4.3515,-4.3515,-4.3515,0.0,0.0,0.0,0.0,0.0,0.0,0.0,0.0,0.0,0.0,0.0,0.0,0.0,0.0,0.0,0.0,0.0,0.0,0.0,0.0,0.0,0.0,0.0,0.0,0.0,0.0,0.0,0.0,0.0,0.0,0.0,0.0,0.0,-3.2638,0.0,-3.3807,-3.3807,-3.3807,-3.3807,-3.3807,-3.3807,-3.3807,-3.3807,-3.3807,-3.3807,0.0,0.0,0.0,0.0,0.0,0.0,0.0,-3.3807,-3.3807,-3.3807,-3.3807,-3.3807,-3.3807,0.0,0.0,0.0,0.0,0.0,0.0,0.0,0.0,0.0,0.0,0.0,0.0,0.0,0.0,0.0,0.0,0.0,0.0,0.0,0.0,0.0,0.0,0.0,0.0,0.0,0.0,0.0,0.0,0.0,0.0,0.0,0.0,0.0,-4.5201,-4.5211,-4.5332,-4.5594,-4.5594,-4.5594,0.0,-4.5594,-4.5594,-4.5594,-4.5594,-4.5303,-4.4806,-4.4657,-4.4165,-4.3515,-4.3515,-4.3515,-4.3515,-4.3515,-4.3515,-4.3515,-4.3515,-4.3515,-4.3515,0.0,0.0,0.0,0.0,0.0,0.0,0.0,0.0,0.0,0.0,0.0,0.0,0.0,0.0,0.0,0.0,0.0,0.0,0.0,0.0,0.0,0.0,0.0,0.0,0.0,0.0,0.0,0.0,0.0,0.0,0.0,0.0,0.0,-3.3201,0.0,-3.3807,-3.3807,-3.3807,-3.3807,-3.3807,-3.3807,-3.3807,-3.3807,-3.3807,-3.3807,-3.3807,-3.3807,0.0,0.0,0.0,0.0,0.0,0.0,0.0,-3.3807,-3.3807,-3.3807,-3.3807,0.0,0.0,0.0,0.0,0.0,0.0,0.0,0.0,0.0,0.0,0.0,0.0,0.0,0.0,0.0,0.0,0.0,0.0,0.0,0.0,0.0,0.0,0.0,0.0,0.0,0.0,0.0,0.0,0.0,0.0,0.0,-4.4593,-4.467,-4.4861,-4.5019,-4.5191,-4.5352,-4.5513,-4.5594,-4.5594,-4.5594,-4.5594,-4.5586,-4.5429,-4.5085,-4.458,-4.4406,-4.4004,-4.3515,-4.3515,-4.3515,-4.3515,-4.3515,-4.3515,-4.3515,-4.3515,-4.3515,-4.3515,0.0,0.0,0.0,0.0,0.0,0.0,0.0,0.0,0.0,0.0,0.0,0.0,0.0,0.0,0.0,0.0,0.0,0.0,0.0,0.0,0.0,0.0,0.0,0.0,0.0,0.0,0.0,0.0,0.0,0.0,0.0,0.0,0.0,-3.3807,0.0,-3.3807,-3.3807,-3.3807,-3.3807,-3.3807,-3.3807,-3.3807,-3.3807,-3.3807,-3.3807,-3.3807,-3.3807,-3.3807,-3.3807,-3.3807,0.0,0.0,0.0,0.0,-3.3807,-3.3807,-3.3807,-3.3807,0.0,0.0,0.0,0.0,0.0,0.0,0.0,0.0,0.0,0.0,0.0,0.0,0.0,0.0,0.0,0.0,0.0,0.0,0.0,0.0,0.0,0.0,0.0,0.0,0.0,0.0,0.0,0.0,0.0,0.0,-4.4406,-4.4406,-4.4433,-4.4501,-4.4769,-4.4943,-4.5,-4.5283,-4.5429,-4.5429,-4.5429,-4.5429,-4.5419,-4.5066,-4.4793,-4.458,-4.4161,-4.382,-4.3515,-4.3515,-4.3515,-4.3515,-4.3515,-4.3515,-4.3515,-4.3515,-4.3515,-4.3515,0.0,0.0,0.0,0.0,0.0,0.0,0.0,0.0,0.0,0.0,0.0,0.0,0.0,0.0,0.0,0.0,0.0,0.0,-2.9464,0.0,0.0,-2.9005,-2.9005,-2.9005,0.0,0.0,0.0,0.0,0.0,0.0,0.0,0.0,0.0,-3.3807,0.0,0.0,-3.3807,-3.3807,-3.3807,-3.3807,-3.3807,-3.3807,-3.3807,-3.3807,-3.3807,-3.3807,-3.3807,-3.3807,-3.3807,-3.3807,-3.3807,0.0,0.0,0.0,0.0,-3.3807,-3.3807,0.0,0.0,0.0,0.0,0.0,0.0,0.0,0.0,0.0,0.0,0.0,0.0,0.0,0.0,0.0,0.0,0.0,0.0,0.0,0.0,0.0,0.0,0.0,0.0,0.0,0.0,0.0,0.0,0.0,0.0,0.0,-4.3647,-4.3647,-4.3791,-4.4058,-4.4117,-4.4318,-4.4657,-4.4707,-4.4732,-4.4732,-4.4732,-4.4732,-4.472,-4.4332,-4.4304,-4.458,-4.4161,-4.382,-4.3515,-4.3515,-4.3515,-4.3515,-4.3515,-4.3515,-4.3515,-4.3515,-4.3515,-4.3515,0.0,0.0,0.0,0.0,0.0,0.0,0.0,0.0,0.0,0.0,0.0,0.0,0.0,0.0,0.0,-2.9877,-2.9845,-2.9661,-2.9203,-2.9074,-2.9005,-2.9005,-2.9005,-2.9005,-2.9005,0.0,0.0,0.0,0.0,0.0,0.0,-3.2687,-3.3458,0.0,0.0,0.0,0.0,0.0,-3.3807,-3.3807,-3.3807,-3.3807,-3.3807,-3.3807,-3.3807,-3.3807,-3.3807,-3.3807,-3.3807,-3.3807,-3.3807,-3.3807,-3.3807,0.0,0.0,0.0,0.0,0.0,0.0,0.0,0.0,0.0,0.0,0.0,0.0,0.0,0.0,0.0,0.0,0.0,0.0,0.0,0.0,0.0,0.0,0.0,0.0,0.0,0.0,0.0,0.0,0.0,0.0,0.0,0.0,0.0,0.0,-4.3515,-4.3515,-4.3515,-4.3563,-4.371,-4.3893,-4.4073,-4.4261,-4.4487,-4.4593,-4.4593,-4.4593,-4.4593,-4.4599,-4.4175,-4.4106,-4.4233,-4.3884,-4.3629,-4.3515,-4.3515,-4.3515,-4.3515,-4.3515,-4.3515,-4.3515,-4.3515,-4.3515,-4.3515,0.0,0.0,0.0,0.0,0.0,0.0,0.0,0.0,0.0,0.0,0.0,0.0,0.0,0.0,0.0,0.0,-2.9748,-2.9446,-2.904,-2.9005,-2.9005,-2.9005,-2.9005,-2.9005,-2.9005,0.0,0.0,0.0,0.0,0.0,-3.1733,-3.3146,-3.3807,0.0,-3.3807,0.0,0.0,0.0,0.0,0.0,0.0,0.0,0.0,0.0,0.0,-3.3807,-3.3807,-3.3807,-3.3807,-3.3807,-3.3807,-3.3807,0.0,0.0,0.0,0.0,0.0,0.0,0.0,0.0,0.0,0.0,0.0,0.0,0.0,0.0,0.0,0.0,0.0,0.0,0.0,0.0,0.0,0.0,0.0,0.0,0.0,0.0,0.0,0.0,0.0,0.0,0.0,0.0,0.0,0.0,0.0,-4.2983,-4.3167,-4.3185,-4.3277,-4.3496,-4.3742,-4.3881,-4.3881,-4.4165,-4.4323,-4.4323,-4.4323,-4.4323,-4.4308,-4.4001,-4.3881,-4.3849,-4.3614,-4.3515,-4.3515,-4.3515,-4.3515,-4.3515,-4.3515,-4.3515,-4.3515,-4.3515,-4.3515,-4.3515,0.0,0.0,0.0,0.0,0.0,0.0,0.0,0.0,0.0,0.0,0.0,0.0,0.0,-2.9992,-2.9722,-2.9722,-2.9542,-2.9299,-2.9028,-2.9005,-2.9005,-2.9005,-2.9005,0.0,-2.9005,-2.9005,0.0,0.0,0.0,0.0,-3.2564,-3.3403,-3.3807,-3.3807,-3.3807,-3.3807,-3.3807,0.0,0.0,0.0,0.0,0.0,0.0,0.0,0.0,0.0,0.0,0.0,0.0,-3.3807,-3.3807,0.0,0.0,0.0,0.0,0.0,0.0,0.0,0.0,0.0,0.0,0.0,0.0,0.0,0.0,0.0,0.0,0.0,0.0,0.0,0.0,0.0,0.0,0.0,0.0,0.0,0.0,0.0,0.0,0.0,0.0,0.0,0.0,0.0,0.0,0.0,0.0,-4.157,-4.2323,-4.2359,-4.2708,-4.3478,-4.3513,-4.3531,-4.3531,-4.3548,-4.3565,-4.3565,-4.3565,-4.3565,-4.3565,-4.3531,-4.3531,-4.3531,-4.3515,-4.3515,-4.3515,-4.3515,-4.3515,-4.3515,-4.3515,-4.3515,-4.3515,-4.3515,-4.3515,-4.3515,0.0,0.0,0.0,0.0,0.0,0.0,0.0,0.0,0.0,0.0,0.0,0.0,0.0,-2.9888,-2.9869,-3.0243,-3.0531,-3.0641,-3.0552,-3.054,-3.054,-3.054,-3.054,-3.054,-3.054,-3.054,0.0,0.0,0.0,-3.232,-3.2619,-3.3421,-3.3807,-3.3807,-3.3807,-3.3807,-3.3807,-3.3807,0.0,0.0,0.0,0.0,0.0,0.0,0.0,0.0,0.0,0.0,0.0,0.0,0.0,0.0,0.0,0.0,-3.3807,-3.3807,0.0,0.0,0.0,0.0,0.0,0.0,0.0,0.0,0.0,0.0,0.0,0.0,0.0,0.0,0.0,0.0,0.0,0.0,0.0,0.0,0.0,0.0,0.0,0.0,0.0,0.0,0.0,0.0,0.0,0.0,0.0,0.0,-4.1499,-4.1534,-4.1645,-4.1956,-4.2451,-4.2983,-4.3496,-4.3515,-4.3515,-4.3515,-4.3515,-4.3515,-4.3515,-4.3515,-4.3515,-4.3515,-4.3515,-4.3515,-4.3515,-4.3515,-4.3515,-4.3515,-4.3515,-4.3515,-4.3515,-4.3515,-4.3515,-4.3515,0.0,0.0,0.0,0.0,0.0,0.0,0.0,0.0,0.0,0.0,0.0,0.0,0.0,0.0,-3.0243,-3.0828,-3.1194,-3.1397,-3.1397,-3.1397,-3.1397,-3.1397,-3.1397,-3.1397,-3.1397,-3.114,0.0,0.0,0.0,0.0,0.0,-3.355,-3.3807,-3.3807,-3.3807,-3.3807,0.0,0.0,0.0,-3.3807,0.0,0.0,-3.3807,0.0,0.0,0.0,0.0,0.0,0.0,0.0,0.0,0.0,0.0,-3.3807,-3.3807,-3.3807,0.0,0.0,0.0,0.0,0.0,0.0,0.0,0.0,0.0,0.0,0.0,0.0,0.0,0.0,0.0,0.0,0.0,0.0,0.0,0.0,0.0,0.0,0.0,0.0,0.0,0.0,0.0,0.0,0.0,0.0,0.0,0.0,-4.0689,-4.0708,-4.0836,-4.1095,-4.1625,-4.2158,-4.269,-4.2947,-4.3094,-4.3094,-4.3369,-4.3515,-4.3515,-4.3515,-4.3515,-4.3515,-4.3515,-4.3515,-4.3515,-4.3515,-4.3515,-4.3515,-4.3515,-4.3515,-4.3515,-4.3515,-4.3515,-4.3462,0.0,0.0,0.0,0.0,0.0,0.0,0.0,0.0,0.0,0.0,0.0,0.0,0.0,0.0,0.0,-3.1385,-3.147,-3.147,-3.147,-3.147,-3.147,-3.147,-3.147,-3.147,-3.147,-3.0705,0.0,0.0,0.0,0.0,0.0,0.0,-3.3807,-3.3807,-3.3807,-3.3807,-3.3807,0.0,-3.3807,-3.3807,0.0,-3.3807,-3.3807,0.0,0.0,0.0,-3.3807,-3.3807,0.0,0.0,0.0,0.0,0.0,0.0,-3.3807,-3.3807,0.0,0.0,0.0,0.0,0.0,0.0,0.0,0.0,0.0,0.0,0.0,0.0,0.0,0.0,0.0,0.0,0.0,0.0,0.0,0.0,0.0,0.0,0.0,0.0,0.0,0.0,0.0,0.0,0.0,0.0,0.0,-3.9038,-3.9808,-3.9845,-4.023,-4.104,-4.1058,-4.1077,-4.1095,-4.1882,-4.2268,-4.2268,-4.3057,-4.3441,-4.3441,-4.3441,-4.3441,-4.3441,-4.346,-4.346,-4.3478,-4.3496,-4.3515,-4.3515,-4.3515,-4.3515,-4.3515,-4.3515,-4.3515,-4.3427,0.0,0.0,0.0,0.0,0.0,0.0,0.0,0.0,0.0,0.0,0.0,0.0,0.0,0.0,-3.2115,-3.2265,-3.2797,-3.3128,-3.3128,-3.3128,-3.3128,-3.3128,-3.3128,-3.3128,-3.3128,-3.2926,0.0,0.0,0.0,0.0,0.0,0.0,0.0,0.0,-3.3807,-3.3807,-3.3807,-3.3807,0.0,0.0,-3.3807,-3.3807,0.0,0.0,0.0,0.0,0.0,-3.3807,0.0,0.0,-3.3807,-3.3807,0.0,0.0,0.0,0.0,0.0,0.0,-3.3807,0.0,0.0,0.0,0.0,0.0,0.0,0.0,0.0,0.0,0.0,0.0,0.0,0.0,0.0,0.0,0.0,0.0,0.0,0.0,0.0,0.0,0.0,0.0,0.0,0.0,0.0,0.0,-3.8707,-3.8799,-3.9019,-3.9038,-3.9405,-4.0212,-4.023,-4.0506,-4.1095,-4.1315,-4.1425,-4.1425,-4.1645,-4.1772,-4.1772,-4.1772,-4.1772,-4.1809,-4.2378,-4.2635,-4.2671,-4.3259,-4.3515,-4.3515,-4.3515,-4.3515,-4.3515,-4.3515,-4.3515,-4.3427,0.0,0.0,0.0,0.0,0.0,0.0,0.0,0.0,0.0,0.0,0.0,0.0,0.0,0.0,0.0,-3.3096,-3.3532,-3.3807,-3.3807,-3.3807,-3.3807,-3.3807,-3.3807,-3.3807,-3.3807,-3.3476,0.0,0.0,0.0,0.0,0.0,0.0,0.0,0.0,0.0,0.0,0.0,0.0,0.0,0.0,-3.3807,0.0,0.0,-3.3807,-3.3807,0.0,0.0,0.0,-3.3807,-3.3807,-3.3807,0.0,0.0,0.0,0.0,0.0,0.0,0.0,0.0,0.0,0.0,0.0,0.0,0.0,0.0,-3.3807,0.0,0.0,0.0,0.0,0.0,0.0,0.0,0.0,0.0,0.0,0.0,0.0,0.0,0.0,0.0,0.0,0.0,0.0,0.0,-3.8193,-3.8505,-3.8707,-3.8707,-3.8707,-3.8909,-3.9386,-3.9405,-3.9625,-4.0086,-4.0432,-4.0598,-4.0598,-4.093,-4.1095,-4.1095,-4.1095,-4.1095,-4.1132,-4.159,-4.1809,-4.1864,-4.2671,-4.3185,-4.3515,-4.3515,-4.3515,-4.3515,-4.3515,-4.3515,-4.3392,0.0,0.0,0.0,0.0,0.0,0.0,0.0,0.0,0.0,0.0,0.0,0.0,0.0,0.0,0.0,0.0,-3.3807,-3.3807,-3.3807,-3.3807,0.0,-3.3807,-3.3807,-3.3807,-3.3807,-3.3096,0.0,0.0,0.0,0.0,0.0,0.0,0.0,0.0,0.0,0.0,0.0,0.0,0.0,-3.3807,-3.3807,-3.3807,0.0,0.0,-3.3807,0.0,-3.3807,-3.3807,-3.3807,-3.3807,-3.3807,0.0,0.0,0.0,0.0,0.0,-3.3807,0.0,0.0,0.0,0.0,0.0,0.0,0.0,-3.3807,-3.3807,-3.3807,0.0,0.0,0.0,0.0,0.0,0.0,0.0,0.0,0.0,0.0,0.0,0.0,0.0,0.0,0.0,0.0,-3.696,-3.7364,-3.7364,-3.8102,-3.8579,-3.8579,-3.8652,-3.8707,-3.8707,-3.8707,-3.8707,-3.8707,-3.9405,-3.9772,-3.9772,-4.0506,-4.082,-4.082,-4.082,-4.082,-4.0838,-4.093,-4.0967,-4.1022,-4.1827,-4.2635,-4.3386,-4.3478,-4.3515,-4.3515,-4.3515,-4.3515,-4.3339,-2.9005,0.0,0.0,0.0,0.0,0.0,0.0,0.0,0.0,0.0,0.0,0.0,0.0,0.0,0.0,0.0,-3.3807,-3.3807,-3.3807,-3.3807,0.0,-3.3807,-3.3807,-3.3807,-3.3807,-3.3642,0.0,0.0,0.0,0.0,0.0,0.0,0.0,0.0,0.0,0.0,0.0,0.0,0.0,-3.3807,-3.3807,0.0,-3.3807,-3.3807,-3.3807,-3.3807,-3.3807,-3.3807,-3.3807,0.0,-3.3807,-3.3807,0.0,0.0,0.0,0.0,0.0,0.0,0.0,0.0,0.0,0.0,0.0,0.0,-3.3807,-3.3807,-3.3807,0.0,0.0,0.0,0.0,0.0,0.0,0.0,0.0,0.0,0.0,0.0,0.0,0.0,0.0,0.0,0.0,-3.6431,-3.6523,-3.6523,-3.729,-3.7731,-3.7731,-3.834,-3.8707,-3.8707,-3.8707,-3.8707,-3.8707,-3.8854,-3.8927,-3.8946,-3.9093,-3.9184,-3.9184,-3.9184,-3.9184,-3.9203,-3.9845,-4.012,-4.0194,-4.0985,-4.1809,-4.2598,-4.324,-4.3515,-4.3515,-4.3515,-4.3515,-4.3339,-2.9005,0.0,0.0,0.0,0.0,0.0,0.0,0.0,0.0,0.0,0.0,0.0,0.0,0.0,0.0,0.0,0.0,0.0,0.0,0.0,0.0,0.0,-3.3807,-3.3807,-3.3807,0.0,0.0,0.0,0.0,0.0,0.0,0.0,0.0,0.0,0.0,0.0,0.0,0.0,-3.3807,-3.3807,-3.3807,0.0,-3.3807,-3.3807,-3.3807,-3.3807,-3.3807,-3.3807,-3.3807,-3.3807,-3.3807,0.0,0.0,-3.3807,-3.3807,0.0,-3.3807,-3.3807,0.0,0.0,0.0,-3.3807,0.0,0.0,0.0,-3.3807,-3.3807,0.0,0.0,0.0,0.0,0.0,0.0,0.0,0.0,0.0,0.0,0.0,0.0,0.0,0.0,0.0,0.0,-3.5422,-3.5844,-3.6266,-3.6684,-3.6905,-3.6905,-3.7661,-3.8102,-3.8102,-3.8487,-3.8707,-3.8707,-3.8707,-3.8707,-3.8707,-3.8707,-3.8707,-3.8707,-3.8707,-3.8707,-3.8726,-3.9129,-3.9294,-3.935,-4.0175,-4.0744,-4.1222,-4.2433,-4.2892,-4.2947,-4.3349,-4.3321,-4.2995,-2.9023,0.0,0.0,0.0,0.0,0.0,0.0,0.0,0.0,0.0,0.0,0.0,0.0,0.0,0.0,0.0,0.0,0.0,0.0,0.0,0.0,0.0,0.0,-3.3807,0.0,-3.3807,0.0,0.0,0.0,0.0,0.0,0.0,0.0,0.0,0.0,0.0,0.0,0.0,0.0,-3.3807,0.0,-3.3807,-3.3807,-3.3807,-3.3807,-3.3807,-3.3807,-3.3807,-3.3807,-3.3807,0.0,-3.3807,-3.3807,-3.3807,0.0,0.0,0.0,0.0,0.0,0.0,0.0,0.0,0.0,-3.3807,0.0,0.0,0.0,-3.3807,0.0,0.0,0.0,0.0,0.0,0.0,0.0,0.0,0.0,0.0,0.0,0.0,0.0,0.0,0.0,-3.4339,-3.5059,-3.5771,-3.5954,-3.6046,-3.6046,-3.6817,-3.7272,-3.7272,-3.8046,-3.8469,-3.8469,-3.8615,-3.8707,-3.8707,-3.8707,-3.8707,-3.8707,-3.8707,-3.8707,-3.8707,-3.8707,-3.8707,-3.8762,-3.9405,-3.9662,-3.9827,-4.1442,-4.2158,-4.2361,-4.2898,-4.2941,-4.2596,-2.9133,-2.9574,0.0,0.0,0.0,0.0,0.0,0.0,0.0,0.0,0.0,0.0,0.0,0.0,0.0,0.0,0.0,0.0,-3.3807,0.0,0.0,0.0,0.0,0.0,-3.3807,-3.3807,0.0,0.0,0.0,0.0,0.0,0.0,0.0,0.0,-3.3807,0.0,0.0,0.0,-3.3807,0.0,-3.3807,-3.3807,0.0,-3.3807,-3.3807,-3.3807,-3.3807,-3.3807,-3.3807,0.0,-3.3807,-3.3807,0.0,-3.3807,0.0,0.0,0.0,0.0,0.0,0.0,0.0,0.0,-3.3807,0.0,0.0,0.0,-3.3807,-3.3807,0.0,0.0,0.0,0.0,0.0,0.0,0.0,0.0,0.0,0.0,0.0,0.0,0.0,0.0,0.0,0.0,-3.3972,-3.4082,-3.4729,-3.5151,-3.5151,-3.5973,-3.6431,-3.6431,-3.7217,-3.7639,-3.7639,-3.834,-3.8707,-3.8707,-3.8707,-3.8707,-3.8707,-3.8707,-3.8707,-3.8707,-3.8707,-3.8707,-3.8707,-3.8799,-3.8836,-3.9001,-4.06,-4.168,-4.2254,-4.1814,-4.2082,-4.2537,-3.0467,0.0,0.0,0.0,0.0,0.0,0.0,0.0,0.0,0.0,0.0,0.0,0.0,0.0,0.0,0.0,0.0,-3.3807,0.0,0.0,0.0,0.0,0.0,0.0,0.0,-3.3807,-3.3807,0.0,-3.3807,0.0,0.0,0.0,0.0,0.0,-3.3807,0.0,-3.3807,0.0,0.0,0.0,0.0,0.0,0.0,-3.3807,-3.3807,-3.3807,-3.3807,-3.3807,-3.3807,0.0,-3.3807,0.0,0.0,0.0,0.0,0.0,0.0,0.0,0.0,0.0,0.0,0.0,0.0,0.0,0.0,0.0,-3.3807,0.0,0.0,0.0,0.0,0.0,0.0,0.0,0.0,0.0,0.0,0.0,0.0,0.0,0.0,0.0,0.0,0.0,0.0,0.0,0.0,-3.3839,-3.3561,-3.4603,-3.5193,-3.5193,-3.6238,-3.7033,-3.7492,-3.7841,-3.823,-3.8707,-3.8707,-3.8707,-3.8707,-3.8707,-3.8707,-3.8707,-3.8707,-3.8707,-3.8707,-3.8707,-3.8707,-3.8781,-3.9426,-4.0194,-4.0985,-4.1662,-4.1738,-4.1474,0.0,0.0,0.0,0.0,0.0,0.0,0.0,0.0,0.0,0.0,0.0,0.0,-3.3807,-3.3807,0.0,0.0,0.0,-3.3807,0.0,0.0,-3.3807,0.0,0.0,0.0,0.0,0.0,0.0,0.0,0.0,0.0,0.0,0.0,0.0,0.0,0.0,-3.3807,-3.3807,0.0,0.0,-3.3807,-3.3807,-3.3807,-3.3807,-3.3807,-3.3807,-3.3807,-3.3807,-3.3807,-3.3807,-3.3807,-3.3807,0.0,-3.3807,0.0,0.0,0.0,0.0,0.0,-3.3807,0.0,0.0,0.0,0.0,0.0,0.0,0.0,0.0,0.0,0.0,0.0,0.0,0.0,0.0,0.0,0.0,0.0,0.0,0.0,0.0,0.0,0.0,0.0,0.0,0.0,0.0,-3.3014,-3.3014,-3.2874,-3.2517,-3.3378,-3.3941,-3.4065,-3.5187,-3.6109,-3.6798,-3.7272,-3.7786,-3.8377,-3.8597,-3.8707,-3.8707,-3.8707,-3.8707,-3.8707,-3.8707,-3.8707,-3.8707,-3.8707,-3.8707,-3.8692,-3.8546,-3.8846,-3.9504,-4.0756,-4.083,-4.0347,-3.3568,-3.3109,0.0,0.0,0.0,0.0,0.0,0.0,0.0,0.0,0.0,0.0,0.0,0.0,0.0,0.0,0.0,-3.3807,-3.3807,0.0,-3.3807,0.0,0.0,0.0,0.0,0.0,0.0,0.0,0.0,0.0,0.0,0.0,0.0,0.0,0.0,-3.3807,-3.3807,-3.3807,-3.3807,-3.3807,-3.3807,-3.3807,-3.3807,0.0,-3.3807,-3.3807,-3.3807,0.0,0.0,-3.3807,-3.3807,0.0,0.0,0.0,0.0,0.0,0.0,0.0,0.0,0.0,0.0,-3.3807,0.0,0.0,0.0,0.0,-3.3214,0.0,0.0,0.0,0.0,0.0,0.0,0.0,0.0,0.0,0.0,0.0,0.0,0.0,0.0,0.0,0.0,0.0,0.0,-3.2517,-3.2517,-3.2517,-3.2501,-3.2535,-3.2765,-3.322,-3.4026,-3.4661,-3.5078,-3.6688,-3.7511,-3.7547,-3.8322,-3.8707,-3.8707,-3.8707,-3.8707,-3.8707,-3.8707,-3.8707,-3.8707,-3.8707,-3.8707,-3.8643,-3.8115,-3.7929,-3.8003,-3.8302,-3.889,-3.9403,0.0,0.0,0.0,0.0,0.0,0.0,0.0,-3.3807,0.0,0.0,0.0,0.0,0.0,0.0,-3.3807,0.0,0.0,-3.3807,-3.3807,-3.3807,0.0,0.0,0.0,-3.3807,0.0,0.0,0.0,0.0,0.0,0.0,0.0,0.0,0.0,0.0,0.0,-3.3807,0.0,0.0,0.0,0.0,0.0,-3.3807,-3.3807,0.0,0.0,-3.3807,-3.3807,-3.3807,0.0,-3.3807,-3.3807,-3.3807,-3.3807,-3.3807,-3.3807,-3.3807,-3.3807,0.0,0.0,0.0,-3.3807,-3.3807,0.0,0.0,0.0,0.0,0.0,0.0,0.0,0.0,0.0,0.0,0.0,0.0,0.0,0.0,0.0,0.0,0.0,0.0,0.0,0.0,0.0,0.0,0.0,-3.2039,-3.2039,-3.1915,0.0,-3.1879,-3.2109,-3.2281,-3.2831,-3.3613,-3.4588,-3.5166,-3.614,-3.7492,-3.7786,-3.8175,-3.8707,-3.8707,-3.8707,-3.8707,-3.8707,-3.8707,-3.8707,-3.8707,-3.8481,-3.8148,-3.7963,-3.7702,-3.7504,-3.8135,-3.83,-3.8146,-3.3807,0.0,0.0,0.0,0.0,0.0,0.0,0.0,0.0,0.0,-3.4045,0.0,-3.4215,0.0,-3.4688,0.0,-3.4688,-3.4688,-3.4688,-3.4394,0.0,-3.4215,-3.3954,0.0,0.0,0.0,0.0,0.0,0.0,-3.3807,0.0,0.0,0.0,0.0,0.0,0.0,0.0,0.0,-3.3807,0.0,0.0,-3.3807,0.0,0.0,-3.3807,-3.3807,0.0,-3.3807,-3.3807,-3.3807,-3.3807,-3.3807,-3.3807,-3.3807,-3.3807,-3.3807,-3.3807,-3.3807,-3.3807,-3.3807,0.0,-3.3807,-3.3807,0.0,-3.3807,0.0,0.0,0.0,0.0,0.0,0.0,0.0,0.0,0.0,0.0,0.0,0.0,-3.119,0.0,0.0,0.0,0.0,0.0,0.0,-3.1584,-3.1584,-3.1584,-3.147,0.0,0.0,-3.1641,-3.1807,-3.2092,-3.2815,-3.3957,-3.4264,-3.5293,-3.7088,-3.7364,-3.7918,-3.8707,-3.8707,-3.8707,-3.8707,-3.8707,-3.8578,-3.8433,-3.8433,-3.8117,-3.7632,-3.7433,-3.7192,-3.6974,-3.7503,-3.7314,-3.6842,0.0,0.0,0.0,0.0,-3.3807,0.0,0.0,0.0,-3.3807,0.0,-3.4527,-3.5023,-3.5059,-3.5807,-3.6303,-3.6303,-3.6303,0.0,-3.6303,-3.5518,0.0,0.0,-3.4284,-3.3844,-3.3807,0.0,0.0,0.0,0.0,0.0,0.0,0.0,0.0,0.0,-3.3807,0.0,-3.3807,-3.3807,-3.3807,-3.3807,-3.3807,-3.3807,-3.3807,-3.3807,-3.3807,-3.3807,-3.3807,-3.3807,-3.3807,-3.3807,-3.3807,-3.3807,-3.3807,-3.3807,-3.3807,-3.3807,-3.3807,-3.3807,-3.3807,-3.3807,-3.3807,-3.3807,0.0,0.0,0.0,0.0,-3.3229,0.0,0.0,0.0,0.0,0.0,0.0,0.0,0.0,0.0,0.0,0.0,0.0,0.0,0.0,0.0,0.0,-3.119,-3.119,-3.119,-3.119,0.0,0.0,0.0,-3.1389,-3.1752,-3.1771,-3.2213,-3.3121,-3.3895,-3.4942,-3.6227,-3.7026,-3.7833,-3.8627,-3.8643,-3.8643,-3.8627,-3.8627,-3.8334,-3.7877,-3.7877,-3.7596,-3.7097,-3.66,-3.6374,-3.6354,-3.6354,-3.6032,-3.56,-3.3807,-3.3807,-3.3807,0.0,-3.3807,-3.3807,0.0,0.0,0.0,0.0,-3.4876,-3.5261,-3.5899,-3.6174,-3.6303,-3.6303,-3.6303,0.0,0.0,0.0,0.0,-3.5041,-3.4802,-3.4399,-3.3807,-3.3807,0.0,-3.3807,0.0,0.0,-3.3807,0.0,0.0,0.0,0.0,0.0,-3.3807,-3.3807,-3.3807,-3.3807,-3.3807,-3.3807,0.0,0.0,-3.3807,-3.3807,-3.3807,-3.3807,-3.3807,-3.3807,-3.3807,-3.3807,-3.3807,-3.3807,-3.3807,-3.3807,-3.3807,-3.3807,-3.3807,-3.3807,-3.3807,-3.3807,-3.3807,-3.3807,0.0,0.0,0.0,0.0,0.0,0.0,0.0,0.0,0.0,0.0,0.0,0.0,0.0,0.0,0.0,0.0,0.0,0.0,-3.119,-3.119,-3.119,-3.119,-3.119,0.0,0.0,0.0,0.0,-3.1351,-3.1351,-3.1603,-3.2161,-3.2354,-3.3387,-3.5181,-3.5794,-3.6609,-3.7596,-3.7947,-3.7929,-3.7578,-3.7578,-3.7506,-3.7378,-3.7378,-3.7078,-3.6583,-3.6457,-3.6161,-3.5805,-3.5805,-3.5717,-3.56,-3.3807,0.0,0.0,-3.3807,0.0,0.0,-3.3844,0.0,0.0,-3.4949,-3.5628,0.0,-3.6776,-3.7129,-3.7349,-3.7349,-3.7349,0.0,0.0,0.0,0.0,-3.6119,-3.5389,-3.4784,-3.4325,-3.3972,0.0,-3.3807,0.0,0.0,-3.3807,0.0,0.0,0.0,0.0,-3.3807,0.0,-3.3807,-3.3807,-3.3807,-3.3807,0.0,0.0,-3.3807,-3.3807,-3.3807,-3.3807,-3.3807,-3.3807,-3.3807,-3.3807,-3.3807,-3.3807,-3.3807,-3.3807,-3.3807,-3.3807,-3.3807,-3.3807,-3.3807,-3.3807,-3.3807,-3.3807,-3.3807,-3.3807,-3.3807,-3.3807,0.0,0.0,0.0,0.0,0.0,0.0,0.0,0.0,0.0,0.0,0.0,0.0,0.0,0.0,0.0,-3.119,-3.119,-3.119,-3.119,0.0,0.0,0.0,0.0,0.0,-3.119,-3.119,-3.1391,-3.1807,-3.1807,-3.265,-3.434,-3.4953,-3.5739,-3.6697,-3.7309,-3.7451,-3.7209,-3.7209,-3.7076,-3.6862,-3.6862,-3.6522,-3.6054,-3.6054,-3.5854,-3.56,-3.56,-3.56,-3.56,0.0,0.0,0.0,0.0,0.0,0.0,0.0,-3.4711,0.0,-3.5316,0.0,-3.7547,-3.7658,-3.8285,-3.8707,-3.8707,0.0,-3.8707,-3.8707,-3.8046,-3.7621,-3.7492,-3.6101,-3.5224,-3.5004,-3.4307,0.0,0.0,0.0,0.0,0.0,0.0,0.0,0.0,0.0,0.0,0.0,-3.3807,-3.3807,0.0,-3.3807,-3.3807,-3.3807,-3.3807,-3.3807,-3.3807,-3.3807,-3.3807,-3.3807,-3.3807,-3.3807,-3.3807,-3.3807,-3.3807,-3.3807,-3.3807,-3.3807,-3.3807,-3.3807,-3.3807,-3.3807,-3.3807,-3.3807,-3.3807,-3.3807,-3.3807,-3.3807,-3.3807,-3.3166,-3.2567,0.0,0.0,0.0,0.0,0.0,0.0,0.0,0.0,0.0,0.0,0.0,0.0,0.0,-3.119,0.0,0.0,0.0,0.0,0.0,0.0,0.0,-3.119,-3.119,-3.137,-3.1733,0.0,-3.2333,-3.353,-3.4341,-3.51,-3.582,-3.6706,-3.7076,-3.6981,-3.6981,-3.6724,-3.6308,-3.6308,-3.6028,-3.56,-3.56,-3.56,-3.56,-3.56,-3.56,-3.56,0.0,0.0,0.0,0.0,0.0,-3.6028,-3.5881,-3.5973,-3.6303,-3.6978,-3.7327,-3.7749,-3.8414,-3.8615,-3.8707,-3.8707,-3.8707,0.0,0.0,0.0,0.0,-3.7529,-3.7217,-3.6413,-3.5041,-3.4857,-3.4454,0.0,0.0,0.0,0.0,0.0,0.0,0.0,0.0,0.0,-3.3807,-3.3807,0.0,-3.3807,-3.3807,-3.3807,-3.3807,-3.3807,-3.3807,-3.3807,-3.3807,-3.3807,-3.3807,-3.3807,-3.3807,-3.3807,-3.3807,-3.3807,-3.3807,-3.3807,-3.3807,-3.3807,-3.3807,-3.3807,-3.3807,-3.3807,-3.3807,-3.3807,-3.3807,-3.3807,-3.3807,-3.3807,-3.3404,-3.2968,-3.2567,0.0,0.0,0.0,0.0,0.0,0.0,0.0,0.0,0.0,0.0,0.0,0.0,0.0,0.0,0.0,0.0,0.0,0.0,0.0,0.0,0.0,-3.119,0.0,0.0,0.0,-3.1725,-3.2576,-3.3727,-3.4486,-3.4793,-3.6008,-3.6291,-3.5876,-3.5876,-3.5832,-3.5739,-3.5739,-3.5672,-3.56,-3.56,-3.56,-3.56,-3.56,-3.56,-3.56,0.0,0.0,0.0,0.0,0.0,0.0,0.0,-3.7276,0.0,-3.7511,-3.786,-3.8267,-3.867,-3.8707,-3.8707,-3.8707,-3.8707,-3.8707,-3.8707,-3.8707,-3.8524,-3.8138,-3.7731,0.0,-3.6303,-3.5445,-3.4821,-3.4417,0.0,0.0,0.0,0.0,0.0,0.0,0.0,-3.3807,0.0,0.0,0.0,-3.3807,-3.3807,-3.3807,-3.3807,-3.3807,-3.3807,-3.3807,-3.3807,-3.3807,-3.3807,-3.3807,-3.3807,-3.3807,-3.3807,-3.3807,-3.3807,-3.3807,-3.3807,-3.3807,-3.3807,-3.3807,-3.3807,-3.3807,-3.3807,-3.3807,-3.3807,-3.3807,-3.3807,-3.3807,-3.348,-3.2983,-3.2264,-3.162,0.0,0.0,0.0,0.0,0.0,0.0,0.0,0.0,0.0,0.0,0.0,0.0,0.0,0.0,0.0,0.0,0.0,0.0,0.0,0.0,0.0,0.0,0.0,0.0,0.0,-3.231,-3.3304,-3.4034,-3.4544,-3.5535,-3.5832,-3.56,-3.56,-3.56,-3.56,-3.56,-3.56,-3.56,-3.56,-3.56,-3.56,-3.56,-3.56,-3.56,0.0,-3.5973,0.0,0.0,-3.7217,0.0,-3.7988,-3.8542,-3.867,-3.786,-3.8303,-3.8707,-3.8707,-3.8707,-3.8707,-3.8707,-3.8707,-3.8707,-3.8707,-3.8707,-3.8707,-3.8707,-3.8083,-3.7676,-3.7492,-3.6046,-3.5188,0.0,0.0,0.0,0.0,0.0,0.0,0.0,0.0,0.0,0.0,0.0,-3.3807,-3.3807,-3.3807,-3.3807,-3.3807,-3.3807,-3.3807,-3.3807,-3.3807,-3.3807,-3.3807,-3.3807,-3.3807,-3.3807,-3.3807,-3.3807,-3.3807,-3.3807,-3.3807,-3.3807,-3.3807,-3.3807,-3.3807,-3.3807,-3.3807,-3.3807,-3.3807,-3.3734,-3.368,-3.368,-3.3255,-3.2647,-3.1825,-3.1411,0.0,0.0,0.0,0.0,0.0,0.0,0.0,0.0,0.0,0.0,0.0,0.0,0.0,0.0,0.0,0.0,0.0,0.0,0.0,0.0,0.0,-3.119,-3.119,0.0,-3.1582,-3.231,-3.3051,-3.3795,-3.4523,-3.5245,-3.56,-3.56,-3.56,-3.56,-3.56,-3.56,-3.56,-3.56,-3.56,-3.56,-3.56,-3.56,-3.56,-3.56,0.0,0.0,0.0,0.0,0.0,0.0,0.0,-3.9735,-3.9496,-3.8689,-3.8652,-3.8707,-3.8707,-3.8707,-3.8707,-3.8707,-3.8707,-3.8707,-3.8707,-3.8707,-3.8707,-3.8707,-3.8634,-3.8248,-3.7529,-3.6615,-3.5789,0.0,0.0,0.0,0.0,0.0,0.0,0.0,0.0,0.0,0.0,-3.3807,-3.3807,-3.3807,-3.3807,-3.3807,-3.3807,-3.3807,-3.3807,-3.3807,-3.3807,-3.3807,-3.3807,-3.3807,-3.3807,-3.3807,-3.3807,-3.3807,-3.3807,-3.3807,-3.3807,-3.3807,-3.3807,-3.3807,-3.3807,-3.3807,-3.3807,-3.3807,-3.3807,-3.3522,-3.3258,-3.3258,-3.2549,-3.1789,-3.1332,-3.123,-3.119,0.0,0.0,0.0,0.0,0.0,0.0,0.0,0.0,0.0,0.0,0.0,0.0,0.0,0.0,0.0,0.0,0.0,0.0,-3.119,0.0,-3.119,-3.119,-3.119,-3.1582,-3.231,-3.3051,-3.3795,-3.4523,-3.5245,-3.56,-3.56,-3.56,-3.56,-3.56,-3.56,-3.56,-3.56,-3.56,-3.56,-3.56,-3.56,-3.56,-3.56,0.0,0.0,0.0,0.0,0.0,0.0,0.0,-4.0616,-4.0506,-4.0178,-4.0141,-4.0141,-4.0141,-3.9717,-3.9423,-3.9423,-3.8982,-3.8707,-3.8707,-3.8707,-3.8707,-3.8707,-3.8707,-3.856,-3.823,-3.7437,-3.6597,0.0,0.0,0.0,0.0,0.0,0.0,0.0,0.0,-3.3181,-3.3451,-3.3451,-3.3578,-3.3807,-3.3807,-3.3807,-3.3844,-3.4325,-3.4337,-3.4203,-3.5007,-3.479,-3.4146,-3.4426,-3.4197,-3.3807,-3.3807,-3.3807,-3.3807,-3.3807,-3.3807,-3.3748,-3.3508,-3.3451,-3.3375,-3.3087,-3.3011,-3.3011,-3.3011,-3.2887,-3.2777,-3.2777,-3.2247,-3.1752,-3.1584,-3.137,-3.119,0.0,0.0,0.0,0.0,0.0,0.0,0.0,0.0,0.0,0.0,0.0,0.0,0.0,0.0,0.0,0.0,0.0,0.0,-3.119,0.0,-3.119,-3.119,-3.165,-3.2242,-3.2966,-3.3711,-3.4455,-3.5182,-3.5464,-3.56,-3.56,-3.56,-3.56,-3.56,-3.56,-3.56,-3.56,-3.56,-3.56,-3.56,-3.56,-3.56,-3.56,-3.8521,0.0,-3.9588,0.0,-4.0249,-4.0524,-4.1315,-4.1444,-4.1535,-4.1772,-4.1809,-4.1627,-4.115,-4.0598,-4.0157,-3.9918,-3.9386,-3.8946,-3.8726,-3.8707,-3.8707,-3.8707,-3.8707,0.0,-3.8707,-3.7915,-3.7217,-3.6652,-3.5418,0.0,0.0,0.0,0.0,0.0,-3.2777,-3.3014,-3.3214,-3.3317,-3.3536,-3.3825,-3.4064,-3.4073,-3.4031,-3.4838,-3.4839,-3.453,-3.5494,-3.5218,-3.4474,-3.4808,-3.4388,-3.3742,-3.3651,-3.3536,-3.3419,-3.3419,-3.3419,-3.3361,-3.3075,-3.2999,-3.2903,-3.2583,-3.2501,-3.2501,-3.2501,-3.2383,-3.2265,-3.2144,-3.186,-3.1623,-3.1623,-3.1391,-3.119,-3.119,0.0,0.0,0.0,0.0,0.0,0.0,0.0,-3.119,-3.119,0.0,0.0,0.0,0.0,0.0,0.0,0.0,0.0,0.0,0.0,0.0,0.0,-3.1938,-3.2662,-3.3406,-3.415,-3.4895,-3.56,-3.56,-3.56,-3.56,-3.56,-3.56,-3.56,-3.56,-3.56,-3.56,-3.56,-3.56,-3.56,-3.56,-3.56,-3.56,-4.0893,-4.1058,-4.1058,-4.1077,-4.1077,-4.1352,-4.2158,-4.2286,-4.2561,-4.3369,-4.3478,-4.2873,-4.126,-4.1095,-4.0781,-3.9955,-3.9882,-3.9551,-3.8762,-3.8707,-3.8707,0.0,0.0,-3.8707,-3.8707,-3.7915,-3.7492,-3.7492,0.0,0.0,-3.4388,0.0,-3.2952,-3.2534,-3.3404,-3.3564,-3.3229,-3.362,-3.3807,-3.3862,-3.4674,-3.4725,-3.4366,-3.5191,-3.5163,-3.4694,-3.4712,-3.4712,-3.4694,-3.4694,-3.4217,-3.3559,-3.3278,-3.2887,-3.2517,-3.2517,-3.2517,-3.2517,-3.2517,-3.2517,-3.2517,-3.2501,-3.2501,-3.2501,-3.2501,-3.2127,-3.1696,-3.131,-3.121,-3.121,-3.121,-3.121,-3.119,-3.119,0.0,0.0,0.0,0.0,0.0,0.0,-3.119,-3.119,-3.119,0.0,0.0,0.0,0.0,0.0,0.0,0.0,0.0,-3.119,-3.119,0.0,-3.119,-3.1938,-3.2662,-3.3406,-3.415,-3.4895,-3.56,-3.56,-3.56,-3.56,-3.56,-3.56,-3.56,-3.56,-3.56,-3.56,-3.56,-3.56,-3.56,-3.56,-3.56,-3.56,-4.104,-4.1095,-4.126,-4.1827,-4.1919,-4.2194,-4.3002,-4.3112,-4.3221,-4.3478,-4.3515,-4.3313,-4.2782,-4.2249,-4.1589,0.0,-4.0212,-3.9551,0.0,-3.8707,-3.8707,-3.8707,-3.8707,-3.8707,-3.8707,-3.8095,-3.7497,-3.6953,0.0,0.0,0.0,-3.3178,-3.2544,-3.162,-3.1896,-3.2109,-3.2317,-3.3314,-3.3707,-3.3745,-3.4891,-3.502,-3.4657,-3.5474,-3.5469,-3.5159,-3.6086,-3.5814,-3.5089,-3.5414,-3.4811,-3.3834,-3.3248,-3.279,-3.2501,-3.2501,-3.2501,-3.2434,-3.2109,-3.2022,-3.195,-3.1694,-3.1601,-3.1601,-3.1601,-3.1506,-3.1351,-3.123,-3.119,-3.119,-3.119,-3.119,-3.119,-3.119,-3.119,0.0,0.0,0.0,0.0,0.0,0.0,-3.119,0.0,-3.119,0.0,0.0,0.0,0.0,0.0,0.0,0.0,0.0,-3.119,0.0,-3.1955,-3.2679,-3.3423,-3.415,-3.4912,-3.5363,-3.56,-3.56,-3.56,-3.56,-3.56,-3.56,-3.56,-3.56,-3.56,-3.56,-3.56,-3.56,-3.56,-3.56,-3.56,-3.5667,-4.1937,-4.2011,-4.2158,-4.2653,-4.2745,-4.291,-4.3423,-4.3515,-4.3515,-4.3515,-4.3515,-4.3515,-4.3515,-4.3039,0.0,-4.1625,-4.0818,-4.001,-3.9203,-3.8872,-3.8707,-3.8707,-3.8707,-3.8611,-3.8399,0.0,0.0,-3.6897,-3.6073,-3.4809,-3.3144,-3.3339,-3.2924,-3.2039,-3.2366,-3.2577,-3.2726,-3.3671,-3.404,-3.4111,-3.5204,-3.5332,-3.4964,-3.5791,-3.5792,-3.5465,-3.6307,-3.6063,-3.5397,-3.5691,-3.5088,-3.4171,-3.3711,-3.303,-3.2369,-3.209,-3.2003,-3.195,-3.1658,-3.1565,-3.1507,-3.1252,-3.119,-3.119,-3.119,-3.119,-3.119,-3.119,-3.119,-3.119,-3.119,-3.119,-3.119,-3.119,-3.119,-3.119,-3.119,0.0,0.0,0.0,0.0,0.0,0.0,-3.119,0.0,0.0,0.0,0.0,0.0,0.0,0.0,-3.119,-3.1461,0.0,-3.2293,-3.3305,-3.4032,-3.4506,-3.5245,-3.56,-3.56,-3.56,-3.56,-3.56,-3.56,-3.56,-3.56,-3.56,-3.56,-3.56,-3.56,-3.56,-3.5633,-3.5943,-3.6062,-3.6163,-4.3349,-4.3515,0.0,0.0,-4.3515,0.0,-4.3515,-4.3515,-4.3515,-4.3515,-4.3515,-4.3497,-4.3444,-4.3444,-4.3134,-4.2331,0.0,0.0,0.0,-3.9067,-3.8611,-3.8643,-3.8611,-3.8366,-3.7859,-3.7807,-3.756,-3.7078,-3.5909,-3.4696,-3.3491,-3.3914,-3.3877,-3.3448,-3.425,-3.44,-3.4086,-3.4546,-3.4728,-3.4763,-3.5611,-3.5661,-3.5307,-3.6074,-3.6032,-3.56,-3.56,-3.56,-3.56,-3.56,-3.5148,-3.4556,-3.4506,-3.3563,-3.2293,-3.1495,-3.1241,-3.119,-3.119,-3.119,-3.119,-3.119,-3.119,-3.119,-3.119,-3.119,-3.119,-3.119,-3.119,-3.119,-3.119,-3.119,-3.119,-3.119,-3.119,-3.119,-3.119,0.0,0.0,0.0,0.0,0.0,0.0,-3.119,-3.119,0.0,0.0,0.0,0.0,0.0,-3.1275,-3.1275,-3.1938,-3.2344,-3.2446,-3.3816,-3.4523,-3.4573,-3.5261,-3.56,-3.56,-3.56,-3.5633,-3.5667,-3.5667,-3.5701,-3.5752,-3.5752,-3.5752,-3.5752,-3.5752,-3.5752,-3.5853,-3.6586,-3.688,-3.6998,0.0,0.0,-4.3515,-4.3515,-4.3515,-4.3515,-4.3515,-4.3515,-4.3515,-4.3515,-4.3515,-4.3339,-4.2939,-4.2883,-4.2622,-4.1976,-4.105,-4.0129,-3.9278,-3.8169,-3.7703,-3.8065,-3.7738,-3.7506,-3.736,-3.6962,-3.6501,-3.5968,-3.5684,-3.5094,-3.4235,-3.4347,-3.4058,-3.3406,-3.3622,-3.3646,-3.3632,-3.4696,-3.4918,-3.4637,-3.581,-3.5973,-3.5528,-3.5715,-3.5717,-3.56,-3.56,-3.56,-3.56,-3.56,-3.5481,-3.525,-3.4675,-3.4252,-3.3732,-3.2429,-3.165,-3.119,-3.119,-3.119,-3.119,-3.119,-3.119,-3.119,-3.119,-3.119,-3.119,-3.119,-3.119,-3.119,-3.119,-3.119,-3.119,-3.119,-3.119,-3.119,-3.119,-3.119,0.0,0.0,-3.119,-3.119,-3.119,-3.119,-3.119,0.0,0.0,0.0,0.0,-3.1735,-3.2039,-3.2039,-3.2209,-3.2835,-3.3964,-3.432,-3.4776,-3.5329,-3.5515,-3.56,-3.56,-3.56,-3.5943,-3.6502,-3.6502,-3.684,-3.7364,-3.7364,-3.7364,-3.7364,-3.7364,-3.7364,-3.7381,-3.7567,-3.7635,-3.7753,-4.3515,-4.3515,-4.3515,-4.3515,-4.3515,-4.3515,-4.3515,-4.3515,-4.3515,-4.3515,-4.3304,-4.3014,-4.2713,-4.246,-4.2059,-4.1446,-4.0798,-4.01,-3.9276,-3.8263,-3.7676,-3.7578,-3.7341,-3.7095,-3.6843,-3.656,-3.6139,-3.56,-3.56,-3.5397,-3.5013,-3.5013,-3.4793,-3.4421,-3.4421,-3.4421,-3.4438,-3.5134,-3.5262,-3.5052,-3.5749,-3.5854,-3.56,-3.56,-3.56,-3.56,-3.56,-3.56,-3.56,-3.56,-3.56,-3.5532,-3.5131,-3.4776,-3.4336,-3.3546,-3.2547,-3.1633,-3.1275,-3.119,-3.119,-3.119,-3.119,-3.119,-3.119,-3.119,-3.119,-3.119,-3.119,-3.119,-3.119,-3.119,-3.119,-3.119,-3.119,-3.119,-3.119,-3.119,0.0,-3.119,-3.119,-3.119,-3.119,-3.119,-3.119,-3.119,-3.119,0.0,-3.1684,-3.209,-3.2293,-3.2293,-3.2953,-3.3698,-3.4489,-3.4827,-3.5194,-3.56,-3.56,-3.5785,-3.6146,-3.6146,-3.6569,-3.7297,-3.7297,-3.7533,-3.7905,-3.7905,-3.7679,-3.736,-3.736,-3.7161,-3.6891,-3.723,-3.7345,-3.7461,-4.3515,-4.3515,-4.3515,-4.3515,-4.3427,-4.3375,-4.3375,-4.3375,-4.3357,-4.3249,-4.2939,-4.2635,-4.246,-4.1958,-4.1424,-4.0827,-4.0625,-4.0197,-3.9423,-3.8546,-3.7769,-3.7094,-3.7001,-3.6744,-3.6287,-3.6287,-3.6071,-3.56,-3.56,-3.56,-3.56,-3.56,-3.56,-3.56,-3.56,-3.56,-3.56,-3.56,-3.56,-3.56,-3.56,-3.56,-3.56,-3.56,-3.56,-3.56,-3.56,-3.56,-3.56,-3.56,-3.56,-3.56,-3.56,-3.5182,-3.4641,-3.4523,-3.3613,-3.2446,-3.1616,-3.1275,-3.119,-3.119,-3.119,-3.119,-3.119,-3.119,-3.119,-3.119,-3.119,-3.119,-3.119,-3.119,-3.119,-3.119,-3.119,-3.119,-3.119,0.0,-3.119,-3.119,-3.119,-3.119,-3.119,-3.119,-3.1241,-3.136,-3.136,-3.1701,-3.2429,-3.2564,-3.2632,-3.2632,-3.385,-3.4539,-3.4658,-3.5301,-3.56,-3.56,-3.5718,-3.6146,-3.6795,-3.6931,-3.73,-3.7872,-3.7872,-3.7891,-3.7876,-3.7876,-3.7477,-3.6872,-3.6872,-3.6475,-3.5999,-3.6646,-3.6853,-3.6961,-4.3515,-4.3515,-4.3515,-4.3515,-4.3142,-4.2826,-4.2826,-4.2826,-4.2637,-4.2124,-4.244,-4.2302,-4.1291,-4.111,-4.0803,-4.0262,-4.0184,-3.9767,-3.8803,-3.7681,-3.6877,-3.6553,-3.6097,-3.581,-3.5717,-3.5717,-3.5672,-3.56,-3.56,-3.56,-3.56,-3.56,-3.56,-3.56,-3.56,-3.56,-3.56,-3.56,-3.56,-3.56,-3.56,-3.56,-3.56,-3.56,-3.56,-3.56,-3.56,-3.56,-3.56,-3.56,-3.56,-3.56,-3.56,-3.5515,-3.5318,-3.4675,-3.4358,-3.3867,-3.2496,-3.1684,-3.119,-3.119,-3.119,-3.119,-3.119,-3.119,-3.119,-3.119,-3.119,-3.119,-3.119,-3.119,-3.119,-3.119,-3.119,-3.119,-3.119,0.0,-3.119,-3.119,-3.119,-3.119,-3.119,-3.119,-3.1464,-3.209,-3.2141,-3.2462,-3.3186,-3.3812,-3.415,-3.415,-3.437,-3.4793,-3.5414,-3.5532,-3.56,-3.56,-3.6282,-3.6694,-3.6829,-3.7449,-3.7776,-3.781,-3.781,-3.7822,-3.7814,-3.7814,-3.7742,-3.7628,-3.7628,-3.7571,-3.7473,-3.7585,-3.7617,-3.7633,-4.3515,-4.3515,-4.341,-4.3124,-4.2864,-4.2596,-4.2244,-4.248,-4.248,-4.1874,-4.2041,-4.1874,-4.0995,-4.0631,-4.0368,-4.0121,-4.0096,-3.9568,-3.8322,-3.7715,-3.6955,-3.6014,-3.5739,-3.56,-3.56,-3.56,-3.56,-3.56,-3.56,-3.56,-3.56,-3.56,-3.56,-3.56,-3.56,-3.56,-3.56,-3.56,-3.56,-3.56,-3.56,-3.56,-3.56,-3.56,-3.56,-3.56,-3.56,-3.56,-3.56,-3.56,-3.56,-3.56,-3.56,-3.56,-3.5532,-3.5199,-3.4539,-3.366,-3.2598,-3.2056,-3.1701,-3.1292,-3.119,-3.119,-3.119,-3.119,-3.119,-3.119,-3.119,-3.119,-3.119,-3.119,-3.119,-3.119,-3.119,0.0,0.0,-3.119,-3.119,-3.119,-3.119,-3.136,-3.1752,-3.1802,-3.2107,-3.2831,-3.2882,-3.3203,-3.3947,-3.432,-3.4675,-3.5081,-3.5098,-3.5267,-3.56,-3.56,-3.5802,-3.6248,-3.6626,-3.6989,-3.7344,-3.7694,-3.7824,-3.7804,-3.7804,-3.7786,-3.7793,-3.7793,-3.7544,-3.7144,-3.7144,-3.6905,-3.6554,-3.6554,-3.6554,-3.6554,-4.316,-4.3214,-4.3142,-4.2578,-4.2362,-4.2121,-4.1664,-4.1979,-4.208,-4.1486,-4.1512,-4.1358,-4.078,-4.036,-4.0096,-4.0096,-4.0096,-3.9462,-3.8007,-3.7905,-3.7229,-3.5667,-3.56,-3.56,-3.56,-3.56,-3.56,-3.56,-3.56,-3.56,-3.56,-3.56,-3.56,-3.56,-3.56,-3.56,-3.56,-3.56,-3.56,-3.56,-3.56,-3.56,-3.56,-3.56,-3.56,-3.56,-3.56,-3.56,-3.56,-3.56,-3.56,-3.56,-3.56,-3.56,-3.56,-3.56,-3.4788,-3.3711,-3.2797,-3.2564,-3.2378,-3.165,-3.1464,-3.1413,-3.1241,-3.119,-3.119,-3.119,-3.119,-3.119,-3.119,-3.119,-3.119,-3.119,0.0,0.0,0.0,-3.119,-3.1258,-3.1427,-3.1464,-3.1752,-3.2479,-3.2564,-3.2848,-3.3609,-3.366,-3.39,-3.4477,-3.4527,-3.4712,-3.5121,-3.5293,-3.5362,-3.5362,-3.5352,-3.5689,-3.6298,-3.6625,-3.7044,-3.7562,-3.7725,-3.7688,-3.7515,-3.7515,-3.7427,-3.7265,-3.7265,-3.6905,-3.6337,-3.6337,-3.6006,-3.5504,-3.5504,-3.5504,-3.5504,-4.2144,-4.2382,-4.2559,-4.1958,-4.1402,-4.1018,-4.0972,-4.0995,-4.0827,-4.0303,-4.0672,-4.0774,-4.0229,-4.0121,-4.0096,-4.0096,-4.0096,-3.9462,-3.8007,-3.7905,-3.7229,-3.5667,-3.56,-3.56,-3.56,-3.56,-3.56,-3.56,-3.56,-3.56,-3.56,-3.56,-3.56,-3.56,-3.56,-3.56,-3.56,-3.56,-3.56,-3.56,-3.56,-3.56,-3.56,-3.56,-3.56,-3.56,-3.56,-3.56,-3.56,-3.56,-3.56,-3.56,-3.56,-3.56,-3.56,-3.56,-3.5515,-3.5126,-3.3711,-3.3322,-3.3136,-3.2412,-3.2226,-3.2039,-3.1362,-3.119,-3.119,-3.119,-3.119,-3.119,-3.119,-3.119,-3.119,-3.119,0.0,0.0,-3.119,-3.119,-3.1444,-3.2141,-3.2226,-3.2513,-3.3254,-3.3322,-3.3626,-3.4353,-3.4421,-3.4466,-3.4596,-3.4605,-3.4333,-3.3761,-3.4358,-3.4688,-3.4688,-3.466,-3.4705,-3.4786,-3.6075,-3.6738,-3.6794,-3.7495,-3.7393,-3.6691,-3.6691,-3.6306,-3.5683,-3.5683,-3.5651,-3.5587,-3.5587,-3.5569,-3.5504,-3.5504,-3.5504,-3.5504,-4.1895,-4.1979,-4.1958,-4.1358,-4.1064,-4.078,-4.0449,-4.0679,-4.0726,-4.0154,-4.0611,-4.0737,-4.0171,-4.0096,-4.0096,-4.0096,-3.969,-3.8988,-3.7973,-3.7466,-3.6738,-3.565,-3.56,-3.56,-3.56,-3.56,-3.56,-3.56,-3.56,-3.56,-3.56,-3.56,-3.56,-3.56,-3.56,-3.56,-3.56,-3.56,-3.56,-3.56,-3.56,-3.56,-3.56,-3.56,-3.56,-3.56,-3.56,-3.56,-3.56,-3.56,-3.56,-3.56,-3.56,-3.56,-3.56,-3.56,-3.56,-3.5481,-3.4906,-3.4438,-3.3914,-3.3169,-3.2983,-3.2899,-3.2628,-3.256,-3.256,-3.256,-3.256,-3.256,-3.256,-3.256,-3.256,-3.256,0.0,-3.256,-3.256,-3.256,-3.2662,-3.2949,-3.2983,-3.3271,-3.4015,-3.3701,-3.3783,-3.4522,-3.418,-3.3958,-3.3971,-3.3987,-3.3862,-3.3608,-3.3815,-3.4127,-3.4584,-3.4599,-3.5043,-3.5922,-3.6438,-3.6689,-3.6648,-3.6944,-3.6631,-3.5926,-3.5926,-3.575,-3.5504,-3.5504,-3.5504,-3.5504,-3.5504,-3.5504,-3.5504,-3.5504,-3.5504,-3.5504,-4.1331,-4.1402,-4.1335,-4.075,-4.0655,-4.0528,-4.0171,-4.0417,-4.0521,-4.0146,-4.0458,-4.0556,-4.0146,-4.0096,-4.0096,-4.0096,-3.9436,-3.8684,-3.7956,-3.6975,-3.618,-3.5616,-3.56,-3.56,-3.56,-3.56,-3.56,-3.56,-3.56,-3.56,-3.56,-3.56,-3.56,-3.56,-3.56,-3.56,-3.56,-3.56,-3.56,-3.56,-3.56,-3.56,-3.56,-3.56,-3.56,-3.56,-3.56,-3.56,-3.56,-3.56,-3.56,-3.56,-3.56,-3.56,-3.56,-3.56,-3.56,-3.56,-3.56,-3.5233,-3.4675,-3.3931,-3.3744,-3.3694,-3.3457,-3.3406,-3.3406,-3.3406,-3.3406,-3.3406,-3.3406,-3.3406,-3.3406,-3.3406,-3.322,-3.3091,-3.3091,-3.2906,-3.2857,-3.309,-3.3106,-3.3411,-3.4149,-3.3804,-3.3738,-3.4252,-3.3862,-3.3521,-3.3287,-3.3077,-3.3054,-3.3231,-3.3218,-3.3638,-3.4566,-3.4566,-3.5036,-3.6021,-3.6211,-3.6302,-3.6244,-3.6244,-3.5975,-3.5504,-3.5504,-3.5504,-3.5504,-3.5504,-3.5504,-3.5504,-3.5504,-3.5504,-3.5504,-3.5504,-3.5504,-3.5504,-4.0311,-4.0546,-4.0726,-4.0179,-4.0096,-4.0096,-4.0096,-4.0096,-4.0096,-4.0096,-4.0096,-4.0096,-4.0096,-4.0096,-4.0096,-4.0096,-3.9436,-3.8667,-3.7939,-3.6445,-3.56,-3.56,-3.56,-3.56,-3.56,-3.56,-3.56,-3.56,-3.56,-3.56,-3.56,-3.56,-3.56,-3.56,-3.56,-3.56,-3.56,-3.56,-3.56,-3.56,-3.56,-3.56,-3.56,-3.56,-3.56,-3.56,-3.56,-3.56,-3.56,-3.56,-3.56,-3.56,-3.56,-3.56,-3.56,-3.56,-3.56,-3.56,-3.56,-3.56,-3.5414,-3.4692,-3.4506,-3.432,-3.3592,-3.3423,-3.3423,-3.3423,-3.3423,-3.3423,-3.3423,-3.3423,-3.3423,-3.3402,-3.2835,-3.2416,-3.2416,-3.1844,-3.1677,-3.2419,-3.2499,-3.2796,-3.3518,-3.3598,-3.3582,-3.3582,-3.3582,-3.3287,-3.2614,-3.191,-3.1809,-3.2497,-3.2527,-3.3155,-3.4503,-3.4503,-3.4503,-3.4518,-3.5175,-3.5504,-3.5504,-3.5504,-3.5504,-3.5504,-3.5504,-3.5504,-3.5504,-3.5504,-3.5504,-3.5504,-3.5504,-3.5504,-3.5504,-3.5504,-3.5504,-3.5504,-4.0171,-4.0229,-4.0286,-4.0121,-4.0096,-4.0096,-4.0096,-4.0096,-4.0096,-4.0096,-4.0096,-4.0096,-4.0096,-4.0096,-3.9893,-3.9385,-3.865,-3.7686,-3.636,-3.5853,-3.56,-3.56,-3.56,-3.56,-3.56,-3.56,-3.56,-3.56,-3.56,-3.56,-3.56,-3.56,-3.56,-3.56,-3.56,-3.56,-3.56,-3.56,-3.56,-3.56,-3.56,-3.56,-3.56,-3.56,-3.56,-3.56,-3.56,-3.56,-3.56,-3.56,-3.56,-3.56,-3.56,-3.56,-3.56,-3.56,-3.527,-3.4894,-3.4894,-3.4544,-3.4374,-3.5093,-3.5261,-3.5194,-3.4991,-3.494,-3.494,-3.494,-3.494,-3.494,-3.494,-3.494,-3.479,-3.4316,-3.4067,-3.3784,-3.3323,-3.3074,-3.3013,-3.3262,-3.3278,-3.3358,-3.3566,-3.3156,-3.2895,-3.2895,-3.2422,-3.2048,-3.1853,-3.1611,-3.1809,-3.2497,-3.2961,-3.3619,-3.4503,-3.4503,-3.4758,-3.519,-3.54,-3.5504,-3.5504,-3.5504,-3.5504,-3.5504,-3.5504,-3.5504,-3.5504,-3.5504,-3.5504,-3.5504,-3.5504,-3.5504,-3.5504,-3.5504,-3.5504,-3.5504,-4.0096,-4.0096,-4.0096,-4.0096,-4.0096,-4.0096,-4.0096,-4.0096,-4.0096,-4.0096,-4.0096,-4.0096,-4.0096,-4.0096,-3.9808,-3.9056,-3.8058,-3.6941,-3.5667,-3.56,-3.56,-3.56,-3.56,-3.56,-3.56,-3.56,-3.56,-3.56,-3.56,-3.56,-3.56,-3.56,-3.56,-3.56,-3.56,-3.56,-3.56,-3.56,-3.56,-3.56,-3.56,-3.56,-3.56,-3.56,-3.56,-3.56,-3.56,-3.56,-3.56,-3.56,-3.56,-3.5538,-3.5293,-3.5207,-3.5144,-3.4887,-3.452,-3.4211,-3.4211,-3.3912,-3.3786,-3.4609,-3.4816,-3.4816,-3.4816,-3.4816,-3.4816,-3.4816,-3.4816,-3.4816,-3.4816,-3.4816,-3.4681,-3.426,-3.3987,-3.3659,-3.3261,-3.2944,-3.2772,-3.2772,-3.2772,-3.2772,-3.2772,-3.2394,-3.216,-3.216,-3.1739,-3.1511,-3.1511,-3.175,-3.2183,-3.2886,-3.3544,-3.4203,-3.4876,-3.4891,-3.51,-3.5504,-3.5504,-3.5504,-3.5504,-3.5504,-3.5504,-3.5504,-3.5504,-3.5504,-3.5504,-3.5504,-3.5504,-3.5504,-3.5504,-3.5504,-3.5504,-3.5504,-3.5504,-3.5504,-4.0096,-4.0096,-4.0096,-4.0096,-4.0096,-4.0096,-4.0096,-4.0096,-4.0096,-4.0096,-4.0096,-4.0096,-4.0096,-4.0096,-3.9791,-3.8954,-3.7557,-3.6366,-3.565,-3.56,-3.56,-3.56,-3.56,-3.56,-3.56,-3.56,-3.56,-3.56,-3.56,-3.56,-3.56,-3.56,-3.56,-3.56,-3.56,-3.56,-3.56,-3.56,-3.56,-3.56,-3.56,-3.56,-3.56,-3.56,-3.556,-3.5515,-3.5515,-3.5515,-3.5515,-3.5515,-3.5515,-3.5385,-3.4712,-3.4503,-3.4382,-3.3786,-3.3556,-3.3505,-3.3505,-3.3453,-3.3401,-3.3401,-3.3401,-3.3469,-3.3556,-3.3582,-3.3582,-3.3582,-3.3582,-3.3582,-3.3582,-3.3582,-3.3582,-3.3521,-3.2986,-3.2574,-3.252,-3.1923,-3.1511,-3.1511,-3.1511,-3.1511,-3.1511,-3.1511,-3.1511,-3.1511,-3.1511,-3.1525,-3.1585,-3.2153,-3.2841,-3.3559,-3.4158,-3.4801,-3.5489,-3.5504,-3.5504,-3.5504,-3.5504,-3.5504,-3.5504,-3.5504,-3.5504,-3.5504,-3.5504,-3.5504,-3.5504,-3.5504,-3.5504,-3.5504,-3.5504,-3.5504,-3.5504,-3.5504,-3.5504,-3.5504,-4.0096,-4.0096,-4.0096,-4.0096,-4.0096,-4.0096,-4.0096,-4.0096,-4.0096,-4.0096,-4.0096,-4.0096,-4.0096,-4.0096,-3.9571,-3.8261,-3.6755,-3.5785,-3.5616,-3.56,-3.56,-3.56,-3.56,-3.56,-3.56,-3.56,-3.56,-3.56,-3.56,-3.56,-3.56,-3.56,-3.56,-3.56,-3.56,-3.56,-3.56,-3.56,-3.56,-3.56,-3.56,-3.56,-3.56,-3.56,-3.5276,-3.4823,-3.4823,-3.4823,-3.4823,-3.4823,-3.4823,-3.4688,-3.4037,-3.3811,-3.3786,-3.3633,-3.3251,-3.2815,-3.2815,-3.2394,-3.1979,-3.1979,-3.1979,-3.2256,-3.3365,-3.3582,-3.3582,-3.3582,-3.3582,-3.3582,-3.3582,-3.3582,-3.3443,-3.2895,-3.2695,-3.241,-3.1824,-3.1611,-3.1511,-3.1511,-3.1511,-3.1511,-3.1511,-3.1511,-3.1511,-3.1511,-3.1511,-3.1735,-3.2243,-3.2407,-3.3051,-3.4264,-3.4429,-3.4801,-3.5489,-3.5504,-3.5504,-3.5504,-3.5504,-3.5504,-3.5504,-3.5504,-3.5504,-3.5504,-3.5504,-3.5504,-3.5504,-3.5504,-3.5504,-3.5504,-3.5504,-3.5504,-3.5504,-3.5504,-3.5504,-3.5504,-4.0096,-4.0096,-4.0096,-4.0096,-4.0096,-4.0096,-4.0096,-4.0096,-4.0096,-4.0096,-4.0096,-4.0096,-4.0096,-4.0096,-3.952,-3.8041,-3.6479,-3.56,-3.56,-3.56,-3.56,-3.56,-3.56,-3.56,-3.56,-3.56,-3.56,-3.56,-3.56,-3.56,-3.56,-3.56,-3.56,-3.56,-3.56,-3.56,-3.56,-3.56,-3.56,-3.56,-3.56,-3.56,-3.5577,-3.523,-3.4918,-3.4552,-3.4235,-3.4112,-3.4112,-3.4112,-3.4112,-3.4012,-3.3339,-3.3119,-3.3066,-3.2691,-3.2367,-3.2064,-3.2064,-3.1796,-3.1511,-3.1511,-3.1511,-3.1682,-3.2434,-3.261,-3.261,-3.261,-3.261,-3.261,-3.261,-3.261,-3.2489,-3.2132,-3.2064,-3.1923,-3.1553,-3.1511,-3.1511,-3.1511,-3.1511,-3.1511,-3.1511,-3.1511,-3.1511,-3.1511,-3.1795,-3.2123,-3.2467,-3.311,-3.3769,-3.4488,-3.4801,-3.5145,-3.5504,-3.5504,-3.5504,-3.5504,-3.5504,-3.5504,-3.5504,-3.5504,-3.5504,-3.5504,-3.5504,-3.5504,-3.5504,-3.5504,-3.5504,-3.5504,-3.5504,-3.5504,-3.5504,-3.5504,-3.5504,-3.5504,-4.0096,-4.0096,-4.0096,-4.0096,-4.0096,-4.0096,-4.0096,-4.0096,-4.0096,-4.0096,-4.0096,-4.0096,-4.0096,-3.9893,-3.9225,-3.8024,-3.6479,-3.56,-3.56,-3.56,-3.56,-3.56,-3.56,-3.56,-3.56,-3.56,-3.56,-3.56,-3.56,-3.56,-3.56,-3.56,-3.56,-3.56,-3.56,-3.56,-3.56,-3.56,-3.56,-3.56,-3.547,-3.5447,-3.5362,-3.4688,-3.4358,-3.4186,-3.3633,-3.3443,-3.3443,-3.3443,-3.3443,-3.3313,-3.2641,-3.241,-3.2299,-3.1697,-3.1511,-3.1511,-3.1511,-3.1511,-3.1511,-3.1511,-3.1511,-3.1511,-3.1511,-3.1511,-3.1511,-3.1511,-3.1511,-3.1511,-3.1511,-3.1511,-3.1511,-3.1511,-3.1511,-3.1511,-3.1511,-3.1511,-3.1511,-3.1511,-3.1511,-3.1511,-3.1511,-3.1511,-3.1555,-3.166,-3.2183,-3.2617,-3.2841,-3.3888,-3.4563,-3.4683,-3.5205,-3.5504,-3.5504,-3.5504,-3.5504,-3.5504,-3.5504,-3.5504,-3.5504,-3.5504,-3.5504,-3.5504,-3.5504,-3.5504,-3.5504,-3.5504,-3.5504,-3.5504,-3.5504,-3.5504,-3.5504,-3.5504,-3.5504,-3.5504,-4.0096,-4.0096,-4.0096,-4.0096,-4.0096,-4.0096,-4.0096,-4.0096,-4.0096,-4.0096,-4.0096,-4.0096,-4.0096,-3.8954,-3.8125,-3.7922,-3.6479,-3.56,-3.56,-3.56,-3.56,-3.56,-3.56,-3.56,-3.56,-3.56,-3.56,-3.56,-3.56,-3.56,-3.56,-3.56,-3.56,-3.56,-3.56,-3.56,-3.56,-3.56,-3.56,-3.5538,-3.4965,-3.4736,-3.4664,-3.3987,-3.3365,-3.2868,-3.2776,-3.2749,-3.2749,-3.2749,-3.2749,-3.2614,-3.1881,-3.164,-3.164,-3.1524,-3.1511,-3.1511,-3.1511,-3.1511,-3.1511,-3.1511,-3.1511,-3.1511,-3.1511,-3.1511,-3.1511,-3.1511,-3.1511,-3.1511,-3.1511,-3.1511,-3.1511,-3.1511,-3.1511,-3.1511,-3.1511,-3.1511,-3.1511,-3.1511,-3.1511,-3.1511,-3.1511,-3.1511,-3.1735,-3.2303,-3.2437,-3.3006,-3.4174,-3.4414,-3.4788,-3.5355,-3.5459,-3.5504,-3.5504,-3.5504,-3.5504,-3.5504,-3.5504,-3.5504,-3.5504,-3.5504,-3.5504,-3.5504,-3.5504,-3.5504,-3.5504,-3.5504,-3.5504,-3.5504,-3.5504,-3.5504,-3.5504,-3.5504,-3.5504,-3.5504,-4.0096,-4.0096,-4.0096,-4.0096,-4.0096,-4.0096,-4.0096,-4.0096,-4.0096,-4.0096,-4.0096,-4.0096,-4.0096,-3.8768,-3.7905,-3.7905,-3.6479,-3.56,-3.56,-3.56,-3.56,-3.56,-3.56,-3.56,-3.56,-3.56,-3.56,-3.56,-3.56,-3.56,-3.56,-3.56,-3.5385,-3.5052,-3.543,-3.5184,-3.4496,-3.4871,-3.4823,-3.4447,-3.4161,-3.4037,-3.3962,-3.3287,-3.2868,-3.2547,-3.2148,-3.1979,-3.1979,-3.1979,-3.1979,-3.1938,-3.1611,-3.1511,-3.1511,-3.1511,-3.1511,-3.1511,-3.1511,-3.1511,-3.1511,-3.1511,-3.1511,-3.1511,-3.1511,-3.1511,-3.1511,-3.1511,-3.1511,-3.1511,-3.1511,-3.1511,-3.1511,-3.1511,-3.1511,-3.1511,-3.1511,-3.1511,-3.1511,-3.1511,-3.1511,-3.1645,-3.2019,-3.2049,-3.2333,-3.3021,-3.341,-3.3858,-3.4474,-3.4846,-3.519,-3.5489,-3.5504,-3.5504,-3.5504,-3.5504,-3.5504,-3.5504,-3.5504,-3.5504,-3.5504,-3.5504,-3.5504,-3.5504,-3.5504,-3.5504,-3.5504,-3.5504,-3.5504,-3.5504,-3.5504,-3.5504,-3.5504,-3.5504,-3.5133,-3.4658]},{"header":{"parameterUnit":"m.s-1","parameterCategory":1,"la1":30.6,"la2":28.766,"lo1":-90.7593,"lo2":-88.6598,"dy":0.0162,"dx":0.0183,"nx":116,"ny":114,"refTime":"2023-07-24T06:00:00:Z","depth":0,"parameterNumber":3,"parameterNumberName":"V-component_of_WINDS"},"data":[0.0,0.0,0.0,0.0,0.0,0.0,0.0,0.0,0.0,0.0,0.0,0.0,0.0,0.0,0.0,0.0,0.0,0.0,0.0,0.0,0.0,0.0,0.0,0.0,0.0,0.0,0.0,0.0,0.0,0.0,0.0,0.0,0.0,0.0,0.0,0.0,0.0,0.0,0.0,0.0,0.0,0.0,0.0,0.0,0.0,0.0,0.0,0.0,0.0,0.0,0.0,0.0,0.0,0.0,0.0,0.0,0.0,0.0,0.0,0.0,0.0,0.0,0.0,0.0,0.0,0.0,0.0,0.0,0.0,0.0,0.0,0.0,0.0,0.0,0.0,0.0,0.0,0.0,0.0,0.0,0.0,0.0,0.0,0.0,0.0,0.0,0.0,0.0,0.0,0.0,0.0,0.0,0.0,0.0,0.0,0.0,0.0,0.0,0.0,0.0,0.0,0.0,0.0,0.0,0.0,0.0,0.0,0.0,0.0,0.0,0.0,0.0,0.0,0.0,0.0,0.0,0.0,0.0,0.0,0.0,0.0,0.0,0.0,0.0,0.0,0.0,0.0,0.0,0.0,0.0,0.0,0.0,0.0,0.0,0.0,0.0,0.0,0.0,0.0,0.0,0.0,0.0,0.0,0.0,0.0,0.0,0.0,0.0,0.0,0.0,0.0,0.0,0.0,0.0,0.0,0.0,0.0,0.0,0.0,0.0,0.0,0.0,0.0,0.0,0.0,0.0,0.0,0.0,0.0,0.0,0.0,0.0,0.0,0.0,0.0,0.0,0.0,0.0,0.0,0.0,0.0,0.0,0.0,0.0,0.0,0.0,0.0,0.0,0.0,0.0,0.0,0.0,0.0,0.0,0.0,0.0,0.0,0.0,0.0,0.0,0.0,0.0,0.0,0.0,0.0,0.0,0.0,0.0,0.0,0.0,0.0,0.0,0.0,0.0,0.0,0.0,0.0,0.0,0.0,0.0,0.0,0.0,0.0,0.0,0.0,0.0,0.0,0.0,0.0,0.0,0.0,0.0,0.0,0.0,0.0,0.0,0.0,0.0,0.0,0.0,0.0,0.0,0.0,0.0,0.0,0.0,0.0,0.0,0.0,0.0,0.0,0.0,0.0,0.0,0.0,0.0,0.0,0.0,0.0,0.0,0.0,0.0,0.0,0.0,0.0,0.0,0.0,0.0,0.0,0.0,0.0,0.0,0.0,0.0,0.0,0.0,0.0,0.0,0.0,0.0,0.0,0.0,0.0,0.0,0.0,0.0,0.0,0.0,0.0,0.0,0.0,0.0,0.0,0.0,0.0,0.0,0.0,0.0,0.0,0.0,0.0,0.0,0.0,0.0,0.0,0.0,0.0,0.0,0.0,0.0,0.0,0.0,0.0,0.0,0.0,0.0,0.0,0.0,0.0,0.0,0.0,0.0,0.0,0.0,0.0,0.0,0.0,0.0,0.0,0.0,0.0,0.0,0.0,0.0,0.0,0.0,0.0,0.0,0.0,0.0,0.0,0.0,0.0,0.0,0.0,0.0,0.0,0.0,0.0,0.0,0.0,0.0,0.0,0.0,0.0,0.0,0.0,0.0,0.0,0.0,0.0,0.0,0.0,0.0,0.0,0.0,0.0,0.0,0.0,0.0,0.0,0.0,0.0,0.0,0.0,0.0,0.0,0.0,0.0,0.0,0.0,0.0,0.0,0.0,0.0,0.0,0.0,0.0,0.0,0.0,0.0,0.0,0.0,0.0,0.0,0.0,0.0,0.0,0.0,0.0,0.0,0.0,0.0,0.0,0.0,0.0,0.0,0.0,0.0,0.0,0.0,0.0,0.0,0.0,0.0,0.0,0.0,0.0,0.0,0.0,0.0,0.0,0.0,0.0,0.0,0.0,0.0,0.0,0.0,0.0,0.0,0.0,0.0,0.0,0.0,0.0,0.0,0.0,0.0,0.0,0.0,0.0,0.0,0.0,0.0,0.0,0.0,0.0,0.0,0.0,0.0,0.0,0.0,0.0,0.0,0.0,0.0,0.0,0.0,0.0,0.0,0.0,0.0,0.0,0.0,0.0,0.0,0.0,0.0,0.0,0.0,0.0,0.0,0.0,0.0,0.0,0.0,0.0,0.0,0.0,0.0,0.0,0.0,0.0,0.0,0.0,0.0,0.0,0.0,0.0,0.0,0.0,0.0,0.0,0.0,0.0,0.0,0.0,0.0,0.0,0.0,0.0,0.0,0.0,0.0,0.0,0.0,0.0,0.0,0.0,0.0,0.0,0.0,0.0,0.0,0.0,0.0,0.0,0.0,0.0,0.0,0.0,0.0,0.0,0.0,0.0,0.0,0.0,0.0,0.0,0.0,0.0,0.0,0.0,0.0,0.0,0.0,0.0,0.0,0.0,0.0,0.0,0.0,0.0,0.0,0.0,0.0,0.0,0.0,0.0,0.0,0.0,0.0,0.0,0.0,0.0,0.0,0.0,0.0,0.0,0.0,0.0,0.0,0.0,0.0,0.0,0.0,0.0,0.0,0.0,0.0,0.0,0.0,0.0,0.0,0.0,0.0,0.0,0.0,0.0,0.0,0.0,0.0,0.0,0.0,0.0,0.0,0.0,0.0,0.0,0.0,0.0,0.0,0.0,0.0,0.0,0.0,0.0,0.0,0.0,0.0,0.0,0.0,0.0,0.0,0.0,0.0,0.0,0.0,0.0,0.0,0.0,0.0,0.0,0.0,0.0,0.0,0.0,0.0,0.0,0.0,0.0,0.0,0.0,0.0,0.0,0.0,0.0,0.0,0.0,0.0,0.0,0.0,0.0,0.0,0.0,0.0,0.0,0.0,0.0,0.0,0.0,0.0,0.0,0.0,0.0,0.0,0.0,0.0,0.0,0.0,0.0,0.0,0.0,0.0,0.0,0.0,0.0,0.0,0.0,0.0,0.0,0.0,0.0,0.0,0.0,0.0,0.0,0.0,0.0,0.0,0.0,0.0,0.0,0.0,0.0,0.0,0.0,0.0,0.0,0.0,0.0,0.0,0.0,0.0,0.0,0.0,0.0,0.0,0.0,0.0,0.0,0.0,0.0,0.0,0.0,0.0,0.0,0.0,0.0,0.0,0.0,0.0,0.0,0.0,0.0,0.0,0.0,0.0,0.0,0.0,0.0,0.0,0.0,0.0,0.0,0.0,0.0,0.0,0.0,0.0,0.0,0.0,0.0,0.0,0.0,0.0,0.0,0.0,0.0,0.0,0.0,0.0,0.0,0.0,0.0,0.0,0.0,0.0,0.0,0.0,0.0,0.0,0.0,0.0,0.0,0.0,0.0,0.0,0.0,0.0,0.0,0.0,0.0,0.0,0.0,0.0,0.0,0.0,0.0,0.0,0.0,0.0,0.0,0.0,0.0,0.0,0.0,0.0,0.0,0.0,0.0,0.0,0.0,0.0,0.0,0.0,0.0,0.0,0.0,0.0,0.0,0.0,0.0,0.0,0.0,0.0,0.0,0.0,0.0,0.0,0.0,0.0,0.0,0.0,0.0,0.0,0.0,0.0,0.0,0.0,0.0,0.0,0.0,0.0,0.0,0.0,0.0,0.0,0.0,0.0,0.0,0.0,0.0,0.0,0.0,0.0,0.0,0.0,0.0,0.0,0.0,0.0,0.0,0.0,0.0,0.0,0.0,0.0,0.0,0.0,0.0,0.0,0.0,0.0,0.0,0.0,0.0,0.0,0.0,0.0,0.0,0.0,0.0,0.0,0.0,0.0,0.0,0.0,0.0,0.0,0.0,0.0,0.0,0.0,0.0,0.0,0.0,0.0,0.0,0.0,0.0,0.0,0.0,0.0,0.0,0.0,0.0,0.0,0.0,0.0,0.0,0.0,0.0,0.0,0.0,0.0,0.0,0.0,0.0,0.0,0.0,0.0,0.0,0.0,0.0,0.0,0.0,0.0,0.0,0.0,0.0,0.0,0.0,0.0,0.0,0.0,0.0,0.0,0.0,0.0,0.0,0.0,0.0,0.0,0.0,0.0,0.0,0.0,0.0,0.0,0.0,0.0,0.0,0.0,0.0,0.0,0.0,0.0,0.0,0.0,0.0,0.0,0.0,0.0,0.0,0.0,0.0,0.0,0.0,0.0,0.0,0.0,0.0,0.0,0.0,0.0,0.0,0.0,0.0,0.0,0.0,0.0,0.0,0.0,0.0,0.0,0.0,0.0,0.0,0.0,0.0,0.0,0.0,0.0,0.0,0.0,0.0,0.0,0.0,0.0,0.0,0.0,0.0,0.0,0.0,0.0,0.0,0.0,0.0,0.0,0.0,0.0,0.0,0.0,0.0,0.0,0.0,0.0,0.0,0.0,0.0,0.0,0.0,0.0,0.0,0.0,0.0,0.0,0.0,0.0,0.0,0.0,0.0,0.0,0.0,0.0,0.0,0.0,0.0,0.0,0.0,0.0,0.0,0.0,0.0,0.0,0.0,0.0,0.0,0.0,0.0,0.0,0.0,0.0,0.0,0.0,0.0,0.0,0.0,0.0,0.0,0.0,0.0,0.0,0.0,0.0,0.0,0.0,0.0,0.0,0.0,0.0,0.0,0.0,0.0,0.0,0.0,0.0,0.0,0.0,0.0,0.0,0.0,0.0,0.0,0.0,0.0,0.0,0.0,0.0,0.0,0.0,0.0,0.0,0.0,0.0,0.0,0.0,0.0,0.0,0.0,0.0,0.0,0.0,0.0,0.0,0.0,0.0,0.0,0.0,0.0,0.0,0.0,0.0,0.0,0.0,0.0,0.0,0.0,0.0,0.0,0.0,0.0,0.0,0.0,0.0,0.0,0.0,0.0,0.0,0.0,0.0,0.0,0.0,0.0,0.0,0.0,0.0,0.0,0.0,0.0,0.0,0.0,0.0,0.0,0.0,0.0,0.0,0.0,0.0,0.0,0.0,0.0,0.0,0.0,0.0,0.0,0.0,0.0,0.0,0.0,0.0,0.0,0.0,0.0,0.0,0.0,0.0,0.0,0.0,0.0,0.0,0.0,0.0,0.0,0.0,0.0,0.0,0.0,0.0,0.0,0.0,0.0,0.0,0.0,0.0,0.0,0.0,0.0,0.0,0.0,0.0,0.0,0.0,0.0,0.0,0.0,0.0,0.0,0.0,0.0,0.0,0.0,0.0,0.0,0.0,0.0,0.0,0.0,0.0,0.0,0.0,0.0,0.0,0.0,0.0,0.0,0.0,0.0,0.0,0.0,0.0,0.0,0.0,0.0,0.0,0.0,0.0,0.0,0.0,0.0,0.0,0.0,0.0,0.0,0.0,0.0,0.0,0.0,0.0,0.0,0.0,0.0,0.0,0.0,0.0,0.0,0.0,0.0,0.0,0.0,0.0,0.0,0.0,0.0,0.0,0.0,0.0,0.0,0.0,0.0,0.0,0.0,0.0,0.0,0.0,0.0,0.0,0.0,0.0,0.0,0.0,0.0,0.0,0.0,0.0,0.0,0.0,0.0,0.0,0.0,0.0,0.0,0.0,0.0,0.0,0.0,0.0,0.0,0.0,0.0,0.0,0.0,0.0,0.0,0.0,0.0,0.0,0.0,0.0,0.0,0.0,0.0,0.0,0.0,0.0,0.0,0.0,0.0,0.0,0.0,0.0,0.0,0.0,0.0,0.0,0.0,0.0,0.0,0.0,0.0,0.0,0.0,0.0,0.0,0.0,0.0,0.0,0.0,0.0,0.0,0.0,0.0,0.0,0.0,0.0,0.0,0.0,0.0,0.0,0.0,0.0,0.0,0.0,0.0,0.0,0.0,0.0,0.0,0.0,0.0,0.0,0.0,0.0,0.0,0.0,0.0,0.0,0.0,0.0,0.0,0.0,0.0,0.0,0.0,0.0,0.0,0.0,0.0,0.0,0.0,0.0,0.0,0.0,0.0,0.0,0.0,0.0,0.0,0.0,0.0,0.0,0.0,0.0,0.0,0.0,0.0,0.0,0.0,0.0,0.0,0.0,0.0,0.0,0.0,0.0,0.0,0.0,0.0,0.0,0.0,0.0,0.0,0.0,0.0,0.0,0.0,0.0,0.0,0.0,0.0,0.0,0.0,0.0,0.0,0.0,0.0,0.0,0.0,0.53,0.0,0.0,0.0,0.0,0.0,0.0,0.0,0.0,0.0,0.0,0.0,0.0,0.0,0.0,0.0,0.0,0.0,0.0,0.0,0.0,0.0,0.0,0.0,0.0,0.0,0.0,0.0,0.0,0.0,0.0,0.0,0.0,0.0,0.0,0.0,0.0,0.0,0.0,0.0,0.0,0.0,0.0,0.0,0.0,0.0,0.0,0.0,0.0,0.0,0.0,0.0,0.0,0.0,0.0,0.0,0.0,0.0,0.0,0.0,0.0,0.0,0.0,0.0,0.0,0.0,0.0,0.0,0.0,0.0,0.0,0.0,0.0,0.0,0.0,0.0,0.0,0.0,0.0,0.0,0.0,0.0,0.0,0.0,0.0,0.0,0.0,0.0,0.0,0.0,0.0,0.0,0.0,0.0,0.0,0.0,0.0,0.0,0.0,0.0,0.0,0.0,0.0,0.0,0.0,0.0,0.0,0.0,0.0,0.0,0.0,0.0,0.0,0.0,0.0,0.0,0.0,0.5347,0.0,0.0,0.0,0.0,0.0,0.0,0.0,0.0,0.0,0.0,0.0,0.0,0.0,0.0,0.0,0.0,0.0,0.0,0.0,0.0,0.0,0.0,0.0,0.0,0.0,0.0,0.0,0.0,0.0,0.0,0.0,0.0,0.0,0.0,0.0,0.0,0.0,0.0,0.0,0.0,0.0,0.0,0.0,0.0,0.0,0.0,0.0,0.0,0.0,0.0,0.0,0.0,0.0,0.0,0.0,0.0,0.0,0.0,0.0,0.0,0.0,0.0,0.0,0.0,0.0,0.0,0.0,0.0,0.0,0.0,0.0,0.0,0.0,0.0,0.0,0.0,0.0,0.0,0.0,0.0,0.0,0.0,0.0,0.0,0.0,0.0,0.0,0.0,0.0,0.0,0.0,0.0,0.0,0.0,0.0,0.0,0.0,0.0,0.0,0.0,0.0,0.0,0.0,0.0,0.0,0.0,0.0,0.0,0.584,0.5857,0.5881,0.5854,0.584,0.5827,0.559,0.5457,0.5436,0.0,0.0,0.0,0.0,0.0,0.0,0.0,0.0,0.0,0.0,0.0,0.0,0.0,0.0,0.0,0.0,0.0,0.0,0.0,0.0,0.0,0.0,0.0,0.0,0.0,0.0,0.0,0.0,0.0,0.0,0.0,0.0,0.0,0.0,0.0,0.0,0.0,0.0,0.0,0.4103,0.5132,0.562,0.5642,0.6485,0.0,0.0,0.0,0.0,0.0,0.0,0.0,0.0,0.0,0.0,0.0,0.0,0.0,0.0,0.0,0.0,0.0,0.0,0.0,0.0,0.0,0.0,0.0,0.0,0.0,0.0,0.0,0.0,0.0,0.0,0.0,0.0,0.0,0.0,0.0,0.0,0.0,0.0,0.0,0.0,0.0,0.0,0.0,0.6019,0.5808,0.0,0.0,0.0,0.0,0.0,0.0,0.0,0.0,0.0,0.0,0.0,0.0,0.0,0.5772,0.5772,0.5793,0.5867,0.5963,0.5963,0.6067,0.6235,0.6061,0.5963,0.5952,0.5817,0.0,0.5559,0.5559,0.0,0.0,0.0,0.0,0.0,0.0,0.0,0.0,0.0,0.0,0.0,0.0,0.0,0.0,0.0,0.0,0.0,0.0,0.0,0.0,0.0,0.0,0.0,0.0,0.0,0.0,0.0,0.0,0.0,0.0,0.0,0.0,0.0,0.0,0.0,0.0,0.415,0.4105,0.3614,0.415,0.4374,0.4417,0.5571,0.639,0.6879,0.6858,0.0,0.0,0.0,0.0,0.0,0.0,0.0,0.0,0.0,0.0,0.0,0.0,0.0,0.0,0.0,0.0,0.0,0.0,0.0,0.0,0.0,0.0,0.0,0.0,0.0,0.0,0.0,0.0,0.0,0.0,0.0,0.0,0.0,0.0,0.0,0.0,0.0,0.0,0.0,0.6673,0.5833,0.5918,0.5854,0.58,0.0,0.0,0.0,0.0,0.0,0.0,0.0,0.0,0.0,0.6095,0.6135,0.6179,0.6179,0.6264,0.6342,0.6407,0.6407,0.6444,0.6505,0.6437,0.6407,0.6403,0.6335,0.6224,0.6067,0.5813,0.5671,0.561,0.0,0.0,0.0,0.0,0.5525,0.5511,0.0,0.0,0.0,0.0,0.0,0.0,0.0,0.0,0.0,0.0,0.0,0.0,0.0,0.0,0.0,0.0,0.0,0.0,0.0,0.0,0.0,0.0,0.0,0.0,0.0,0.0,0.0,0.0,0.2992,0.2999,0.27,0.3015,0.316,0.3177,0.4083,0.5233,0.6548,0.6807,0.6852,0.0,0.0,0.0,0.0,0.0,0.0,0.0,0.0,0.0,0.0,0.0,0.0,0.0,0.0,0.0,0.0,0.0,0.0,0.0,0.0,0.0,0.0,0.0,0.0,0.0,0.0,0.0,0.0,0.0,0.0,0.0,0.0,0.0,0.0,0.0,0.0,0.0,0.0,0.6389,0.5962,0.6074,0.5989,0.5935,0.0,0.0,0.0,0.0,0.0,0.0,0.6212,0.6219,0.6329,0.6481,0.6586,0.6644,0.6644,0.6756,0.6834,0.6871,0.6871,0.6892,0.6929,0.6888,0.6871,0.6868,0.6793,0.6695,0.6556,0.6142,0.5928,0.5861,0.5861,0.5837,0.5789,0.5684,0.5644,0.5627,0.0,0.0,0.0,0.0,0.0,0.0,0.0,0.0,0.0,0.0,0.0,0.0,0.0,0.0,0.0,0.0,0.0045,0.009,0.0,0.0,0.0,0.0,0.0,0.0,0.0,0.0,0.0,0.018,0.1344,0.1311,0.0185,0.1337,0.191,0.1897,0.1945,0.329,0.5528,0.664,0.7004,0.6873,0.0,0.0,0.0,0.0,0.0,0.0,0.0,0.0,0.0,0.0,0.0,0.0,0.0,0.0,0.0,0.0,0.0,0.0,0.0,0.0,0.0,0.0,0.0,0.0,0.0,0.0,0.0,0.0,0.0,0.0,0.0,0.0,0.0,0.0,0.0,0.0,0.0,0.0,0.0,0.6286,0.6282,0.0,0.0,0.0,0.0,0.6644,0.6654,0.6722,0.6832,0.6839,0.6906,0.7048,0.7058,0.7061,0.7061,0.7068,0.7193,0.7385,0.7385,0.7414,0.755,0.7404,0.7385,0.7368,0.7041,0.6869,0.6839,0.6566,0.6271,0.5979,0.5979,0.5928,0.58,0.5793,0.5789,0.5789,0.0,0.0,0.0,0.0,0.0,0.0,0.0,0.0,0.0,0.0,0.0,0.0,0.0,0.0,0.0,0.0,0.0,0.0,0.0,0.0,0.0,0.0,0.0,0.0,0.0,0.0,0.0,0.0,0.0409,0.0413,0.0,0.0422,0.0662,0.0667,0.1476,0.2735,0.4455,0.5542,0.6391,0.7014,0.6923,0.6865,0.0,0.0,0.0,0.0,0.0,0.0,0.0,0.0,0.0,0.0,0.0,0.0,0.0,0.0,0.0,0.0,0.0,0.0,0.0,0.0,0.0,0.0,0.0,0.0,0.0,0.0,0.0,0.0,0.0,0.0,0.0,0.0,0.0,0.0,0.0,0.0,0.0,0.6436,0.6525,0.0,0.6753,0.6766,0.6827,0.693,0.694,0.7051,0.7204,0.7214,0.7282,0.7431,0.7434,0.7434,0.7434,0.7434,0.7465,0.7519,0.7519,0.7546,0.7597,0.7543,0.7519,0.7512,0.7407,0.736,0.7353,0.7241,0.6905,0.6461,0.6461,0.6427,0.6366,0.6268,0.6234,0.6207,0.0,0.0,0.0,0.0,0.0,0.0,0.0,0.0,0.0,0.0,0.0,0.0,0.0,0.0,0.0,0.0,0.0,0.0,0.0,0.0,0.0,0.0,0.0,0.0,0.0,0.0,0.0,0.0,0.0,0.0,0.0,0.0,0.0,0.0049,0.0826,0.1934,0.3212,0.435,0.5782,0.7207,0.7014,0.6927,0.6862,0.0,0.0,0.0,0.0,0.0,0.0,0.0,0.0,0.0,0.0,0.0,0.0,0.0,0.0,0.0,0.0,0.0,0.0,0.0,0.0,0.0,0.0,0.0,0.0,0.0,0.0,0.0,0.0,0.0,0.0,0.0,0.0,0.0,0.0,0.0,0.6552,0.6614,0.6715,0.6858,0.7058,0.7078,0.7139,0.7237,0.725,0.736,0.7512,0.7519,0.759,0.7743,0.7746,0.7746,0.7746,0.7746,0.7746,0.7746,0.7746,0.7746,0.7746,0.7746,0.7746,0.7746,0.7692,0.7672,0.7665,0.7617,0.7363,0.6997,0.6946,0.6865,0.6766,0.6664,0.6593,0.6522,0.0,0.0,0.0,0.0,0.0,0.0,0.0,0.0,0.0,0.0,0.0,0.0,0.0,0.0,0.0,0.0,0.0,0.0,0.0,0.0,0.0,0.0,0.0,0.0,0.0,0.0,0.0,0.0,0.0,0.0,0.0,0.0,0.0,0.0,0.0,0.0699,0.1961,0.3229,0.521,0.7415,0.721,0.7018,0.6893,0.0,0.0,0.0,0.0,0.0,0.0,0.0,0.0,0.0,0.0,0.0,0.0,0.0,0.0,0.0,0.0,0.0,0.0,0.0,0.0,0.0,0.0,0.0,0.0,0.0,0.0,0.0,0.0,0.0,0.0,0.0,0.0,0.0,0.6525,0.6528,0.6607,0.6862,0.6903,0.7065,0.7402,0.7433,0.7448,0.76,0.7614,0.7675,0.7811,0.7818,0.7885,0.7985,0.7988,0.7988,0.7988,0.7988,0.7988,0.7988,0.7988,0.7988,0.7988,0.7988,0.7988,0.7982,0.7882,0.7818,0.7807,0.7672,0.7614,0.7597,0.7441,0.7204,0.6906,0.6906,0.6851,0.6715,0.0,0.0,0.0,0.0,0.0,0.0,0.0,0.0,0.0,0.0,0.0,0.0,0.0,0.0,0.0,0.0,0.0,0.0,0.0,0.0,0.0,0.0,0.0,0.0,0.0,0.0,0.0,0.0,0.0,0.0,0.0,0.0,0.0,0.0,0.0,0.1256,0.3437,0.3687,0.5289,0.7668,0.7411,0.7217,0.7028,0.0,0.0,0.0,0.0,0.0,0.0,0.0,0.0,0.0,0.0,0.0,0.0,0.0,0.0,0.0,0.0,0.0,0.0,0.0,0.0,0.0,0.0,0.0,0.0,0.0,0.0,0.0,0.0,0.0,0.0,0.0,0.0,0.6803,0.6803,0.6892,0.7031,0.7227,0.7346,0.7489,0.7672,0.7689,0.7753,0.7857,0.787,0.7887,0.7924,0.7928,0.7944,0.7988,0.7988,0.7988,0.7988,0.7988,0.7988,0.7988,0.7988,0.7988,0.7988,0.7988,0.7988,0.7988,0.7944,0.7928,0.7924,0.7884,0.787,0.7843,0.7638,0.7489,0.7417,0.7417,0.7248,0.6974,0.0,0.0,0.0,0.0,0.0,0.0,0.0,0.0,0.0,0.0,0.0,0.0,0.0,0.0,0.0,0.0,0.0,0.0,0.0,0.0,0.0,0.0,0.0,0.0,0.0,0.0,0.0,0.0,0.0,0.0,0.0,0.0,0.0,0.0,0.0,0.1159,0.3213,0.3674,0.5065,0.7015,0.7385,0.7428,0.7221,0.7031,0.6883,0.6776,0.6624,0.6515,0.6378,0.632,0.0,0.0,0.0,0.0,0.0,0.0,0.0,0.0,0.0,0.0,0.0,0.0,0.0,0.0,0.0,0.0,0.0,0.0,0.0,0.0,0.0,0.0,0.0,0.0,0.6956,0.7156,0.7282,0.7261,0.7316,0.7529,0.7634,0.7746,0.7892,0.7906,0.7894,0.7982,0.7988,0.7988,0.7988,0.7988,0.7988,0.7988,0.7988,0.7988,0.7988,0.7988,0.7988,0.7988,0.7988,0.7988,0.7988,0.7988,0.7988,0.0,0.7988,0.7988,0.7988,0.7988,0.7988,0.0,0.0,0.0,0.0,0.0,0.7485,0.7287,0.0,0.0,0.0,0.0,0.0,0.0,0.0,0.0,0.0,0.0,0.0,0.0,0.0,0.0,0.0,0.0,0.0,0.0,0.0,0.0,0.0,0.0,0.0,0.0,0.0,0.0,0.0,0.0,0.0,0.0,0.0,0.0,0.0,0.0,0.0151,0.0958,0.2314,0.3667,0.4922,0.6171,0.733,0.7634,0.7402,0.7217,0.7024,0.6869,0.6773,0.6617,0.6494,0.6368,0.0,0.0,0.0,0.0,0.0,0.0,0.0,0.0,0.0,0.0,0.0,0.0,0.0,0.0,0.0,0.0,0.0,0.0,0.0,0.0,0.0,0.0,0.0,0.0,0.7309,0.7512,0.7773,0.76,0.7543,0.7804,0.7838,0.7889,0.7975,0.7988,0.7995,0.8015,0.8015,0.8022,0.8039,0.0,0.0,0.0,0.0,0.8039,0.8039,0.8039,0.8032,0.8015,0.8015,0.8008,0.7988,0.7988,0.7988,0.7988,0.7988,0.7988,0.7988,0.7988,0.7988,0.7988,0.7988,0.7907,0.7821,0.7695,0.7638,0.7624,0.0,0.0,0.0,0.0,0.0,0.0,0.0,0.0,0.0,0.0,0.0,0.0,0.0,0.0,0.0,0.0,0.0,0.0,0.0,0.0,0.0,0.0,0.0,0.0,0.0,0.0,0.0,0.0,0.0,0.0,0.0,0.0,0.0,0.0051,0.1109,0.2363,0.3715,0.5022,0.6365,0.7585,0.7761,0.7634,0.7412,0.7336,0.716,0.6883,0.6852,0.6709,0.6508,0.648,0.6395,0.63,0.63,0.0,0.0,0.0,0.0,0.0,0.0,0.0,0.0,0.0,0.0,0.0,0.0,0.0,0.0,0.0,0.0,0.0,0.0,0.0,0.0,0.7322,0.755,0.7746,0.7801,0.7868,0.7884,0.7938,0.7944,0.7958,0.7985,0.7988,0.8092,0.8218,0.8225,0.8275,0.8391,0.8397,0.8397,0.8397,0.8397,0.8397,0.8397,0.8397,0.834,0.8225,0.0,0.0,0.7988,0.7988,0.7988,0.7988,0.7988,0.7988,0.7988,0.7988,0.7988,0.7988,0.7988,0.7971,0.7941,0.7914,0.7875,0.777,0.0,0.0,0.0,0.0,0.0,0.0,0.0,0.0,0.0,0.0,0.0,0.0,0.0,0.0,0.0,0.0,0.0,0.0,0.0,0.0,0.0,0.0,0.0,0.0,0.0,0.0,0.0,0.0,0.0,0.0,0.0,0.0,0.0353,0.1008,0.1711,0.3116,0.5022,0.5727,0.6781,0.7982,0.7907,0.775,0.7478,0.7446,0.7231,0.698,0.691,0.6831,0.6688,0.6614,0.6528,0.6405,0.6405,0.6358,0.63,0.0,0.0,0.0,0.0,0.0,0.0,0.0,0.0,0.0,0.0,0.0,0.0,0.0,0.0,0.7149,0.0,0.0,0.759,0.759,0.778,0.7877,0.7877,0.7941,0.7988,0.7988,0.7988,0.7988,0.7988,0.8109,0.8187,0.8316,0.8388,0.8408,0.8479,0.8482,0.8482,0.8482,0.8482,0.8482,0.8482,0.8482,0.8445,0.8377,0.8377,0.8299,0.8153,0.8153,0.8113,0.7988,0.7988,0.7988,0.7988,0.7988,0.7988,0.7988,0.7988,0.7988,0.7988,0.7988,0.7941,0.7877,0.0,0.0,0.0,0.0,0.0,0.0,0.0,0.0,0.0,0.0,0.0,0.0,0.0,0.0,0.0,0.0,0.0,0.0,0.0,0.0,0.0,0.0,0.0,0.0,0.0,0.0,0.0,0.0,0.0,0.0,0.0,0.0,0.0706,0.2013,0.2264,0.3718,0.6029,0.6279,0.7033,0.7988,0.7988,0.7816,0.7587,0.7461,0.7302,0.7082,0.6967,0.691,0.6866,0.6787,0.6644,0.6555,0.6555,0.6457,0.6347,0.6378,0.6364,0.0,0.0,0.0,0.0,0.0,0.0,0.0,0.0,0.0,0.7024,0.7051,0.7272,0.7458,0.7458,0.7675,0.7855,0.7855,0.7911,0.8002,0.8029,0.8032,0.8046,0.8073,0.8025,0.7988,0.7988,0.818,0.8333,0.8361,0.8445,0.854,0.857,0.857,0.857,0.857,0.857,0.857,0.857,0.857,0.8557,0.8526,0.8526,0.8452,0.8364,0.8333,0.8204,0.8032,0.8002,0.7988,0.7988,0.7988,0.7988,0.7988,0.7988,0.7988,0.7988,0.7988,0.7988,0.7988,0.0,0.0,0.0,0.0,0.0,0.0,0.0,0.0,0.0,0.0,0.0,0.0,0.0,0.0,0.0,0.0,0.0,0.0,0.0,0.0,0.0,0.0,0.0,0.0,0.0,0.0,0.0,0.0,0.0,0.0,0.0,0.0,0.0706,0.2063,0.3265,0.462,0.6079,0.7285,0.7889,0.7988,0.7988,0.7816,0.7597,0.758,0.7394,0.7095,0.7078,0.6994,0.6883,0.6866,0.6803,0.6675,0.6675,0.6569,0.6515,0.661,0.0,0.6518,0.6614,0.6651,0.6688,0.6841,0.6836,0.6949,0.0,0.0,0.736,0.7499,0.7651,0.7763,0.7763,0.7899,0.7965,0.7965,0.7978,0.8039,0.8225,0.8245,0.8292,0.8418,0.8201,0.7988,0.7988,0.818,0.8323,0.8448,0.8601,0.8743,0.8824,0.8834,0.8834,0.8834,0.8834,0.8834,0.8834,0.8834,0.8818,0.8682,0.8682,0.8604,0.8455,0.833,0.8313,0.8238,0.8099,0.7988,0.7988,0.7988,0.7988,0.7988,0.7988,0.7988,0.7988,0.7988,0.7988,0.7988,0.0,0.0,0.0,0.0,0.0,0.0,0.0,0.0,0.0,0.0,0.0,0.0,0.0,0.0,0.0,0.0,0.0,0.0,0.0,0.0,0.0,0.0,0.0,0.0,0.0,0.0,0.0,0.0,0.0,0.0,0.0,0.0807,0.1862,0.3215,0.457,0.5924,0.7185,0.7736,0.7988,0.7982,0.7894,0.7784,0.759,0.7502,0.7333,0.7095,0.7095,0.7058,0.0,0.0,0.6913,0.6834,0.6834,0.6729,0.6617,0.6681,0.6654,0.0,0.6793,0.6834,0.0,0.0,0.7187,0.7241,0.7455,0.7567,0.7645,0.7709,0.7841,0.7894,0.7894,0.7944,0.7988,0.0,0.7988,0.8092,0.8248,0.8323,0.8374,0.8465,0.8374,0.8296,0.8296,0.8435,0.855,0.8611,0.8757,0.8817,0.8878,0.8885,0.8885,0.8885,0.8885,0.8885,0.8885,0.8885,0.8851,0.879,0.879,0.8764,0.8615,0.8554,0.8431,0.8313,0.8106,0.7988,0.7988,0.7988,0.7988,0.7988,0.7988,0.7988,0.7988,0.7988,0.7988,0.7988,0.0,0.0,0.0,0.0,0.0,0.0,0.0,0.0,0.0,0.0,0.0,0.0,0.0,0.0,0.0,0.0,0.0,0.0,0.0,0.018,0.0,0.0,0.0,0.0,0.0,0.0,0.0,0.0,0.0,0.0149,0.0497,0.1545,0.2892,0.4533,0.5532,0.6679,0.7924,0.7884,0.787,0.786,0.7797,0.7668,0.7522,0.746,0.7275,0.7095,0.7095,0.7095,0.0,0.0,0.7028,0.6943,0.6943,0.6842,0.677,0.681,0.6851,0.6919,0.7071,0.0,0.0,0.7428,0.7492,0.7533,0.7685,0.7801,0.7875,0.7875,0.7914,0.7988,0.7988,0.7988,0.0,0.7988,0.8025,0.8157,0.8306,0.8367,0.8445,0.8591,0.8608,0.8608,0.8608,0.8669,0.871,0.871,0.8797,0.8885,0.8885,0.8885,0.8885,0.8885,0.8885,0.8885,0.8885,0.8885,0.8885,0.8885,0.8885,0.8824,0.8771,0.873,0.855,0.8316,0.815,0.8029,0.7988,0.7988,0.7988,0.7988,0.7988,0.7988,0.7988,0.7988,0.7988,0.7988,0.0,0.0,0.0,0.0,0.0,0.0,0.0,0.0,0.0,0.0,0.0,0.0,0.0,0.0,0.0,0.0,0.0,0.0,0.0,0.0628,0.0,0.0,0.0,0.0,0.0,0.0,0.0,0.0,0.0,0.062,0.1765,0.1942,0.3325,0.5764,0.5766,0.6546,0.7811,0.7672,0.7614,0.7611,0.7607,0.7516,0.7426,0.7419,0.7275,0.7095,0.7095,0.0,0.0,0.0,0.7092,0.7088,0.7088,0.6994,0.0,0.7045,0.7234,0.0,0.0,0.0,0.7614,0.7763,0.7797,0.7838,0.7941,0.7978,0.7982,0.7982,0.7985,0.7988,0.7988,0.7988,0.7988,0.7988,0.8167,0.8313,0.8455,0.8604,0.8754,0.8851,0.8868,0.8868,0.0,0.8794,0.871,0.871,0.8797,0.8885,0.8885,0.8885,0.8885,0.8885,0.8885,0.8885,0.8885,0.8885,0.8885,0.8885,0.8885,0.8881,0.8871,0.8777,0.855,0.8323,0.8316,0.8177,0.7988,0.7988,0.7988,0.7988,0.7988,0.7988,0.7988,0.7988,0.7988,0.7988,0.0,0.0,0.0,0.0,0.0,0.0,0.0,0.0,0.0,0.0,0.0,0.0,0.0,0.0,0.0,0.0,0.0,0.0,0.0,0.1777,0.121,0.121,0.0449,0.0,0.0,0.0,0.0,0.0,0.0,0.0619,0.1808,0.2774,0.4072,0.5696,0.6611,0.7238,0.7668,0.7617,0.76,0.759,0.7489,0.7463,0.7405,0.7258,0.7142,0.7095,0.0,0.0,0.0,0.0,0.7095,0.7095,0.7095,0.0,0.0,0.7248,0.7404,0.7553,0.0,0.0,0.7777,0.7877,0.7914,0.7928,0.7978,0.7988,0.7988,0.7988,0.7988,0.7988,0.7988,0.7988,0.7988,0.7988,0.8032,0.8201,0.8448,0.8526,0.8655,0.8854,0.8885,0.0,0.0,0.0,0.0,0.8807,0.8854,0.8885,0.8885,0.8885,0.8885,0.8885,0.8885,0.8885,0.8885,0.8885,0.8885,0.8885,0.8885,0.8885,0.8878,0.8781,0.8655,0.8554,0.8353,0.8241,0.8184,0.8032,0.7988,0.7988,0.7988,0.7988,0.7988,0.7988,0.7988,0.7988,0.0,0.0,0.0,0.0,0.0,0.0,0.0,0.0,0.0,0.0,0.0,0.0,0.0,0.0,0.0,0.0,0.0,0.0,0.0,0.0,0.2388,0.2388,0.125,0.0628,0.0628,0.0227,0.0,0.0,0.0,0.0839,0.2466,0.3371,0.4693,0.6287,0.7137,0.7519,0.7516,0.7458,0.7434,0.7428,0.7329,0.7288,0.7278,0.7132,0.7095,0.0,0.0,0.0,0.0,0.7095,0.0,0.0,0.0,0.7132,0.7255,0.7407,0.7556,0.7706,0.0,0.7892,0.7916,0.7965,0.7988,0.7988,0.7988,0.7988,0.7988,0.7988,0.7988,0.7988,0.7988,0.7988,0.7988,0.7988,0.8035,0.8208,0.8448,0.853,0.8659,0.8854,0.8885,0.0,0.0,0.0,0.0,0.8885,0.8885,0.8885,0.8885,0.8885,0.8885,0.8885,0.8885,0.8885,0.8885,0.8885,0.8885,0.8885,0.8885,0.8885,0.8878,0.8835,0.876,0.8699,0.8509,0.8367,0.8313,0.8163,0.8089,0.7988,0.7988,0.7988,0.7988,0.7988,0.7988,0.7988,0.0,0.0,0.0,0.0,0.0,0.0,0.0,0.0,0.0,0.0,0.0,0.0,0.0,0.0,0.0,0.0,0.0,0.0,0.0,0.0,0.0,0.3459,0.2473,0.1832,0.1787,0.0673,0.009,0.009,0.0045,0.1254,0.3705,0.3781,0.5055,0.7405,0.7405,0.7405,0.735,0.7204,0.7095,0.7095,0.7088,0.7085,0.7085,0.7078,0.0,0.0,0.0,0.0,0.0,0.0,0.0,0.0,0.0,0.0,0.746,0.7567,0.7709,0.7858,0.7961,0.7995,0.7992,0.8002,0.7995,0.7988,0.7988,0.7988,0.7988,0.7988,0.7988,0.7988,0.0,0.0,0.7988,0.7988,0.8163,0.8313,0.8462,0.8608,0.8757,0.0,0.0,0.0,0.0,0.0,0.0,0.8885,0.0,0.8885,0.8885,0.8885,0.8885,0.8885,0.8885,0.8885,0.8885,0.8885,0.8885,0.8885,0.8885,0.8885,0.8885,0.8885,0.8804,0.872,0.8713,0.8554,0.8344,0.833,0.8184,0.8002,0.7992,0.7988,0.7988,0.7988,0.7988,0.7988,0.0,0.0,0.0,0.0,0.0,0.0,0.0,0.0,0.0,0.0,0.0,0.0,0.0,0.0,0.0,0.0,0.0,0.0,0.0,0.0,0.0,0.0,0.0,0.0,0.0,0.0,0.0,0.0,0.0,0.1702,0.4912,0.4037,0.49,0.7156,0.7156,0.7156,0.7152,0.7112,0.7095,0.7088,0.0,0.694,0.6927,0.0,0.0,0.0,0.0,0.0,0.0,0.0,0.0,0.0,0.0,0.0,0.757,0.7716,0.7865,0.7965,0.817,0.8126,0.8019,0.8184,0.8126,0.7988,0.7988,0.7988,0.7988,0.7988,0.7988,0.7988,0.0,0.0,0.0,0.7988,0.8022,0.0,0.8445,0.8516,0.0,0.0,0.0,0.8885,0.8885,0.8885,0.0,0.0,0.8885,0.8885,0.8885,0.8885,0.8885,0.8885,0.8885,0.8885,0.8885,0.8885,0.8885,0.8885,0.8885,0.8885,0.8885,0.8885,0.8861,0.8817,0.876,0.8669,0.8581,0.836,0.8248,0.8201,0.8085,0.7988,0.7988,0.7988,0.7988,0.7988,0.0,0.0,0.0,0.0,0.0,0.0,0.0,0.0,0.0,0.0,0.0,0.0,0.0,0.0,0.0,0.0,0.0,0.0,0.0,0.0,0.0,0.0,0.0,0.0,0.0,0.0,0.0,0.0,0.0,0.0,0.0,0.4463,0.5354,0.7092,0.7031,0.7004,0.7001,0.6933,0.0,0.0,0.0,0.0,0.0,0.0,0.0,0.0,0.0,0.0,0.0,0.0,0.0,0.7031,0.7221,0.7421,0.7628,0.777,0.0,0.8022,0.8228,0.8157,0.8025,0.8231,0.8153,0.7988,0.7988,0.7938,0.7891,0.7891,0.784,0.0,0.0,0.0,0.0,0.0,0.0,0.0,0.8357,0.8442,0.857,0.0,0.8844,0.0,0.8885,0.8885,0.8885,0.0,0.8885,0.8885,0.8885,0.8885,0.8885,0.8885,0.8885,0.8885,0.8885,0.8885,0.8885,0.8885,0.8885,0.8885,0.8885,0.8885,0.8885,0.8878,0.0,0.8771,0.8699,0.8533,0.8387,0.8313,0.8174,0.8099,0.7988,0.7988,0.7988,0.7988,0.0,0.0,0.0,0.0,0.0,0.0,0.0,0.0,0.0,0.0,0.0,0.0,0.0,0.0,0.0,0.0,0.0,0.0,0.0,0.0,0.0,0.0,0.0,0.0,0.0,0.0,0.0,0.0,0.0,0.0,0.0,0.0,0.0,0.0,0.0,0.0,0.0,0.0,0.0,0.0,0.0,0.0,0.0,0.0,0.0,0.0,0.0,0.0,0.0,0.0,0.677,0.6913,0.7075,0.737,0.7631,0.7794,0.7887,0.8022,0.8228,0.8157,0.8025,0.8231,0.8153,0.7988,0.7988,0.7874,0.7811,0.7811,0.0,0.0,0.76,0.0,0.779,0.7807,0.0,0.8069,0.8245,0.8391,0.8537,0.8693,0.879,0.8885,0.8885,0.8885,0.8885,0.8885,0.8885,0.8885,0.8885,0.8885,0.8885,0.8885,0.8885,0.8885,0.8885,0.8885,0.8885,0.8885,0.8885,0.8885,0.8885,0.8885,0.8885,0.8885,0.0,0.0,0.8737,0.872,0.856,0.8326,0.8337,0.8187,0.8019,0.7995,0.7988,0.7988,0.0,0.0,0.0,0.0,0.0,0.0,0.0,0.0,0.0,0.0,0.0,0.0,0.0,0.0,0.0,0.0,0.0,0.0,0.0,0.0,0.0,0.0,0.0,0.0,0.0,0.0,0.0,0.0,0.0,0.0,0.0,0.0,0.0,0.0,0.0,0.0,0.0,0.0,0.0,0.0,0.0,0.0,0.0,0.0,0.0,0.0,0.0,0.0,0.0,0.0,0.66,0.6933,0.7244,0.7455,0.7651,0.7874,0.7968,0.8022,0.8228,0.8157,0.8025,0.8231,0.8153,0.7988,0.7988,0.7874,0.0,0.0,0.0,0.76,0.76,0.7617,0.0,0.779,0.0,0.0,0.0,0.0,0.8537,0.0,0.0,0.0,0.0,0.0,0.0,0.0,0.0,0.8885,0.8885,0.8885,0.8885,0.8885,0.8885,0.8885,0.8885,0.8885,0.8885,0.8885,0.8885,0.8885,0.8885,0.8885,0.8885,0.8885,0.8885,0.0,0.8834,0.8764,0.8679,0.8611,0.8367,0.8255,0.8214,0.8039,0.7988,0.7988,0.0,0.0,0.0,0.0,0.0,0.0,0.0,0.0,0.0,0.0,0.0,0.0,0.0,0.0,0.0,0.0,0.0,0.0,0.0,0.0,0.0,0.0,0.0,0.0,0.0,0.0,0.0,0.0,0.0,0.0,0.0,0.0,0.0,0.0,0.0,0.0,0.0,0.0,0.0,0.0,0.0,0.0,0.0,0.0,0.0,0.0,0.0,0.0,0.0,0.0,0.6494,0.6756,0.7132,0.7411,0.7658,0.7904,0.7988,0.8022,0.8228,0.8157,0.8025,0.8231,0.8153,0.7968,0.7891,0.0,0.0,0.0,0.0,0.736,0.736,0.0,0.0,0.0,0.0,0.0,0.0,0.0,0.0,0.0,0.0,0.0,0.0,0.0,0.0,0.0,0.0,0.8885,0.8885,0.8885,0.8885,0.8885,0.8885,0.8885,0.8885,0.8885,0.8885,0.8885,0.8885,0.8885,0.8885,0.8885,0.8885,0.8885,0.8885,0.0,0.8878,0.8804,0.8781,0.8696,0.8554,0.8408,0.8313,0.8187,0.8109,0.8088,0.0,0.0,0.0,0.0,0.0,0.0,0.0,0.0,0.0,0.0,0.0,0.0,0.0,0.0,0.0,0.0,0.0,0.0,0.0,0.0,0.0,0.0,0.0,0.0,0.0,0.0,0.0,0.0,0.0,0.0,0.0,0.0,0.0,0.0,0.0,0.0,0.0,0.0,0.0,0.0,0.0,0.0,0.0,0.0,0.0,0.0,0.0,0.0,0.0,0.0,0.6702,0.6903,0.7261,0.7483,0.7607,0.7853,0.7965,0.8015,0.8187,0.8133,0.8019,0.8191,0.8106,0.7911,0.7838,0.7675,0.0,0.0,0.7248,0.7095,0.7095,0.0,0.0,0.0,0.0,0.0,0.0,0.0,0.0,0.0,0.0,0.0,0.0,0.0,0.0,0.0,0.0,0.0,0.8885,0.8885,0.8885,0.8885,0.8885,0.8885,0.8885,0.8885,0.8885,0.8885,0.8885,0.8885,0.8885,0.8885,0.8885,0.8885,0.8885,0.0,0.0,0.8885,0.903,0.9233,0.9201,0.9173,0.9222,0.9188,0.9017,0.897,0.0,0.0,0.0,0.0,0.0,0.0,0.0,0.0,0.0,0.0,0.0,0.0,0.0,0.0,0.0,0.0,0.0,0.0,0.0,0.0,0.0,0.0,0.0,0.0,0.0,0.0,0.0,0.0,0.0,0.0,0.0,0.0,0.0,0.0,0.0,0.0,0.0,0.0,0.0,0.0,0.0,0.0,0.0,0.0,0.0,0.0,0.0,0.0,0.0,0.0,0.0,0.7917,0.8178,0.7893,0.7451,0.7746,0.0,0.0,0.8008,0.8002,0.7992,0.8008,0.7943,0.7828,0.7814,0.0,0.0,0.0,0.7248,0.7095,0.7095,0.7109,0.7207,0.0,0.0,0.0,0.0,0.0,0.0,0.0,0.0,0.0,0.0,0.0,0.0,0.0,0.0,0.0,0.8885,0.8885,0.8885,0.8885,0.8885,0.8885,0.8885,0.8885,0.8885,0.8885,0.8885,0.8885,0.8885,0.8885,0.8885,0.8885,0.8885,0.0,0.0,0.8885,0.9691,1.0849,1.0729,1.1326,1.2184,1.2048,1.184,1.1556,0.0,0.0,0.0,0.0,0.0,0.0,0.0,0.0,0.0,0.0,0.0,0.0,0.0,0.0,0.0,0.0,0.0,0.0,0.0,0.0,0.0,0.0,0.0,0.0,0.0,0.0,0.0,0.0,0.0,0.0,0.0,0.0,0.0,0.0,0.0,0.0,0.0,0.0,0.0,0.0,0.0,0.0,0.0,0.0,0.0,0.0,0.0,0.0,0.0,0.0,0.0,0.0,0.8309,0.8038,0.0,0.0,0.7787,0.7902,0.7902,0.7921,0.7968,0.7877,0.7858,0.7767,0.7587,0.0,0.0,0.7251,0.7139,0.7095,0.7095,0.7095,0.7115,0.0,0.0,0.0,0.0,0.0,0.0,0.0,0.0,0.0,0.0,0.0,0.0,0.0,0.0,0.0,0.8885,0.8885,0.8885,0.8885,0.8885,0.8885,0.8885,0.8885,0.8885,0.8885,0.8885,0.8885,0.8885,0.8885,0.8885,0.8885,0.8885,0.0,0.0,1.0241,1.1105,1.2394,1.2363,1.2568,1.2816,1.2598,1.2379,1.2275,0.0,0.0,0.0,0.0,0.0,0.0,0.0,0.0,0.0,0.0,0.0,0.0,0.0,0.0,0.0,0.0,0.0,0.0,0.0,0.0,0.0,0.0,0.0,0.0,0.0,0.0,0.0,0.0,0.0,0.0,0.0,0.0,0.0,0.0,0.0,0.0,0.0,0.0,0.0,0.0,0.0,0.0,0.0,0.0,0.0,0.0,0.0,0.0,0.0,0.0,0.0,0.0,0.0,0.0,0.0,0.0,0.7567,0.7692,0.7736,0.7828,0.7882,0.7777,0.7716,0.7628,0.0,0.0,0.7272,0.7119,0.7095,0.7095,0.7095,0.7095,0.7095,0.0,0.0,0.0,0.0,0.0,0.0,0.0,0.0,0.0,0.0,0.0,0.0,0.0,0.0,0.0,0.0,0.8885,0.8885,0.8885,0.8885,0.8885,0.8885,0.8885,0.8885,0.8885,0.8885,0.8885,0.8885,0.8885,0.8885,0.8885,0.0,0.0,0.0,1.1105,1.2186,1.3911,1.3911,1.4034,1.4208,1.3912,1.3679,1.3639,0.0,0.0,0.0,0.0,0.0,0.0,0.0,0.0,0.0,0.0,0.0,0.0,0.0,0.0,0.0,0.0,0.0,0.0,0.0,0.0,0.0,0.0,0.0,0.0,0.0,0.0,0.0,0.0,0.0,0.0,0.0,0.0,0.0,0.0,0.0,0.0,0.0,0.0,0.0,0.0,0.0,0.0,0.0,0.0,0.0,0.0,0.0,0.0,0.0,0.0,0.0,0.0,0.0,0.0,0.0,0.0,0.7255,0.7453,0.756,0.7604,0.7604,0.76,0.7489,0.7419,0.0,0.0,0.7098,0.7095,0.7095,0.7095,0.7095,0.7095,0.7095,0.7095,0.0,0.0,0.0,0.0,0.0,0.0,0.0,0.0,0.0,0.0,0.0,0.0,0.0,0.0,0.0,0.8885,0.8885,0.8885,0.8885,0.8885,0.8885,0.8885,0.8885,0.8885,0.8885,0.8885,0.8885,0.8885,0.8885,0.0,0.0,0.0,0.0,1.1105,1.2778,1.5364,1.5364,1.6119,1.7114,1.6763,1.647,1.6233,0.0,0.0,0.0,0.0,0.0,0.0,0.0,0.0,0.0,0.0,0.0,0.0,0.0,0.0,0.0,0.0,0.0,0.0,0.0,0.0,0.0,0.0,0.0,0.0,0.0,0.0,0.0,0.6101,0.6101,0.0,0.0,0.0,0.0,0.0,0.0,0.0,0.0,0.0,0.0,0.0,0.0,0.0,0.0,0.0,0.0,0.0,0.0,0.0,0.0,0.0,0.0,0.0,0.0,0.0,0.0,0.0,0.0,0.0,0.7129,0.7166,0.7216,0.7166,0.7177,0.7187,0.7092,0.7061,0.7095,0.7095,0.7095,0.7095,0.7095,0.7095,0.7095,0.7095,0.7136,0.0,0.0,0.0,0.0,0.0,0.0,0.0,0.0,0.0,0.0,0.0,0.0,0.0,0.0,0.8885,0.8885,0.8885,0.8885,0.8885,0.8885,0.8885,0.8885,0.8885,0.8885,0.8885,0.8885,0.8885,0.0,0.0,0.0,0.0,0.0,1.4019,1.515,1.6876,1.6876,1.7147,1.7388,1.6887,1.6647,1.65,0.0,0.0,0.0,0.0,0.0,0.0,0.0,0.0,0.0,0.0,0.0,0.0,0.0,0.0,0.0,0.0,0.0,0.0,0.0,0.0,0.0,0.0,0.0,0.0,0.0,0.0,0.5793,0.5905,0.5963,0.6266,0.6741,0.0,0.0,0.0,0.0,0.0,0.0,0.0,0.0,0.0,0.0,0.0,0.9334,0.0,0.0,0.0,0.0,0.0,0.0,0.0,0.0,0.0,0.0,0.0,0.0,0.0,0.8462,0.0,0.0,0.6866,0.691,0.6865,0.6866,0.0,0.0,0.7161,0.7397,0.7016,0.7271,0.74,0.7016,0.693,0.695,0.7007,0.7018,0.0,0.0,0.0,0.0,0.0,0.0,0.0,0.0,0.0,0.0,0.0,0.0,0.0,0.0,0.8885,0.8885,0.8885,0.8885,0.8885,0.8885,0.8885,0.8885,0.8885,0.8885,0.8885,0.8885,0.8885,0.0,0.0,0.0,0.0,0.0,1.5198,1.628,1.7582,1.7582,1.7515,1.7414,1.6881,1.664,1.6473,0.0,0.0,0.0,0.0,0.0,0.0,0.0,0.0,0.0,0.0,0.0,0.0,0.0,0.0,0.0,0.0,0.0,0.0,0.0,0.0,0.0,0.0,0.0,0.0,0.0,0.5641,0.5748,0.5893,0.6072,0.6622,0.7552,0.7782,0.0,0.0,0.0,0.0,0.0,1.0527,1.0901,1.0901,1.0901,1.034,0.0,0.0,0.0,0.0,0.0,0.0,0.0,0.0,0.0,0.0,0.0,0.0,0.0,0.0,0.0,0.0,0.0,0.0,0.0,0.0,0.0,0.0,0.0,0.763,0.0,0.7109,0.7596,0.7922,0.6988,0.675,0.6763,0.6862,0.6903,0.0,0.0,0.0,0.0,0.0,0.0,0.0,0.0,0.0,0.0,0.0,0.0,0.0,0.0,0.8885,0.8885,0.8885,0.8885,0.8885,0.8885,0.8885,0.8885,0.8885,0.8885,0.8885,0.8885,0.8885,0.0,0.0,0.0,0.0,0.0,1.4984,1.6333,1.7582,1.7562,1.744,1.7166,1.6794,1.6506,1.6226,0.0,0.0,0.0,0.0,0.0,0.0,0.0,0.0,0.0,0.0,0.0,0.0,0.0,0.0,0.0,0.0,0.0,0.0,0.0,0.0,0.0,0.0,0.0,0.0,0.0,0.6103,0.6516,0.6625,0.7324,0.7841,0.8203,0.8449,0.8692,0.8955,0.999,1.0864,1.1626,1.1848,1.1959,1.1959,1.1959,1.1811,0.0,0.0,0.0,0.0,1.2224,1.2305,0.0,0.0,0.0,0.0,0.0,0.0,0.0,0.0,1.0078,0.9208,0.8807,0.0,0.8487,0.7719,0.0,0.0,0.0,0.0,0.9258,0.0,0.0,0.0,0.7881,0.7293,0.6846,0.6879,0.0,0.0,0.0,0.0,0.0,0.0,0.0,0.0,0.0,0.0,0.0,0.0,0.0,0.0,0.0,0.8885,0.8885,0.8885,0.8885,0.8885,0.8885,0.8885,0.8885,0.8885,0.8885,0.8885,0.8885,0.8885,0.0,0.0,0.0,0.0,1.5043,1.6499,1.7312,1.7562,1.7387,1.7266,1.7139,1.6567,1.6333,1.6226,0.0,0.0,0.0,0.0,0.0,0.0,0.0,0.0,0.0,0.0,0.0,0.0,0.0,0.0,0.0,0.0,0.0,0.0,0.0,0.0,0.0,0.0,0.0,0.0,0.0,0.6268,0.6738,0.6806,0.774,0.8458,0.8988,0.9219,0.9636,1.0263,1.112,1.1734,1.2111,1.2245,1.2305,1.2305,1.2305,0.0,0.0,0.0,0.0,0.0,1.2305,1.2305,0.0,1.2305,1.2305,1.2305,0.0,0.0,0.0,0.0,1.1093,1.0571,1.0121,0.9669,0.9183,0.8618,0.8961,0.9391,0.0,0.0,0.0,0.0,0.0,0.0,0.0,0.0,0.0,0.0,0.0,0.0,0.0,0.0,0.0,0.0,0.0,0.0,0.0,0.0,0.0,0.0,0.0,0.0,0.0,0.8885,0.8885,0.8885,0.8814,0.8814,0.8885,0.8885,0.8885,0.8885,0.8885,0.8885,0.8885,0.8885,0.9316,0.0,0.0,0.0,1.4609,1.6717,1.7554,1.742,1.7266,1.7038,1.6757,1.6442,1.6186,1.6046,0.0,0.0,0.0,0.0,0.0,0.0,0.0,0.0,0.0,0.0,0.0,0.0,0.0,0.0,0.0,0.0,0.0,0.0,0.0,0.0,0.0,0.0,0.0,0.0,0.562,0.6465,0.6981,0.7111,0.8087,0.8986,0.9835,0.998,1.0719,1.1919,1.2171,1.2164,1.1986,1.2198,1.2305,1.2305,1.2305,0.0,0.0,0.0,0.0,0.0,0.0,0.0,0.0,1.2305,1.2305,1.2305,1.2305,0.0,0.0,0.0,0.0,0.0,1.1279,1.0421,0.9712,0.9556,0.9636,0.975,0.0,0.0,0.0,0.0,0.0,0.0,0.0,0.0,0.0,0.0,0.0,0.0,0.0,0.0,0.0,0.0,0.0,0.0,0.0,0.0,0.0,0.0,0.0,0.0,0.0,0.8828,0.8814,0.8814,0.8743,0.8737,0.8814,0.8838,0.8848,0.8848,0.8871,0.8885,0.8885,0.8885,0.8871,0.0,0.0,0.0,1.3378,1.6051,1.7146,1.7125,1.7085,1.6764,1.6266,1.6219,1.6046,1.5784,0.0,0.0,0.0,0.0,0.0,0.0,0.0,0.0,0.0,0.0,0.0,0.0,0.0,0.0,0.0,0.0,0.0,0.0,0.0,0.0,0.0,0.0,0.0,0.0,0.0,0.0,0.0,0.0,0.0,1.0302,1.0469,1.0719,1.1207,1.1919,1.2171,1.2278,1.2238,1.2285,1.2305,1.2305,1.2305,0.0,0.0,0.0,0.0,0.0,0.0,0.0,0.0,1.2305,1.2305,1.2305,1.2305,0.0,0.0,0.0,0.0,0.0,1.2114,1.1966,1.1626,1.0789,1.1205,1.1848,0.0,0.0,0.0,0.0,0.0,0.0,0.0,0.0,0.0,0.0,0.0,0.0,0.0,0.0,0.0,0.0,0.0,0.0,0.0,0.0,0.0,0.0,0.0,0.0,0.0,0.8621,0.8554,0.8554,0.853,0.8526,0.8554,0.8679,0.8747,0.8747,0.8821,0.8885,0.8885,0.8885,0.8814,0.0,0.0,1.1824,1.2853,1.4555,1.5828,1.6747,1.6549,1.6402,1.6295,1.5992,1.5824,1.5784,0.0,0.0,0.0,0.0,0.0,0.0,0.0,0.0,0.0,0.0,0.0,0.0,0.0,0.0,0.0,0.0,0.0,0.0,0.0,0.0,0.0,0.0,0.0,0.0,0.0,0.0,0.0,0.0,0.0,1.0593,1.06,1.0855,1.1136,1.1416,1.1864,1.2064,1.2078,1.2238,1.2305,1.2305,0.0,0.0,0.0,0.0,0.0,0.0,0.0,0.0,0.0,0.0,1.2305,1.2305,1.2305,0.0,0.0,0.0,0.0,0.0,1.2305,1.2305,1.2187,1.1731,1.1959,1.2305,1.2305,0.0,0.0,0.0,0.0,0.0,0.0,0.0,0.0,0.0,0.0,0.0,0.0,0.0,0.0,0.0,0.0,0.0,0.0,0.0,0.0,0.0,0.0,0.0,0.0,0.0,0.8482,0.8482,0.8408,0.8367,0.8367,0.8438,0.8513,0.8587,0.8659,0.8693,0.8693,0.8693,0.8655,0.8694,0.0,1.2119,1.2746,1.4951,1.6095,1.646,1.6375,1.6172,1.6019,1.5879,1.5784,1.5784,0.0,0.0,0.0,0.0,0.0,0.0,0.0,0.0,0.0,0.0,0.0,0.0,0.0,0.0,0.0,0.0,0.0,0.0,0.0,0.0,0.0,0.0,0.0,0.0,0.0,0.0,0.9402,0.9594,1.0269,1.0593,1.06,1.0929,1.1096,1.1122,1.171,1.2007,1.202,1.2204,1.2305,1.2305,0.0,0.0,0.0,0.0,0.0,0.0,0.0,0.0,0.0,0.0,0.0,0.0,0.0,0.0,0.0,1.2305,1.2305,1.2305,1.2305,1.2305,1.2305,1.2305,0.0,1.2305,1.2305,0.0,0.0,0.0,0.0,0.0,0.0,0.0,0.0,0.0,0.0,0.0,0.0,0.0,0.0,0.0,0.0,0.0,0.0,0.0,0.0,0.0,0.0,0.0,0.0,0.0,0.8377,0.8377,0.8272,0.8218,0.8218,0.8218,0.8289,0.8431,0.8465,0.8482,0.8482,0.8482,0.8465,0.8588,1.0986,1.2181,1.2592,1.5027,1.6114,1.6166,1.6166,1.6032,1.5784,1.5784,1.5784,1.5784,0.0,0.0,0.0,0.0,0.0,0.0,0.0,0.0,0.0,0.0,0.0,0.0,0.0,0.0,0.0,0.0,0.0,0.0,0.0,0.0,0.0,0.0,0.0,0.0,0.0,0.8812,0.969,1.0498,1.0561,1.0593,1.06,1.1136,1.1362,1.1382,1.2011,1.2271,1.2271,1.2291,1.2305,1.2305,1.2305,0.0,0.0,0.0,0.0,0.0,0.0,0.0,0.0,0.0,0.0,0.0,0.0,0.0,1.2305,1.2305,1.2305,1.2305,1.2305,1.2305,1.2305,1.2305,0.0,0.0,1.2305,1.2556,0.0,0.0,0.0,0.0,0.0,0.0,0.0,0.0,0.0,0.0,0.0,0.0,0.0,0.0,0.0,0.0,0.0,0.0,0.0,0.0,0.0,0.0,0.0,0.0,0.0,0.8022,0.8012,0.8005,0.8005,0.8005,0.8133,0.834,0.8418,0.8482,0.8482,0.8482,0.8411,0.8385,0.9786,1.0984,1.2039,1.3497,1.4802,1.5865,1.5865,1.5798,1.5784,1.5784,1.5784,1.5784,0.0,0.0,0.0,0.0,0.0,0.0,0.0,0.0,0.0,0.0,0.0,0.0,0.0,0.0,0.0,0.0,0.0,0.0,0.0,0.0,0.0,0.0,0.0,0.8812,0.8812,0.9658,1.0269,1.0593,1.0593,1.0593,1.06,1.0969,0.0,0.0,1.185,1.2131,1.2305,1.2305,1.2305,1.2305,1.2305,1.2305,0.0,0.0,0.0,0.0,0.0,0.0,0.0,0.0,1.2305,1.2305,0.0,1.2305,1.2305,1.2305,1.2305,1.2305,1.2305,1.2305,1.2305,1.2305,0.0,0.0,0.0,0.0,0.0,0.0,0.0,0.0,0.0,0.0,0.0,0.0,0.0,0.0,0.0,0.0,0.0,0.0,0.0,0.0,0.0,0.0,0.0,0.0,0.0,0.0,0.0,0.0,0.0,0.7988,0.7988,0.7988,0.7988,0.7988,0.8019,0.813,0.818,0.8208,0.8208,0.8208,0.8177,0.8227,1.0343,1.1482,1.2091,1.422,1.5384,1.5784,1.5784,1.5784,1.5784,1.5784,1.5784,1.5784,0.0,0.0,0.0,0.0,0.0,0.0,0.0,0.0,0.0,0.0,0.0,0.0,0.0,0.0,0.0,0.0,0.0,0.0,0.0,0.0,0.0,0.0,0.0,0.9306,0.9306,1.0142,1.0593,1.0593,1.0593,1.0593,1.06,0.0,0.0,0.0,1.183,1.2118,1.2305,1.2305,1.2305,1.2305,1.2305,1.2305,0.0,0.0,0.0,0.0,0.0,0.0,0.0,0.0,1.2305,1.2305,0.0,0.0,0.0,0.0,1.2305,1.2305,1.2305,1.2305,1.2305,0.0,0.0,0.0,0.0,0.0,0.0,0.0,0.0,0.0,0.0,0.0,0.0,0.0,0.0,0.0,0.0,0.0,0.0,0.0,0.0,0.0,0.0,0.0,0.0,0.0,0.0,0.0,0.0,0.0,0.0,0.0,0.7988,0.7988,0.7988,0.7988,0.7988,0.7988,0.7988,0.7988,0.7988,0.7988,0.7988,0.8137,1.0774,1.1896,1.2091,1.4711,1.5784,1.5784,1.5784,1.5784,1.5784,1.5784,1.5784,1.5784,0.0,0.0,0.0,0.0,0.0,0.0,0.0,0.0,0.0,0.0,0.0,0.0,0.0,0.0,0.0,0.0,0.0,0.0,0.0,0.0,0.0,0.0,0.0,0.9306,0.9306,1.0174,1.0593,1.0593,1.0593,1.0593,1.0606,1.1156,0.0,0.0,0.0,0.0,1.2305,1.2305,1.2305,1.2305,1.2305,1.2305,1.2305,0.0,0.0,0.0,0.0,0.0,0.0,0.0,1.2305,1.2305,0.0,0.0,0.0,0.0,1.2305,1.2305,1.2305,1.2305,0.0,0.0,0.0,0.0,0.0,0.0,0.0,0.0,0.0,0.0,0.0,0.0,0.0,0.0,0.0,0.0,0.0,0.0,0.0,0.0,0.0,0.0,0.0,0.0,0.0,0.0,0.0,0.0,0.0,0.0,0.0,0.0,0.7988,0.7988,0.7988,0.7988,0.7988,0.7988,0.7988,0.7988,0.7988,0.7988,0.7988,0.8137,1.0774,1.1896,1.2091,1.4711,1.5784,1.5784,1.5784,1.5784,1.5784,1.5784,1.5784,1.5784,0.0,0.0,0.0,0.0,0.0,0.0,0.0,0.0,0.0,0.0,0.0,0.0,0.0,0.0,0.0,0.0,0.0,0.0,0.0,0.0,0.0,0.0,0.0,0.0,0.0,0.0,1.0593,1.0593,1.0593,1.0593,0.0,0.0,0.0,1.1415,0.0,0.0,1.2305,1.2305,1.2305,1.2305,1.2305,1.2305,1.2305,0.0,0.0,0.0,0.0,0.0,0.0,0.0,0.0,0.0,0.0,0.0,0.0,1.2305,1.2305,1.2305,1.2305,1.2305,0.0,0.0,0.0,0.0,0.0,0.0,0.0,0.0,0.0,0.0,0.0,0.0,0.0,0.0,0.0,0.0,0.0,0.0,0.0,0.0,0.0,0.0,0.0,0.0,0.0,0.0,0.0,0.0,0.0,0.0,0.0,0.0,0.7988,0.7988,0.7988,0.7988,0.7988,0.7988,0.7988,0.7988,0.7988,0.7988,0.7988,0.8137,1.0774,1.1896,1.2091,1.4711,1.5784,1.5784,1.5784,1.5784,1.5784,1.5784,1.5784,1.5784,0.0,0.0,0.0,0.0,0.0,0.0,0.0,0.0,0.0,0.0,0.0,0.0,0.0,0.0,0.0,0.0,0.0,0.0,0.0,0.0,0.0,0.0,0.0,0.0,0.0,1.0593,1.0593,0.0,0.0,0.0,0.0,0.0,0.0,1.1623,0.0,1.2305,0.0,1.2305,1.2305,1.2305,1.2305,1.2305,1.2305,0.0,0.0,0.0,0.0,0.0,0.0,0.0,0.0,0.0,0.0,0.0,0.0,1.2305,1.2305,1.2305,1.2305,0.0,0.0,0.0,0.0,0.0,0.0,0.0,0.0,0.0,0.0,0.0,0.0,0.0,0.0,0.0,0.0,0.0,0.0,0.0,0.0,0.0,0.0,0.0,0.0,0.0,0.0,0.0,0.0,0.0,0.0,0.0,0.0,0.0,0.7988,0.7988,0.7988,0.7988,0.7988,0.7988,0.7988,0.7988,0.7988,0.7988,0.7988,0.8137,1.0774,1.2479,1.3547,1.5146,1.5784,1.5784,1.5784,1.5784,1.5784,1.5784,1.5784,1.5784,0.0,0.0,0.0,0.0,0.0,0.0,0.0,0.0,0.0,0.0,0.0,0.0,0.0,0.0,0.0,0.0,0.0,0.0,0.0,0.0,0.0,0.0,0.0,0.0,0.0,0.0,0.0,0.0,0.0,0.0,0.0,0.0,1.1583,1.1919,0.0,1.2305,1.2305,1.2305,1.2305,1.2305,1.2305,1.2305,1.2305,1.2305,0.0,0.0,0.0,0.0,0.0,0.0,0.0,0.0,1.2305,1.2305,1.2305,1.2305,1.2305,1.2305,0.0,0.0,0.0,0.0,0.0,0.0,0.0,0.0,0.0,0.0,0.0,0.0,0.0,0.0,0.0,0.0,0.0,0.0,0.0,0.0,0.0,0.0,0.0,0.0,0.0,0.0,0.0,0.0,0.0,0.0,0.0,0.0,0.0,0.8187,0.8184,0.8137,0.7988,0.7988,0.7988,0.0,0.7988,0.7988,0.7988,0.7988,0.8137,0.8478,1.0872,1.3397,1.5784,1.5784,1.5784,1.5784,1.5784,1.5784,1.5784,1.5784,1.5784,1.5784,0.0,0.0,0.0,0.0,0.0,0.0,0.0,0.0,0.0,0.0,0.0,0.0,0.0,0.0,0.0,0.0,0.0,0.0,0.0,0.0,0.0,0.0,0.0,0.0,0.0,0.0,0.0,0.0,0.0,0.0,0.0,0.0,0.0,1.1919,0.0,1.2305,1.2305,1.2305,1.2305,1.2305,1.2305,1.2305,1.2305,1.2305,1.2305,0.0,0.0,0.0,0.0,0.0,0.0,0.0,1.2305,1.2305,1.2305,1.2305,1.2305,1.2305,0.0,0.0,0.0,0.0,0.0,0.0,0.0,0.0,0.0,0.0,0.0,0.0,0.0,0.0,0.0,0.0,0.0,0.0,0.0,0.0,0.0,0.0,0.0,0.0,0.0,0.0,0.0,0.0,0.0,0.0,0.0,0.0,0.0,0.9608,0.9558,0.9069,0.7988,0.7988,0.7988,0.0,0.7988,0.7988,0.7988,0.7988,0.9114,1.1068,1.1653,1.3397,1.5784,1.5784,1.5784,1.5784,1.5784,1.5784,1.5784,1.5784,1.5784,1.5784,0.0,0.0,0.0,0.0,0.0,0.0,0.0,0.0,0.0,0.0,0.0,0.0,0.0,0.0,0.0,0.0,0.0,0.0,0.0,0.0,0.0,0.0,0.0,0.0,0.0,0.0,0.0,0.0,0.0,0.0,0.0,0.0,0.0,1.2084,0.0,1.2305,1.2305,1.2305,1.2305,1.2305,1.2305,1.2305,1.2305,1.2305,1.2305,1.2305,1.2305,0.0,0.0,0.0,0.0,0.0,0.0,0.0,1.2305,1.2305,1.2305,1.2305,0.0,0.0,0.0,0.0,0.0,0.0,0.0,0.0,0.0,0.0,0.0,0.0,0.0,0.0,0.0,0.0,0.0,0.0,0.0,0.0,0.0,0.0,0.0,0.0,0.0,0.0,0.0,0.0,0.0,0.0,0.0,1.1896,1.1604,1.0925,1.0342,0.9657,0.897,0.8333,0.7988,0.7988,0.7988,0.7988,0.8038,0.8676,1.0047,1.1945,1.2576,1.398,1.5784,1.5784,1.5784,1.5784,1.5784,1.5784,1.5784,1.5784,1.5784,1.5784,0.0,0.0,0.0,0.0,0.0,0.0,0.0,0.0,0.0,0.0,0.0,0.0,0.0,0.0,0.0,0.0,0.0,0.0,0.0,0.0,0.0,0.0,0.0,0.0,0.0,0.0,0.0,0.0,0.0,0.0,0.0,0.0,0.0,1.2305,0.0,1.2305,1.2305,1.2305,1.2305,1.2305,1.2305,1.2305,1.2305,1.2305,1.2305,1.2305,1.2305,1.2305,1.2305,1.2305,0.0,0.0,0.0,0.0,1.2305,1.2305,1.2305,1.2305,0.0,0.0,0.0,0.0,0.0,0.0,0.0,0.0,0.0,0.0,0.0,0.0,0.0,0.0,0.0,0.0,0.0,0.0,0.0,0.0,0.0,0.0,0.0,0.0,0.0,0.0,0.0,0.0,0.0,0.0,1.2576,1.2576,1.2479,1.2237,1.1214,1.0583,1.0337,0.9213,0.8676,0.8676,0.8676,0.8676,0.8726,1.0043,1.1116,1.1945,1.3343,1.4609,1.5784,1.5784,1.5784,1.5784,1.5784,1.5784,1.5784,1.5784,1.5784,1.5784,0.0,0.0,0.0,0.0,0.0,0.0,0.0,0.0,0.0,0.0,0.0,0.0,0.0,0.0,0.0,0.0,0.0,0.0,0.9043,0.0,0.0,1.0593,1.0593,1.0593,0.0,0.0,0.0,0.0,0.0,0.0,0.0,0.0,0.0,1.2305,0.0,0.0,1.2305,1.2305,1.2305,1.2305,1.2305,1.2305,1.2305,1.2305,1.2305,1.2305,1.2305,1.2305,1.2305,1.2305,1.2305,0.0,0.0,0.0,0.0,1.2305,1.2305,0.0,0.0,0.0,0.0,0.0,0.0,0.0,0.0,0.0,0.0,0.0,0.0,0.0,0.0,0.0,0.0,0.0,0.0,0.0,0.0,0.0,0.0,0.0,0.0,0.0,0.0,0.0,0.0,0.0,0.0,0.0,1.5296,1.5296,1.4758,1.368,1.3488,1.2813,1.1653,1.1458,1.1361,1.1361,1.1361,1.1361,1.1409,1.2764,1.2861,1.1945,1.3343,1.4609,1.5784,1.5784,1.5784,1.5784,1.5784,1.5784,1.5784,1.5784,1.5784,1.5784,0.0,0.0,0.0,0.0,0.0,0.0,0.0,0.0,0.0,0.0,0.0,0.0,0.0,0.0,0.0,0.7242,0.7372,0.8156,0.9913,1.0403,1.0593,1.0593,1.0593,1.0593,1.0593,0.0,0.0,0.0,0.0,0.0,0.0,1.1897,1.2178,0.0,0.0,0.0,0.0,0.0,1.2305,1.2305,1.2305,1.2305,1.2305,1.2305,1.2305,1.2305,1.2305,1.2305,1.2305,1.2305,1.2305,1.2305,1.2305,0.0,0.0,0.0,0.0,0.0,0.0,0.0,0.0,0.0,0.0,0.0,0.0,0.0,0.0,0.0,0.0,0.0,0.0,0.0,0.0,0.0,0.0,0.0,0.0,0.0,0.0,0.0,0.0,0.0,0.0,0.0,0.0,0.0,0.0,1.5784,1.5784,1.5784,1.5534,1.4997,1.4262,1.3632,1.3006,1.2285,1.1896,1.1896,1.1896,1.1896,1.195,1.3295,1.359,1.3102,1.4418,1.5289,1.5784,1.5784,1.5784,1.5784,1.5784,1.5784,1.5784,1.5784,1.5784,1.5784,0.0,0.0,0.0,0.0,0.0,0.0,0.0,0.0,0.0,0.0,0.0,0.0,0.0,0.0,0.0,0.0,0.7832,0.8967,1.0498,1.0593,1.0593,1.0593,1.0593,1.0593,1.0593,0.0,0.0,0.0,0.0,0.0,1.155,1.2064,1.2305,0.0,1.2305,0.0,0.0,0.0,0.0,0.0,0.0,0.0,0.0,0.0,0.0,1.2305,1.2305,1.2305,1.2305,1.2305,1.2305,1.2305,0.0,0.0,0.0,0.0,0.0,0.0,0.0,0.0,0.0,0.0,0.0,0.0,0.0,0.0,0.0,0.0,0.0,0.0,0.0,0.0,0.0,0.0,0.0,0.0,0.0,0.0,0.0,0.0,0.0,0.0,0.0,0.0,0.0,0.0,0.0,1.5645,1.5712,1.5718,1.5752,1.5778,1.4902,1.4364,1.4364,1.3397,1.2866,1.2866,1.2866,1.2866,1.2915,1.3926,1.4364,1.4459,1.5391,1.5784,1.5784,1.5784,1.5784,1.5784,1.5784,1.5784,1.5784,1.5784,1.5784,1.5784,0.0,0.0,0.0,0.0,0.0,0.0,0.0,0.0,0.0,0.0,0.0,0.0,0.0,0.6924,0.7929,0.7929,0.8716,0.9626,1.053,1.0593,1.0593,1.0593,1.0593,0.0,1.0593,1.0593,0.0,0.0,0.0,0.0,1.1893,1.2158,1.2305,1.2305,1.2305,1.2305,1.2305,0.0,0.0,0.0,0.0,0.0,0.0,0.0,0.0,0.0,0.0,0.0,0.0,1.2305,1.2305,0.0,0.0,0.0,0.0,0.0,0.0,0.0,0.0,0.0,0.0,0.0,0.0,0.0,0.0,0.0,0.0,0.0,0.0,0.0,0.0,0.0,0.0,0.0,0.0,0.0,0.0,0.0,0.0,0.0,0.0,0.0,0.0,0.0,0.0,0.0,0.0,1.513,1.5404,1.5418,1.5545,1.5771,1.573,1.5683,1.5683,1.5635,1.5588,1.5588,1.5588,1.5588,1.5588,1.5683,1.5683,1.5683,1.5784,1.5784,1.5784,1.5784,1.5784,1.5784,1.5784,1.5784,1.5784,1.5784,1.5784,1.5784,0.0,0.0,0.0,0.0,0.0,0.0,0.0,0.0,0.0,0.0,0.0,0.0,0.0,0.7279,0.8283,0.903,1.0068,1.0775,1.1082,1.1116,1.1116,1.1116,1.1116,1.1116,1.1116,1.1116,0.0,0.0,0.0,1.1764,1.1913,1.2164,1.2305,1.2305,1.2305,1.2305,1.2305,1.2305,0.0,0.0,0.0,0.0,0.0,0.0,0.0,0.0,0.0,0.0,0.0,0.0,0.0,0.0,0.0,0.0,1.2305,1.2305,0.0,0.0,0.0,0.0,0.0,0.0,0.0,0.0,0.0,0.0,0.0,0.0,0.0,0.0,0.0,0.0,0.0,0.0,0.0,0.0,0.0,0.0,0.0,0.0,0.0,0.0,0.0,0.0,0.0,0.0,0.0,0.0,1.5156,1.5117,1.5209,1.5271,1.5451,1.5645,1.5778,1.5784,1.5784,1.5784,1.5784,1.5784,1.5784,1.5784,1.5784,1.5784,1.5784,1.5784,1.5784,1.5784,1.5784,1.5784,1.5784,1.5784,1.5784,1.5784,1.5784,1.5784,0.0,0.0,0.0,0.0,0.0,0.0,0.0,0.0,0.0,0.0,0.0,0.0,0.0,0.0,0.903,1.0166,1.097,1.1389,1.1389,1.1389,1.1389,1.1389,1.1389,1.1389,1.1389,1.1295,0.0,0.0,0.0,0.0,0.0,1.2211,1.2305,1.2305,1.2305,1.2305,0.0,0.0,0.0,1.2305,0.0,0.0,1.2305,0.0,0.0,0.0,0.0,0.0,0.0,0.0,0.0,0.0,0.0,1.2305,1.2305,1.2305,0.0,0.0,0.0,0.0,0.0,0.0,0.0,0.0,0.0,0.0,0.0,0.0,0.0,0.0,0.0,0.0,0.0,0.0,0.0,0.0,0.0,0.0,0.0,0.0,0.0,0.0,0.0,0.0,0.0,0.0,0.0,0.0,1.481,1.4816,1.4863,1.5008,1.515,1.5344,1.5538,1.5631,1.5685,1.5685,1.5785,1.5784,1.5784,1.5784,1.5784,1.5784,1.5784,1.5784,1.5784,1.5784,1.5784,1.5784,1.5784,1.5784,1.5784,1.5784,1.5784,1.5872,0.0,0.0,0.0,0.0,0.0,0.0,0.0,0.0,0.0,0.0,0.0,0.0,0.0,0.0,0.0,1.1307,1.1415,1.1415,1.1415,1.1415,1.1415,1.1415,1.1415,1.1415,1.1415,1.1176,0.0,0.0,0.0,0.0,0.0,0.0,1.2305,1.2305,1.2305,1.2305,1.2305,0.0,1.2305,1.2305,0.0,1.2305,1.2305,0.0,0.0,0.0,1.2305,1.2305,0.0,0.0,0.0,0.0,0.0,0.0,1.2305,1.2305,0.0,0.0,0.0,0.0,0.0,0.0,0.0,0.0,0.0,0.0,0.0,0.0,0.0,0.0,0.0,0.0,0.0,0.0,0.0,0.0,0.0,0.0,0.0,0.0,0.0,0.0,0.0,0.0,0.0,0.0,0.0,1.4208,1.4489,1.4502,1.4643,1.4988,1.4995,1.5001,1.5008,1.5244,1.5384,1.5384,1.5671,1.5758,1.5758,1.5758,1.5758,1.5758,1.5764,1.5764,1.5771,1.5778,1.5784,1.5784,1.5784,1.5784,1.5784,1.5784,1.5784,1.5967,0.0,0.0,0.0,0.0,0.0,0.0,0.0,0.0,0.0,0.0,0.0,0.0,0.0,0.0,1.1412,1.1744,1.1937,1.2058,1.2058,1.2058,1.2058,1.2058,1.2058,1.2058,1.2058,1.1984,0.0,0.0,0.0,0.0,0.0,0.0,0.0,0.0,1.2305,1.2305,1.2305,1.2305,0.0,0.0,1.2305,1.2305,0.0,0.0,0.0,0.0,0.0,1.2305,0.0,0.0,1.2305,1.2305,0.0,0.0,0.0,0.0,0.0,0.0,1.2305,0.0,0.0,0.0,0.0,0.0,0.0,0.0,0.0,0.0,0.0,0.0,0.0,0.0,0.0,0.0,0.0,0.0,0.0,0.0,0.0,0.0,0.0,0.0,0.0,0.0,0.0,0.0,1.4088,1.4122,1.4202,1.4208,1.4342,1.4636,1.4643,1.4743,1.5008,1.5089,1.5129,1.5129,1.5209,1.5204,1.5204,1.5204,1.5204,1.5217,1.5424,1.5518,1.5531,1.5745,1.5784,1.5784,1.5784,1.5784,1.5784,1.5784,1.5784,1.5967,0.0,0.0,0.0,0.0,0.0,0.0,0.0,0.0,0.0,0.0,0.0,0.0,0.0,0.0,0.0,1.2087,1.2204,1.2305,1.2305,1.2305,1.2305,1.2305,1.2305,1.2305,1.2305,1.2184,0.0,0.0,0.0,0.0,0.0,0.0,0.0,0.0,0.0,0.0,0.0,0.0,0.0,0.0,1.2305,0.0,0.0,1.2305,1.2305,0.0,0.0,0.0,1.2305,1.2305,1.2305,0.0,0.0,0.0,0.0,0.0,0.0,0.0,0.0,0.0,0.0,0.0,0.0,0.0,0.0,1.2305,0.0,0.0,0.0,0.0,0.0,0.0,0.0,0.0,0.0,0.0,0.0,0.0,0.0,0.0,0.0,0.0,0.0,0.0,0.0,1.3901,1.4015,1.4088,1.4088,1.4088,1.4162,1.4335,1.4342,1.4422,1.464,1.4716,1.4776,1.4776,1.4948,1.5008,1.5008,1.5008,1.5008,1.5022,1.5189,1.5217,1.5237,1.5531,1.5718,1.5784,1.5784,1.5784,1.5784,1.5784,1.5784,1.6062,0.0,0.0,0.0,0.0,0.0,0.0,0.0,0.0,0.0,0.0,0.0,0.0,0.0,0.0,0.0,0.0,1.2305,1.2305,1.2305,1.2305,0.0,1.2305,1.2305,1.2305,1.2305,1.2087,0.0,0.0,0.0,0.0,0.0,0.0,0.0,0.0,0.0,0.0,0.0,0.0,0.0,1.2305,1.2305,1.2305,0.0,0.0,1.2305,0.0,1.2305,1.2305,1.2305,1.2305,1.2305,0.0,0.0,0.0,0.0,0.0,1.2305,0.0,0.0,0.0,0.0,0.0,0.0,0.0,1.2305,1.2305,1.2305,0.0,0.0,0.0,0.0,0.0,0.0,0.0,0.0,0.0,0.0,0.0,0.0,0.0,0.0,0.0,0.0,1.3407,1.3553,1.3553,1.3868,1.4041,1.4041,1.4068,1.4088,1.4088,1.4088,1.4088,1.4088,1.4342,1.4476,1.4476,1.4743,1.4908,1.4908,1.4908,1.4908,1.4914,1.4948,1.4961,1.4981,1.5224,1.5518,1.5738,1.5771,1.5784,1.5784,1.5784,1.5784,1.615,1.0593,0.0,0.0,0.0,0.0,0.0,0.0,0.0,0.0,0.0,0.0,0.0,0.0,0.0,0.0,0.0,1.2305,1.2305,1.2305,1.2305,0.0,1.2305,1.2305,1.2305,1.2305,1.2245,0.0,0.0,0.0,0.0,0.0,0.0,0.0,0.0,0.0,0.0,0.0,0.0,0.0,1.2305,1.2305,0.0,1.2305,1.2305,1.2305,1.2305,1.2305,1.2305,1.2305,0.0,1.2305,1.2305,0.0,0.0,0.0,0.0,0.0,0.0,0.0,0.0,0.0,0.0,0.0,0.0,1.2305,1.2305,1.2305,0.0,0.0,0.0,0.0,0.0,0.0,0.0,0.0,0.0,0.0,0.0,0.0,0.0,0.0,0.0,0.0,1.326,1.3293,1.3293,1.3527,1.3686,1.3686,1.3955,1.4088,1.4088,1.4088,1.4088,1.4088,1.4142,1.4168,1.4175,1.4229,1.4262,1.4262,1.4262,1.4262,1.4269,1.4502,1.4603,1.4629,1.4968,1.5217,1.5504,1.5738,1.5784,1.5784,1.5784,1.5784,1.615,1.0593,0.0,0.0,0.0,0.0,0.0,0.0,0.0,0.0,0.0,0.0,0.0,0.0,0.0,0.0,0.0,0.0,0.0,0.0,0.0,0.0,0.0,1.2305,1.2305,1.2305,0.0,0.0,0.0,0.0,0.0,0.0,0.0,0.0,0.0,0.0,0.0,0.0,0.0,1.2305,1.2305,1.2305,0.0,1.2305,1.2305,1.2305,1.2305,1.2305,1.2305,1.2305,1.2305,1.2305,0.0,0.0,1.2305,1.2305,0.0,1.2305,1.2305,0.0,0.0,0.0,1.2305,0.0,0.0,0.0,1.2305,1.2305,0.0,0.0,0.0,0.0,0.0,0.0,0.0,0.0,0.0,0.0,0.0,0.0,0.0,0.0,0.0,0.0,1.2893,1.3046,1.32,1.3307,1.3387,1.3387,1.3707,1.3868,1.3868,1.4008,1.4088,1.4088,1.4088,1.4088,1.4088,1.4088,1.4088,1.4088,1.4088,1.4088,1.4095,1.4242,1.4302,1.4322,1.4623,1.483,1.5003,1.5444,1.5611,1.5631,1.5724,1.6197,1.699,1.06,0.0,0.0,0.0,0.0,0.0,0.0,0.0,0.0,0.0,0.0,0.0,0.0,0.0,0.0,0.0,0.0,0.0,0.0,0.0,0.0,0.0,0.0,1.2305,0.0,1.2305,0.0,0.0,0.0,0.0,0.0,0.0,0.0,0.0,0.0,0.0,0.0,0.0,0.0,1.2305,0.0,1.2305,1.2305,1.2305,1.2305,1.2305,1.2305,1.2305,1.2305,1.2305,0.0,1.2305,1.2305,1.2305,0.0,0.0,0.0,0.0,0.0,0.0,0.0,0.0,0.0,1.2305,0.0,0.0,0.0,1.2305,0.0,0.0,0.0,0.0,0.0,0.0,0.0,0.0,0.0,0.0,0.0,0.0,0.0,0.0,0.0,1.2668,1.2804,1.3019,1.3086,1.312,1.312,1.34,1.352,1.352,1.3848,1.4001,1.4001,1.4055,1.4088,1.4088,1.4088,1.4088,1.4088,1.4088,1.4088,1.4088,1.4088,1.4088,1.4108,1.4342,1.4436,1.4496,1.5084,1.5344,1.547,1.5879,1.6753,1.7917,1.064,1.0801,0.0,0.0,0.0,0.0,0.0,0.0,0.0,0.0,0.0,0.0,0.0,0.0,0.0,0.0,0.0,0.0,1.2305,0.0,0.0,0.0,0.0,0.0,1.2305,1.2305,0.0,0.0,0.0,0.0,0.0,0.0,0.0,0.0,1.2305,0.0,0.0,0.0,1.2305,0.0,1.2305,1.2305,0.0,1.2305,1.2305,1.2305,1.2305,1.2305,1.2305,0.0,1.2305,1.2305,0.0,1.2305,0.0,0.0,0.0,0.0,0.0,0.0,0.0,0.0,1.2305,0.0,0.0,0.0,1.2305,1.2305,0.0,0.0,0.0,0.0,0.0,0.0,0.0,0.0,0.0,0.0,0.0,0.0,0.0,0.0,0.0,0.0,1.2365,1.2405,1.2683,1.2837,1.2837,1.3093,1.326,1.326,1.35,1.3653,1.3653,1.3955,1.4088,1.4088,1.4088,1.4088,1.4088,1.4088,1.4088,1.4088,1.4088,1.4088,1.4088,1.4122,1.4135,1.4195,1.4827,1.517,1.5536,1.6629,1.7323,1.8056,1.1089,0.0,0.0,0.0,0.0,0.0,0.0,0.0,0.0,0.0,0.0,0.0,0.0,0.0,0.0,0.0,0.0,1.2305,0.0,0.0,0.0,0.0,0.0,0.0,0.0,1.2305,1.2305,0.0,1.2305,0.0,0.0,0.0,0.0,0.0,1.2305,0.0,1.2305,0.0,0.0,0.0,0.0,0.0,0.0,1.2305,1.2305,1.2305,1.2305,1.2305,1.2305,0.0,1.2305,0.0,0.0,0.0,0.0,0.0,0.0,0.0,0.0,0.0,0.0,0.0,0.0,0.0,0.0,0.0,1.2305,0.0,0.0,0.0,0.0,0.0,0.0,0.0,0.0,0.0,0.0,0.0,0.0,0.0,0.0,0.0,0.0,0.0,0.0,0.0,0.0,1.3586,1.4159,1.3937,1.3774,1.3774,1.3504,1.3433,1.36,1.3726,1.3915,1.4088,1.4088,1.4088,1.4088,1.4088,1.4088,1.4088,1.4088,1.4088,1.4088,1.4088,1.4088,1.4115,1.4398,1.4629,1.4968,1.5836,1.7182,1.8683,0.0,0.0,0.0,0.0,0.0,0.0,0.0,0.0,0.0,0.0,0.0,0.0,1.2305,1.2305,0.0,0.0,0.0,1.2305,0.0,0.0,1.2305,0.0,0.0,0.0,0.0,0.0,0.0,0.0,0.0,0.0,0.0,0.0,0.0,0.0,0.0,1.2305,1.2305,0.0,0.0,1.2305,1.2305,1.2305,1.2305,1.2305,1.2305,1.2305,1.2305,1.2305,1.2305,1.2305,1.2305,0.0,1.2305,0.0,0.0,0.0,0.0,0.0,1.2305,0.0,0.0,0.0,0.0,0.0,0.0,0.0,0.0,0.0,0.0,0.0,0.0,0.0,0.0,0.0,0.0,0.0,0.0,0.0,0.0,0.0,0.0,0.0,0.0,0.0,0.0,1.4099,1.4099,1.4422,1.5163,1.473,1.4364,1.4067,1.3683,1.3456,1.3394,1.352,1.3706,1.3968,1.4048,1.4088,1.4088,1.4088,1.4088,1.4088,1.4088,1.4088,1.4088,1.4088,1.4088,1.413,1.4412,1.4669,1.4917,1.5798,1.7279,1.9029,1.2218,1.2051,0.0,0.0,0.0,0.0,0.0,0.0,0.0,0.0,0.0,0.0,0.0,0.0,0.0,0.0,0.0,1.2305,1.2305,0.0,1.2305,0.0,0.0,0.0,0.0,0.0,0.0,0.0,0.0,0.0,0.0,0.0,0.0,0.0,0.0,1.2305,1.2305,1.2305,1.2305,1.2305,1.2305,1.2305,1.2305,0.0,1.2305,1.2305,1.2305,0.0,0.0,1.2305,1.2305,0.0,0.0,0.0,0.0,0.0,0.0,0.0,0.0,0.0,0.0,1.2305,0.0,0.0,0.0,0.0,1.3673,0.0,0.0,0.0,0.0,0.0,0.0,0.0,0.0,0.0,0.0,0.0,0.0,0.0,0.0,0.0,0.0,0.0,0.0,1.5163,1.5163,1.5163,1.5199,1.5171,1.4716,1.376,1.4007,1.3741,1.2811,1.3353,1.3606,1.362,1.3948,1.4088,1.4088,1.4088,1.4088,1.4088,1.4088,1.4088,1.4088,1.4088,1.4088,1.4208,1.5255,1.5662,1.5839,1.7355,1.8135,1.8741,0.0,0.0,0.0,0.0,0.0,0.0,0.0,1.2305,0.0,0.0,0.0,0.0,0.0,0.0,1.2305,0.0,0.0,1.2305,1.2305,1.2305,0.0,0.0,0.0,1.2305,0.0,0.0,0.0,0.0,0.0,0.0,0.0,0.0,0.0,0.0,0.0,1.2305,0.0,0.0,0.0,0.0,0.0,1.2305,1.2305,0.0,0.0,1.2305,1.2305,1.2305,0.0,1.2305,1.2305,1.2305,1.2305,1.2305,1.2305,1.2305,1.2305,0.0,0.0,0.0,1.2305,1.2305,0.0,0.0,0.0,0.0,0.0,0.0,0.0,0.0,0.0,0.0,0.0,0.0,0.0,0.0,0.0,0.0,0.0,0.0,0.0,0.0,0.0,0.0,0.0,1.6149,1.6149,1.6393,0.0,1.6463,1.5965,1.5614,1.5135,1.4485,1.3712,1.3897,1.3873,1.36,1.3706,1.3895,1.4088,1.4088,1.4088,1.4088,1.4088,1.4088,1.4088,1.4088,1.4531,1.5171,1.5579,1.615,1.6845,1.758,1.8422,1.9436,1.2305,0.0,0.0,0.0,0.0,0.0,0.0,0.0,0.0,0.0,1.2392,0.0,1.2496,0.0,1.2625,0.0,1.2625,1.2625,1.2625,1.2518,0.0,1.2496,1.2358,0.0,0.0,0.0,0.0,0.0,0.0,1.2305,0.0,0.0,0.0,0.0,0.0,0.0,0.0,0.0,1.2305,0.0,0.0,1.2305,0.0,0.0,1.2305,1.2305,0.0,1.2305,1.2305,1.2305,1.2305,1.2305,1.2305,1.2305,1.2305,1.2305,1.2305,1.2305,1.2305,1.2305,0.0,1.2305,1.2305,0.0,1.2305,0.0,0.0,0.0,0.0,0.0,0.0,0.0,0.0,0.0,0.0,0.0,0.0,1.8008,0.0,0.0,0.0,0.0,0.0,0.0,1.7104,1.7104,1.7104,1.7354,0.0,0.0,1.6957,1.6602,1.6,1.5171,1.4022,1.4149,1.3947,1.3453,1.3553,1.3801,1.4088,1.4088,1.4088,1.4088,1.4088,1.4328,1.4657,1.4657,1.5304,1.6314,1.6715,1.7293,1.7934,1.814,1.8961,2.0108,0.0,0.0,0.0,0.0,1.2305,0.0,0.0,0.0,1.2305,0.0,1.261,1.279,1.2804,1.3033,1.3213,1.3213,1.3213,0.0,1.3213,1.2971,0.0,0.0,1.2478,1.2318,1.2305,0.0,0.0,0.0,0.0,0.0,0.0,0.0,0.0,0.0,1.2305,0.0,1.2305,1.2305,1.2305,1.2305,1.2305,1.2305,1.2305,1.2305,1.2305,1.2305,1.2305,1.2305,1.2305,1.2305,1.2305,1.2305,1.2305,1.2305,1.2305,1.2305,1.2305,1.2305,1.2305,1.2305,1.2305,1.2305,0.0,0.0,0.0,0.0,1.3637,0.0,0.0,0.0,0.0,0.0,0.0,0.0,0.0,0.0,0.0,0.0,0.0,0.0,0.0,0.0,0.0,1.8008,1.8008,1.8008,1.8008,0.0,0.0,0.0,1.7579,1.6706,1.6671,1.5755,1.3846,1.417,1.3985,1.3365,1.3568,1.3864,1.425,1.4208,1.4208,1.425,1.425,1.4859,1.5786,1.5786,1.6396,1.7496,1.8598,1.9036,1.9076,1.9076,1.9717,2.0605,1.2305,1.2305,1.2305,0.0,1.2305,1.2305,0.0,0.0,0.0,0.0,1.2737,1.2878,1.3066,1.3166,1.3213,1.3213,1.3213,0.0,0.0,0.0,0.0,1.2797,1.271,1.2563,1.2305,1.2305,0.0,1.2305,0.0,0.0,1.2305,0.0,0.0,0.0,0.0,0.0,1.2305,1.2305,1.2305,1.2305,1.2305,1.2305,0.0,0.0,1.2305,1.2305,1.2305,1.2305,1.2305,1.2305,1.2305,1.2305,1.2305,1.2305,1.2305,1.2305,1.2305,1.2305,1.2305,1.2305,1.2305,1.2305,1.2305,1.2305,0.0,0.0,0.0,0.0,0.0,0.0,0.0,0.0,0.0,0.0,0.0,0.0,0.0,0.0,0.0,0.0,0.0,0.0,1.8008,1.8008,1.8008,1.8008,1.8008,0.0,0.0,0.0,0.0,1.7647,1.7647,1.707,1.586,1.5955,1.5791,1.5434,1.4689,1.5071,1.6445,1.567,1.5711,1.6486,1.6486,1.665,1.6887,1.6887,1.7536,1.859,1.8877,1.9481,2.0206,2.0206,2.0362,2.0605,1.2305,0.0,0.0,1.2305,0.0,0.0,1.2318,0.0,0.0,1.2764,1.3012,0.0,1.334,1.3514,1.3594,1.3594,1.3594,0.0,0.0,0.0,0.0,1.3146,1.2924,1.2703,1.2536,1.2365,0.0,1.2305,0.0,0.0,1.2305,0.0,0.0,0.0,0.0,1.2305,0.0,1.2305,1.2305,1.2305,1.2305,0.0,0.0,1.2305,1.2305,1.2305,1.2305,1.2305,1.2305,1.2305,1.2305,1.2305,1.2305,1.2305,1.2305,1.2305,1.2305,1.2305,1.2305,1.2305,1.2305,1.2305,1.2305,1.2305,1.2305,1.2305,1.2305,0.0,0.0,0.0,0.0,0.0,0.0,0.0,0.0,0.0,0.0,0.0,0.0,0.0,0.0,0.0,1.8008,1.8008,1.8008,1.8008,0.0,0.0,0.0,0.0,0.0,1.8008,1.8008,1.7535,1.6602,1.6602,1.6368,1.5922,1.5516,1.5912,1.7015,1.6611,1.6723,1.7302,1.7302,1.7585,1.8029,1.8029,1.8709,1.9678,1.9678,2.0079,2.0605,2.0605,2.0605,2.0605,0.0,0.0,0.0,0.0,0.0,0.0,0.0,1.2677,0.0,1.2898,0.0,1.362,1.366,1.3935,1.4088,1.4088,0.0,1.4088,1.4088,1.3848,1.3646,1.36,1.314,1.2864,1.2784,1.2529,0.0,0.0,0.0,0.0,0.0,0.0,0.0,0.0,0.0,0.0,0.0,1.2305,1.2305,0.0,1.2305,1.2305,1.2305,1.2305,1.2305,1.2305,1.2305,1.2305,1.2305,1.2305,1.2305,1.2305,1.2305,1.2305,1.2305,1.2305,1.2305,1.2305,1.2305,1.2305,1.2305,1.2305,1.2305,1.2305,1.2305,1.2305,1.2305,1.2305,1.3738,1.5057,0.0,0.0,0.0,0.0,0.0,0.0,0.0,0.0,0.0,0.0,0.0,0.0,0.0,1.8008,0.0,0.0,0.0,0.0,0.0,0.0,0.0,1.8008,1.8008,1.7613,1.6784,0.0,1.6519,1.5993,1.6288,1.6648,1.7133,1.7409,1.7585,1.7738,1.7738,1.831,1.9204,1.9204,1.9766,2.0605,2.0605,2.0605,2.0605,2.0605,2.0605,2.0605,0.0,0.0,0.0,0.0,0.0,1.3113,1.306,1.3093,1.3213,1.3413,1.354,1.3693,1.3981,1.4055,1.4088,1.4088,1.4088,0.0,0.0,0.0,0.0,1.3613,1.35,1.3253,1.2797,1.273,1.2583,0.0,0.0,0.0,0.0,0.0,0.0,0.0,0.0,0.0,1.2305,1.2305,0.0,1.2305,1.2305,1.2305,1.2305,1.2305,1.2305,1.2305,1.2305,1.2305,1.2305,1.2305,1.2305,1.2305,1.2305,1.2305,1.2305,1.2305,1.2305,1.2305,1.2305,1.2305,1.2305,1.2305,1.2305,1.2305,1.2305,1.2305,1.2305,1.2305,1.32,1.4207,1.5057,0.0,0.0,0.0,0.0,0.0,0.0,0.0,0.0,0.0,0.0,0.0,0.0,0.0,0.0,0.0,0.0,0.0,0.0,0.0,0.0,0.0,1.8008,0.0,0.0,0.0,1.7858,1.8057,1.7651,1.8096,1.9336,1.8894,1.9195,2.004,2.004,2.0118,2.0323,2.0323,2.044,2.0605,2.0605,2.0605,2.0605,2.0605,2.0605,2.0605,0.0,0.0,0.0,0.0,0.0,0.0,0.0,1.3567,0.0,1.3606,1.3733,1.3928,1.4075,1.4088,1.4088,1.4088,1.4088,1.4088,1.4088,1.4088,1.4021,1.3881,1.3686,0.0,1.3213,1.2945,1.2717,1.2569,0.0,0.0,0.0,0.0,0.0,0.0,0.0,1.2305,0.0,0.0,0.0,1.2305,1.2305,1.2305,1.2305,1.2305,1.2305,1.2305,1.2305,1.2305,1.2305,1.2305,1.2305,1.2305,1.2305,1.2305,1.2305,1.2305,1.2305,1.2305,1.2305,1.2305,1.2305,1.2305,1.2305,1.2305,1.2305,1.2305,1.2305,1.2305,1.3062,1.4171,1.5649,1.7079,0.0,0.0,0.0,0.0,0.0,0.0,0.0,0.0,0.0,0.0,0.0,0.0,0.0,0.0,0.0,0.0,0.0,0.0,0.0,0.0,0.0,0.0,0.0,0.0,0.0,1.8607,1.8556,1.9011,1.9894,1.985,2.0118,2.0605,2.0605,2.0605,2.0605,2.0605,2.0605,2.0605,2.0605,2.0605,2.0605,2.0605,2.0605,2.0605,0.0,1.3093,0.0,0.0,1.35,0.0,1.378,1.4028,1.4075,1.3733,1.3941,1.4088,1.4088,1.4088,1.4088,1.4088,1.4088,1.4088,1.4088,1.4088,1.4088,1.4088,1.3861,1.3666,1.36,1.312,1.2851,0.0,0.0,0.0,0.0,0.0,0.0,0.0,0.0,0.0,0.0,0.0,1.2305,1.2305,1.2305,1.2305,1.2305,1.2305,1.2305,1.2305,1.2305,1.2305,1.2305,1.2305,1.2305,1.2305,1.2305,1.2305,1.2305,1.2305,1.2305,1.2305,1.2305,1.2305,1.2305,1.2305,1.2305,1.2305,1.2305,1.2445,1.2592,1.2592,1.352,1.4835,1.6567,1.7501,0.0,0.0,0.0,0.0,0.0,0.0,0.0,0.0,0.0,0.0,0.0,0.0,0.0,0.0,0.0,0.0,0.0,0.0,0.0,0.0,0.0,1.8008,1.8008,0.0,1.8188,1.8607,1.9082,1.9512,1.9932,2.04,2.0605,2.0605,2.0605,2.0605,2.0605,2.0605,2.0605,2.0605,2.0605,2.0605,2.0605,2.0605,2.0605,2.0605,0.0,0.0,0.0,0.0,0.0,0.0,0.0,1.4462,1.4376,1.4082,1.4068,1.4088,1.4088,1.4088,1.4088,1.4088,1.4088,1.4088,1.4088,1.4088,1.4088,1.4088,1.4062,1.3921,1.3613,1.3327,1.3026,0.0,0.0,0.0,0.0,0.0,0.0,0.0,0.0,0.0,0.0,1.2305,1.2305,1.2305,1.2305,1.2305,1.2305,1.2305,1.2305,1.2305,1.2305,1.2305,1.2305,1.2305,1.2305,1.2305,1.2305,1.2305,1.2305,1.2305,1.2305,1.2305,1.2305,1.2305,1.2305,1.2305,1.2305,1.2305,1.2305,1.2952,1.3564,1.3564,1.5048,1.6636,1.7681,1.794,1.8008,0.0,0.0,0.0,0.0,0.0,0.0,0.0,0.0,0.0,0.0,0.0,0.0,0.0,0.0,0.0,0.0,0.0,0.0,1.8008,0.0,1.8008,1.8008,1.8008,1.8188,1.8607,1.9082,1.9512,1.9932,2.04,2.0605,2.0605,2.0605,2.0605,2.0605,2.0605,2.0605,2.0605,2.0605,2.0605,2.0605,2.0605,2.0605,2.0605,0.0,0.0,0.0,0.0,0.0,0.0,0.0,1.4783,1.4743,1.4673,1.466,1.466,1.466,1.4456,1.4349,1.4349,1.4188,1.4088,1.4088,1.4088,1.4088,1.4088,1.4088,1.4035,1.3915,1.358,1.332,0.0,0.0,0.0,0.0,0.0,0.0,0.0,0.0,1.3702,1.3135,1.3135,1.2806,1.2305,1.2305,1.2305,1.2318,1.2536,1.3009,1.3516,1.3002,1.3137,1.345,1.2828,1.2489,1.2305,1.2305,1.2305,1.2305,1.2305,1.2305,1.2409,1.2989,1.3135,1.3273,1.3875,1.4055,1.4055,1.4055,1.4343,1.4593,1.4593,1.5685,1.6706,1.7104,1.7613,1.8008,0.0,0.0,0.0,0.0,0.0,0.0,0.0,0.0,0.0,0.0,0.0,0.0,0.0,0.0,0.0,0.0,0.0,0.0,1.8008,0.0,1.8008,1.8008,1.8227,1.8568,1.9033,1.9463,1.9893,2.0312,2.0527,2.0605,2.0605,2.0605,2.0605,2.0605,2.0605,2.0605,2.0605,2.0605,2.0605,2.0605,2.0605,2.0605,2.0605,1.3973,0.0,1.4409,0.0,1.4649,1.475,1.5089,1.5135,1.5169,1.5204,1.5217,1.5202,1.5028,1.4776,1.4616,1.4529,1.4335,1.4175,1.4095,1.4088,1.4088,1.4088,1.4088,0.0,1.4088,1.3753,1.35,1.334,1.3242,0.0,0.0,0.0,0.0,0.0,1.4593,1.4099,1.3673,1.3419,1.2915,1.2311,1.2398,1.2655,1.2936,1.3286,1.4032,1.4924,1.434,1.4498,1.4856,1.4108,1.3633,1.3249,1.2833,1.2915,1.3164,1.3164,1.3164,1.331,1.3954,1.4135,1.4307,1.5021,1.5199,1.5199,1.5199,1.5403,1.5693,1.5983,1.6541,1.6991,1.6991,1.7535,1.8008,1.8008,0.0,0.0,0.0,0.0,0.0,0.0,0.0,1.8008,1.8008,0.0,0.0,0.0,0.0,0.0,0.0,0.0,0.0,0.0,0.0,0.0,0.0,1.8393,1.8857,1.9287,1.9717,2.0146,2.0605,2.0605,2.0605,2.0605,2.0605,2.0605,2.0605,2.0605,2.0605,2.0605,2.0605,2.0605,2.0605,2.0605,2.0605,2.0605,1.4934,1.4995,1.4995,1.5001,1.5001,1.5102,1.5344,1.5391,1.5491,1.5785,1.5771,1.5605,1.5068,1.5008,1.4843,1.4543,1.4516,1.4396,1.4108,1.4088,1.4088,0.0,0.0,1.4088,1.4088,1.3753,1.36,1.36,0.0,0.0,1.4156,0.0,1.4243,1.5128,1.32,1.2842,1.3637,1.2696,1.2305,1.2325,1.2663,1.3417,1.4411,1.4667,1.5426,1.6363,1.6371,1.6371,1.6363,1.6363,1.6092,1.5516,1.4126,1.4343,1.5163,1.5163,1.5163,1.5163,1.5163,1.5163,1.5163,1.5199,1.5199,1.5199,1.5199,1.593,1.6853,1.7759,1.7974,1.7974,1.7974,1.7974,1.8008,1.8008,0.0,0.0,0.0,0.0,0.0,0.0,1.8008,1.8008,1.8008,0.0,0.0,0.0,0.0,0.0,0.0,0.0,0.0,1.8008,1.8008,0.0,1.8008,1.8393,1.8857,1.9287,1.9717,2.0146,2.0605,2.0605,2.0605,2.0605,2.0605,2.0605,2.0605,2.0605,2.0605,2.0605,2.0605,2.0605,2.0605,2.0605,2.0605,2.0605,1.4988,1.5008,1.5068,1.5224,1.5257,1.5357,1.5651,1.5691,1.5678,1.5771,1.5784,1.5711,1.5571,1.5378,1.5137,0.0,1.4636,1.4396,0.0,1.4088,1.4088,1.4088,1.4088,1.4088,1.4088,1.4719,1.496,1.4743,0.0,0.0,0.0,1.6137,1.6448,1.7079,1.6472,1.6009,1.5631,1.4876,1.4613,1.4673,1.4319,1.482,1.5794,1.612,1.6918,1.777,1.7212,1.7371,1.7734,1.6987,1.6978,1.71,1.6351,1.5684,1.5199,1.5199,1.5199,1.534,1.5965,1.614,1.6324,1.6941,1.7113,1.7113,1.7113,1.7329,1.7647,1.794,1.8008,1.8008,1.8008,1.8008,1.8008,1.8008,1.8008,0.0,0.0,0.0,0.0,0.0,0.0,1.8008,0.0,1.8008,0.0,0.0,0.0,0.0,0.0,0.0,0.0,0.0,1.8008,0.0,1.8403,1.8867,1.9297,1.9717,2.0156,2.0468,2.0605,2.0605,2.0605,2.0605,2.0605,2.0605,2.0605,2.0605,2.0605,2.0605,2.0605,2.0605,2.0605,2.0605,2.0605,2.0644,1.5264,1.5291,1.5344,1.5524,1.5558,1.5618,1.5751,1.5784,1.5784,1.5784,1.5784,1.5784,1.5784,1.5665,0.0,1.515,1.4856,1.4563,1.4269,1.4148,1.4088,1.4088,1.4088,1.4292,1.4692,0.0,0.0,1.6043,1.6965,1.764,1.7996,1.7633,1.783,1.8451,1.7711,1.7276,1.7036,1.6241,1.5964,1.5997,1.572,1.6242,1.7242,1.7553,1.8335,1.9206,1.8699,1.8873,1.9169,1.853,1.8461,1.8602,1.8303,1.7424,1.6448,1.6307,1.6263,1.6367,1.6966,1.7139,1.7285,1.7862,1.8008,1.8008,1.8008,1.8008,1.8008,1.8008,1.8008,1.8008,1.8008,1.8008,1.8008,1.8008,1.8008,1.8008,1.8008,0.0,0.0,0.0,0.0,0.0,0.0,1.8008,0.0,0.0,0.0,0.0,0.0,0.0,0.0,1.8008,1.8164,0.0,1.8598,1.9228,1.9648,1.9922,2.04,2.0605,2.0605,2.0605,2.0605,2.0605,2.0605,2.0605,2.0605,2.0605,2.0605,2.0605,2.0605,2.0605,2.0625,2.0752,2.082,2.0879,1.5724,1.5784,0.0,0.0,1.5784,0.0,1.5784,1.5784,1.5784,1.5784,1.5784,1.5832,1.592,1.592,1.5859,1.5722,0.0,0.0,0.0,1.4412,1.4292,1.4208,1.4292,1.4776,1.5779,1.5902,1.6429,1.7536,1.8149,1.874,1.9336,1.8462,1.8489,1.9214,1.7404,1.7104,1.7933,1.6942,1.6565,1.6674,1.6938,1.7683,1.8674,1.8979,1.9717,2.0605,2.0605,2.0605,2.0605,2.0605,2.0293,1.9951,1.9922,1.9329,1.8598,1.8184,1.8037,1.8008,1.8008,1.8008,1.8008,1.8008,1.8008,1.8008,1.8008,1.8008,1.8008,1.8008,1.8008,1.8008,1.8008,1.8008,1.8008,1.8008,1.8008,1.8008,1.8008,0.0,0.0,0.0,0.0,0.0,0.0,1.8008,1.8008,0.0,0.0,0.0,0.0,0.0,1.8057,1.8057,1.8393,1.8627,1.8685,1.9475,1.9932,1.9961,2.041,2.0605,2.0605,2.0605,2.0625,2.0644,2.0644,2.0664,2.0693,2.0693,2.0693,2.0693,2.0693,2.0693,2.0752,2.1123,2.1239,2.1307,0.0,0.0,1.5784,1.5784,1.5784,1.5784,1.5784,1.5784,1.5784,1.5784,1.5784,1.615,1.7131,1.7271,1.76,1.847,1.7109,1.6111,1.587,1.63,1.6198,1.5379,1.6116,1.665,1.6927,1.7779,1.8749,1.9835,1.9984,1.9956,1.9766,1.9531,1.9367,1.9287,1.8829,1.8746,1.8931,1.8158,1.8323,1.9052,1.8641,1.9127,2.0101,2.0207,2.0362,2.0605,2.0605,2.0605,2.0605,2.0605,2.0537,2.0352,2.0019,1.9775,1.9426,1.8676,1.8227,1.8008,1.8008,1.8008,1.8008,1.8008,1.8008,1.8008,1.8008,1.8008,1.8008,1.8008,1.8008,1.8008,1.8008,1.8008,1.8008,1.8008,1.8008,1.8008,1.8008,1.8008,0.0,0.0,1.8008,1.8008,1.8008,1.8008,1.8008,0.0,0.0,0.0,0.0,1.8276,1.8451,1.8451,1.8549,1.8909,1.9609,1.9814,2.0078,2.0449,2.0556,2.0605,2.0605,2.0605,2.0752,2.1074,2.1074,2.1269,2.1572,2.1572,2.1572,2.1572,2.1572,2.1572,2.1582,2.1689,2.1728,2.1797,1.5784,1.5784,1.5784,1.5784,1.5784,1.5784,1.5784,1.5784,1.5784,1.5784,1.6298,1.6943,1.7638,1.8187,1.9001,2.0215,1.8754,1.7592,1.7282,1.7488,1.7269,1.6486,1.6968,1.7545,1.8069,1.8678,1.952,2.0605,2.0605,2.0488,2.0215,2.0215,2.0088,1.9873,1.9873,1.9873,1.9883,1.9525,1.9697,2.0186,1.9867,2.0079,2.0605,2.0605,2.0605,2.0605,2.0605,2.0605,2.0605,2.0605,2.0605,2.0566,2.0283,2.0078,1.9824,1.9319,1.8744,1.8217,1.8057,1.8008,1.8008,1.8008,1.8008,1.8008,1.8008,1.8008,1.8008,1.8008,1.8008,1.8008,1.8008,1.8008,1.8008,1.8008,1.8008,1.8008,1.8008,1.8008,0.0,1.8008,1.8008,1.8008,1.8008,1.8008,1.8008,1.8008,1.8008,0.0,1.8247,1.8481,1.8598,1.8598,1.8978,1.9407,1.9912,2.0107,2.037,2.0605,2.0605,2.0713,2.0869,2.0869,2.1113,2.1533,2.1533,2.167,2.1885,2.1885,2.2195,2.2615,2.2615,2.294,2.3446,2.3604,2.3677,2.375,1.5784,1.5784,1.5784,1.5784,1.5967,1.6109,1.6109,1.6109,1.6157,1.6332,1.7131,1.7824,1.8187,1.9177,2.026,2.148,2.0421,1.9389,1.8698,1.8541,1.8218,1.7594,1.7698,1.827,1.9244,1.9244,1.9687,2.0605,2.0605,2.0605,2.0605,2.0605,2.0605,2.0605,2.0605,2.0605,2.0605,2.0605,2.0605,2.0605,2.0605,2.0605,2.0605,2.0605,2.0605,2.0605,2.0605,2.0605,2.0605,2.0605,2.0605,2.0605,2.0605,2.0312,2.0,1.9932,1.9358,1.8685,1.8208,1.8057,1.8008,1.8008,1.8008,1.8008,1.8008,1.8008,1.8008,1.8008,1.8008,1.8008,1.8008,1.8008,1.8008,1.8008,1.8008,1.8008,1.8008,0.0,1.8008,1.8008,1.8008,1.8008,1.8008,1.8008,1.8037,1.8105,1.8105,1.8256,1.8676,1.8754,1.8792,1.8792,1.9494,1.9941,2.001,2.0381,2.0605,2.0605,2.0674,2.0869,2.119,2.1268,2.1644,2.2253,2.2253,2.2375,2.259,2.259,2.3135,2.3945,2.3945,2.4545,2.5442,2.5779,2.5925,2.5941,1.5784,1.5784,1.5784,1.5784,1.6669,1.7412,1.7412,1.7412,1.777,1.881,1.8234,1.8503,2.0531,2.089,2.1525,2.2721,2.262,2.1761,2.0039,2.0406,2.0127,1.8776,1.9599,2.0157,2.0362,2.0362,2.044,2.0605,2.0605,2.0605,2.0605,2.0605,2.0605,2.0605,2.0605,2.0605,2.0605,2.0605,2.0605,2.0605,2.0605,2.0605,2.0605,2.0605,2.0605,2.0605,2.0605,2.0605,2.0605,2.0605,2.0605,2.0605,2.0605,2.0556,2.0391,2.0019,1.9787,1.9504,1.8715,1.8247,1.8008,1.8008,1.8008,1.8008,1.8008,1.8008,1.8008,1.8008,1.8008,1.8008,1.8008,1.8008,1.8008,1.8008,1.8008,1.8008,1.8008,0.0,1.8008,1.8008,1.8008,1.8008,1.8008,1.8008,1.812,1.8481,1.851,1.8695,1.916,1.9521,1.9717,1.9717,1.9844,2.0088,2.0498,2.0566,2.0605,2.0605,2.0947,2.1132,2.121,2.1621,2.253,2.3856,2.3856,2.4562,2.5807,2.5807,2.5879,2.6043,2.6043,2.6125,2.63,2.6378,2.6401,2.6412,1.5784,1.5784,1.6015,1.6716,1.7318,1.7917,1.8588,1.8141,1.8141,1.936,1.8993,1.936,2.1114,2.1889,2.2492,2.3047,2.3091,2.2558,2.1188,2.1392,2.1068,1.9912,2.0323,2.0605,2.0605,2.0605,2.0605,2.0605,2.0605,2.0605,2.0605,2.0605,2.0605,2.0605,2.0605,2.0605,2.0605,2.0605,2.0605,2.0605,2.0605,2.0605,2.0605,2.0605,2.0605,2.0605,2.0605,2.0605,2.0605,2.0605,2.0605,2.0605,2.0605,2.0605,2.0566,2.0322,1.9941,1.9434,1.8773,1.8461,1.8256,1.8066,1.8008,1.8008,1.8008,1.8008,1.8008,1.8008,1.8008,1.8008,1.8008,1.8008,1.8008,1.8008,1.8008,0.0,0.0,1.8008,1.8008,1.8008,1.8008,1.8105,1.8286,1.8315,1.849,1.8955,1.8984,1.917,1.96,1.9814,2.0019,2.0254,2.0264,2.0361,2.0605,2.0605,2.0723,2.0928,2.1093,2.1788,2.2829,2.3043,2.3981,2.5439,2.5439,2.5848,2.6524,2.6524,2.6842,2.736,2.736,2.7747,2.8303,2.8303,2.8303,2.8303,1.6567,1.6426,1.6615,1.7909,1.8365,1.8864,1.9761,1.9131,1.8956,2.0178,2.0079,2.0395,2.1569,2.2545,2.3091,2.3091,2.3091,2.2783,2.1943,2.1885,2.1494,2.0644,2.0605,2.0605,2.0605,2.0605,2.0605,2.0605,2.0605,2.0605,2.0605,2.0605,2.0605,2.0605,2.0605,2.0605,2.0605,2.0605,2.0605,2.0605,2.0605,2.0605,2.0605,2.0605,2.0605,2.0605,2.0605,2.0605,2.0605,2.0605,2.0605,2.0605,2.0605,2.0605,2.0605,2.0605,2.0136,1.9463,1.8936,1.8754,1.8646,1.8227,1.812,1.8091,1.8037,1.8008,1.8008,1.8008,1.8008,1.8008,1.8008,1.8008,1.8008,1.8008,0.0,0.0,0.0,1.8008,1.8047,1.8144,1.812,1.8286,1.8705,1.8754,1.8965,1.9404,1.9434,1.972,2.0359,2.0389,2.0651,2.126,2.1049,2.0934,2.0934,2.1294,2.1604,2.1918,2.217,2.3092,2.4568,2.4675,2.5541,2.6883,2.6883,2.7005,2.7261,2.7261,2.7747,2.8518,2.8518,2.9028,2.9792,2.9792,2.9792,2.9792,1.8764,1.8319,1.7956,1.9177,2.0305,2.1069,2.1159,2.1114,2.148,2.2687,2.1854,2.1623,2.2818,2.3047,2.3091,2.3091,2.3091,2.2783,2.1943,2.1885,2.1494,2.0644,2.0605,2.0605,2.0605,2.0605,2.0605,2.0605,2.0605,2.0605,2.0605,2.0605,2.0605,2.0605,2.0605,2.0605,2.0605,2.0605,2.0605,2.0605,2.0605,2.0605,2.0605,2.0605,2.0605,2.0605,2.0605,2.0605,2.0605,2.0605,2.0605,2.0605,2.0605,2.0605,2.0605,2.0605,2.0556,2.0331,1.9463,1.9238,1.9131,1.8666,1.8559,1.8451,1.8061,1.8008,1.8008,1.8008,1.8008,1.8008,1.8008,1.8008,1.8008,1.8008,0.0,0.0,1.8008,1.8008,1.8154,1.851,1.8559,1.8724,1.9199,1.9238,1.9414,1.9834,1.9873,2.0454,2.1776,2.1834,2.2296,2.3257,2.2366,2.1886,2.1886,2.3324,2.402,2.4076,2.5026,2.5545,2.5704,2.6132,2.6919,2.7964,2.7964,2.8557,2.9546,2.9546,2.9585,2.9663,2.9663,2.9714,2.9792,2.9792,2.9792,2.9792,1.9314,1.9131,1.9177,2.0395,2.098,2.1569,2.2306,2.18,2.1712,2.295,2.205,2.1774,2.296,2.3091,2.3091,2.3091,2.2857,2.251,2.1924,2.1631,2.1211,2.0635,2.0605,2.0605,2.0605,2.0605,2.0605,2.0605,2.0605,2.0605,2.0605,2.0605,2.0605,2.0605,2.0605,2.0605,2.0605,2.0605,2.0605,2.0605,2.0605,2.0605,2.0605,2.0605,2.0605,2.0605,2.0605,2.0605,2.0605,2.0605,2.0605,2.0605,2.0605,2.0605,2.0605,2.0605,2.0605,2.0537,2.0204,1.9883,1.958,1.915,1.9043,1.8994,1.8838,1.8799,1.8799,1.8799,1.8799,1.8799,1.8799,1.8799,1.8799,1.8799,0.0,1.8799,1.8799,1.8799,1.8857,1.9023,1.9043,1.9209,1.9639,2.0249,2.0753,2.1155,2.1775,2.237,2.2914,2.2925,2.311,2.3478,2.4065,2.4063,2.3437,2.4002,2.4594,2.5212,2.5633,2.6291,2.7242,2.74,2.8108,2.9157,2.9157,2.9404,2.9792,2.9792,2.9792,2.9792,2.9792,2.9792,2.9792,2.9792,2.9792,2.9792,2.0494,2.0305,2.044,2.1667,2.1845,2.212,2.296,2.2403,2.2173,2.3003,2.2369,2.2192,2.3003,2.3091,2.3091,2.3091,2.2711,2.2334,2.1914,2.1348,2.0889,2.0615,2.0605,2.0605,2.0605,2.0605,2.0605,2.0605,2.0605,2.0605,2.0605,2.0605,2.0605,2.0605,2.0605,2.0605,2.0605,2.0605,2.0605,2.0605,2.0605,2.0605,2.0605,2.0605,2.0605,2.0605,2.0605,2.0605,2.0605,2.0605,2.0605,2.0605,2.0605,2.0605,2.0605,2.0605,2.0605,2.0605,2.0605,2.0342,2.0019,1.959,1.9482,1.9453,1.9316,1.9287,1.9287,1.9287,1.9287,1.9287,1.9287,1.9287,1.9287,1.9287,1.9568,1.9785,1.9785,2.0017,2.0283,2.0427,2.0437,2.0575,2.0978,2.1639,2.2172,2.2456,2.311,2.3635,2.3963,2.4253,2.4514,2.4702,2.572,2.6104,2.5753,2.5753,2.6103,2.6776,2.6979,2.7605,2.8636,2.8636,2.9067,2.9792,2.9792,2.9792,2.9792,2.9792,2.9792,2.9792,2.9792,2.9792,2.9792,2.9792,2.9792,2.9792,2.2633,2.2129,2.1712,2.2906,2.3091,2.3091,2.3091,2.3091,2.3091,2.3091,2.3091,2.3091,2.3091,2.3091,2.3091,2.3091,2.2711,2.2324,2.1904,2.1094,2.0605,2.0605,2.0605,2.0605,2.0605,2.0605,2.0605,2.0605,2.0605,2.0605,2.0605,2.0605,2.0605,2.0605,2.0605,2.0605,2.0605,2.0605,2.0605,2.0605,2.0605,2.0605,2.0605,2.0605,2.0605,2.0605,2.0605,2.0605,2.0605,2.0605,2.0605,2.0605,2.0605,2.0605,2.0605,2.0605,2.0605,2.0605,2.0605,2.0605,2.0498,2.0029,1.9922,1.9814,1.9394,1.9297,1.9297,1.9297,1.9297,1.9297,1.9297,1.9297,1.9297,1.9333,2.017,2.0801,2.0801,2.1631,2.2387,2.2859,2.2915,2.3071,2.347,2.3526,2.3514,2.3514,2.3514,2.3963,2.4969,2.5955,2.6751,2.7268,2.7293,2.7821,2.8888,2.8888,2.8888,2.89,2.9515,2.9792,2.9792,2.9792,2.9792,2.9792,2.9792,2.9792,2.9792,2.9792,2.9792,2.9792,2.9792,2.9792,2.9792,2.9792,2.9792,2.9792,2.296,2.2818,2.2677,2.3047,2.3091,2.3091,2.3091,2.3091,2.3091,2.3091,2.3091,2.3091,2.3091,2.3091,2.2974,2.2682,2.2314,2.1758,2.1045,2.0752,2.0605,2.0605,2.0605,2.0605,2.0605,2.0605,2.0605,2.0605,2.0605,2.0605,2.0605,2.0605,2.0605,2.0605,2.0605,2.0605,2.0605,2.0605,2.0605,2.0605,2.0605,2.0605,2.0605,2.0605,2.0605,2.0605,2.0605,2.0605,2.0605,2.0605,2.0605,2.0605,2.0605,2.0605,2.0605,2.0605,2.1088,2.1593,2.1593,2.2113,2.2269,2.0775,2.041,2.037,2.0253,2.0224,2.0224,2.0224,2.0224,2.0224,2.0224,2.0224,2.0442,2.108,2.1443,2.1887,2.2582,2.2945,2.3169,2.329,2.3301,2.3358,2.3503,2.4145,2.4564,2.4564,2.5217,2.5721,2.6025,2.6349,2.6751,2.7268,2.7657,2.821,2.8888,2.8888,2.9101,2.9528,2.9704,2.9792,2.9792,2.9792,2.9792,2.9792,2.9792,2.9792,2.9792,2.9792,2.9792,2.9792,2.9792,2.9792,2.9792,2.9792,2.9792,2.9792,2.3091,2.3091,2.3091,2.3091,2.3091,2.3091,2.3091,2.3091,2.3091,2.3091,2.3091,2.3091,2.3091,2.3091,2.2925,2.2549,2.1973,2.1328,2.0644,2.0605,2.0605,2.0605,2.0605,2.0605,2.0605,2.0605,2.0605,2.0605,2.0605,2.0605,2.0605,2.0605,2.0605,2.0605,2.0605,2.0605,2.0605,2.0605,2.0605,2.0605,2.0605,2.0605,2.0605,2.0605,2.0605,2.0605,2.0605,2.0605,2.0605,2.0605,2.0605,2.0673,2.1049,2.1155,2.1221,2.1642,2.2151,2.259,2.259,2.3036,2.322,2.2048,2.1756,2.1756,2.1756,2.1756,2.1756,2.1756,2.1756,2.1756,2.1756,2.1756,2.1935,2.2515,2.2925,2.3404,2.4,2.4433,2.4696,2.4696,2.4696,2.4696,2.4696,2.5252,2.5581,2.5581,2.6164,2.6499,2.6499,2.67,2.7065,2.7595,2.8147,2.8699,2.9264,2.9277,2.9453,2.9792,2.9792,2.9792,2.9792,2.9792,2.9792,2.9792,2.9792,2.9792,2.9792,2.9792,2.9792,2.9792,2.9792,2.9792,2.9792,2.9792,2.9792,2.9792,2.3091,2.3091,2.3091,2.3091,2.3091,2.3091,2.3091,2.3091,2.3091,2.3091,2.3091,2.3091,2.3091,2.3091,2.2916,2.249,2.1629,2.0996,2.0635,2.0605,2.0605,2.0605,2.0605,2.0605,2.0605,2.0605,2.0605,2.0605,2.0605,2.0605,2.0605,2.0605,2.0605,2.0605,2.0605,2.0605,2.0605,2.0605,2.0605,2.0605,2.0605,2.0605,2.0605,2.0605,2.0634,2.0712,2.0712,2.0712,2.0712,2.0712,2.0712,2.0895,2.1849,2.214,2.2328,2.322,2.3551,2.3624,2.3624,2.3697,2.377,2.377,2.377,2.3708,2.3551,2.3514,2.3514,2.3514,2.3514,2.3514,2.3514,2.3514,2.3514,2.3635,2.4409,2.5052,2.5123,2.5908,2.6499,2.6499,2.6499,2.6499,2.6499,2.6499,2.6499,2.6499,2.6499,2.6512,2.6562,2.704,2.7557,2.816,2.8662,2.9202,2.9779,2.9792,2.9792,2.9792,2.9792,2.9792,2.9792,2.9792,2.9792,2.9792,2.9792,2.9792,2.9792,2.9792,2.9792,2.9792,2.9792,2.9792,2.9792,2.9792,2.9792,2.9792,2.3091,2.3091,2.3091,2.3091,2.3091,2.3091,2.3091,2.3091,2.3091,2.3091,2.3091,2.3091,2.3091,2.3091,2.2789,2.209,2.1221,2.0713,2.0615,2.0605,2.0605,2.0605,2.0605,2.0605,2.0605,2.0605,2.0605,2.0605,2.0605,2.0605,2.0605,2.0605,2.0605,2.0605,2.0605,2.0605,2.0605,2.0605,2.0605,2.0605,2.0605,2.0605,2.0605,2.0605,2.1039,2.1707,2.1707,2.1707,2.1707,2.1707,2.1707,2.1886,2.285,2.3184,2.322,2.3441,2.4047,2.4671,2.4671,2.5252,2.5838,2.5838,2.5838,2.5429,2.3854,2.3514,2.3514,2.3514,2.3514,2.3514,2.3514,2.3514,2.3745,2.4564,2.4862,2.5264,2.606,2.6349,2.6499,2.6499,2.6499,2.6499,2.6499,2.6499,2.6499,2.6499,2.6499,2.6688,2.7115,2.7253,2.7733,2.8687,2.8825,2.9202,2.9779,2.9792,2.9792,2.9792,2.9792,2.9792,2.9792,2.9792,2.9792,2.9792,2.9792,2.9792,2.9792,2.9792,2.9792,2.9792,2.9792,2.9792,2.9792,2.9792,2.9792,2.9792,2.3091,2.3091,2.3091,2.3091,2.3091,2.3091,2.3091,2.3091,2.3091,2.3091,2.3091,2.3091,2.3091,2.3091,2.276,2.1963,2.1114,2.0605,2.0605,2.0605,2.0605,2.0605,2.0605,2.0605,2.0605,2.0605,2.0605,2.0605,2.0605,2.0605,2.0605,2.0605,2.0605,2.0605,2.0605,2.0605,2.0605,2.0605,2.0605,2.0605,2.0605,2.0605,2.0644,2.1116,2.1555,2.2065,2.2553,2.2739,2.2739,2.2739,2.2739,2.2888,2.3891,2.4228,2.4301,2.4803,2.5288,2.5734,2.5734,2.6094,2.6499,2.6499,2.6499,2.6233,2.517,2.4909,2.4909,2.4909,2.4909,2.4909,2.4909,2.4909,2.5099,2.5616,2.5734,2.5908,2.6418,2.6499,2.6499,2.6499,2.6499,2.6499,2.6499,2.6499,2.6499,2.6499,2.6738,2.7014,2.7304,2.7783,2.8335,2.8875,2.9202,2.949,2.9792,2.9792,2.9792,2.9792,2.9792,2.9792,2.9792,2.9792,2.9792,2.9792,2.9792,2.9792,2.9792,2.9792,2.9792,2.9792,2.9792,2.9792,2.9792,2.9792,2.9792,2.9792,2.3091,2.3091,2.3091,2.3091,2.3091,2.3091,2.3091,2.3091,2.3091,2.3091,2.3091,2.3091,2.3091,2.2974,2.2646,2.1953,2.1114,2.0605,2.0605,2.0605,2.0605,2.0605,2.0605,2.0605,2.0605,2.0605,2.0605,2.0605,2.0605,2.0605,2.0605,2.0605,2.0605,2.0605,2.0605,2.0605,2.0605,2.0605,2.0605,2.0605,2.0789,2.0828,2.0934,2.1886,2.2366,2.2627,2.3441,2.3745,2.3745,2.3745,2.3745,2.3927,2.4933,2.5264,2.5406,2.6245,2.6499,2.6499,2.6499,2.6499,2.6499,2.6499,2.6499,2.6499,2.6499,2.6499,2.6499,2.6499,2.6499,2.6499,2.6499,2.6499,2.6499,2.6499,2.6499,2.6499,2.6499,2.6499,2.6499,2.6499,2.6499,2.6499,2.6499,2.6499,2.6537,2.6625,2.7065,2.7369,2.7557,2.8436,2.8938,2.9038,2.9541,2.9792,2.9792,2.9792,2.9792,2.9792,2.9792,2.9792,2.9792,2.9792,2.9792,2.9792,2.9792,2.9792,2.9792,2.9792,2.9792,2.9792,2.9792,2.9792,2.9792,2.9792,2.9792,2.9792,2.3091,2.3091,2.3091,2.3091,2.3091,2.3091,2.3091,2.3091,2.3091,2.3091,2.3091,2.3091,2.3091,2.249,2.2012,2.1894,2.1114,2.0605,2.0605,2.0605,2.0605,2.0605,2.0605,2.0605,2.0605,2.0605,2.0605,2.0605,2.0605,2.0605,2.0605,2.0605,2.0605,2.0605,2.0605,2.0605,2.0605,2.0605,2.0605,2.0673,2.1479,2.1811,2.1924,2.2925,2.3854,2.46,2.4755,2.4791,2.4791,2.4791,2.4791,2.4969,2.599,2.6314,2.6314,2.6452,2.6499,2.6499,2.6499,2.6499,2.6499,2.6499,2.6499,2.6499,2.6499,2.6499,2.6499,2.6499,2.6499,2.6499,2.6499,2.6499,2.6499,2.6499,2.6499,2.6499,2.6499,2.6499,2.6499,2.6499,2.6499,2.6499,2.6499,2.6499,2.6688,2.7165,2.7278,2.7695,2.8612,2.8813,2.9126,2.9666,2.9754,2.9792,2.9792,2.9792,2.9792,2.9792,2.9792,2.9792,2.9792,2.9792,2.9792,2.9792,2.9792,2.9792,2.9792,2.9792,2.9792,2.9792,2.9792,2.9792,2.9792,2.9792,2.9792,2.9792,2.3091,2.3091,2.3091,2.3091,2.3091,2.3091,2.3091,2.3091,2.3091,2.3091,2.3091,2.3091,2.3091,2.2383,2.1885,2.1885,2.1114,2.0605,2.0605,2.0605,2.0605,2.0605,2.0605,2.0605,2.0605,2.0605,2.0605,2.0605,2.0605,2.0605,2.0605,2.0605,2.0895,2.1375,2.0818,2.1193,2.2188,2.1631,2.1707,2.2264,2.2664,2.285,2.2962,2.3963,2.46,2.5087,2.5629,2.5838,2.5838,2.5838,2.5838,2.5921,2.6349,2.6499,2.6499,2.6499,2.6499,2.6499,2.6499,2.6499,2.6499,2.6499,2.6499,2.6499,2.6499,2.6499,2.6499,2.6499,2.6499,2.6499,2.6499,2.6499,2.6499,2.6499,2.6499,2.6499,2.6499,2.6499,2.6499,2.6499,2.6499,2.6612,2.6927,2.6952,2.719,2.7708,2.8034,2.8411,2.8863,2.9239,2.9528,2.9779,2.9792,2.9792,2.9792,2.9792,2.9792,2.9792,2.9792,2.9792,2.9792,2.9792,2.9792,2.9792,2.9792,2.9792,2.9792,2.9792,2.9792,2.9792,2.9792,2.9792,2.9792,2.9792,3.0139,3.0595]}]]